Time,TemperatureF,DewpointF,PressureIn,WindDirection,WindDirectionDegrees,WindSpeedMPH,WindSpeedGustMPH,Humidity,HourlyPrecipIn,Conditions,Clouds,dailyrainin,SoftwareType,DateUTC
2013-06-01 00:00:00,61.0,52.7,29.35,SW,226,0.0,1.0,74,0.00,,SCT110,0.10,VWS V14.01,2013-06-01 05:00:00,
2013-06-01 00:01:00,61.0,52.7,29.35,SW,226,0.0,0.0,74,0.00,,SCT110,0.00,VWS V14.01,2013-06-01 05:01:00,
2013-06-01 00:02:00,61.0,52.7,29.35,SW,226,0.0,0.0,74,0.00,,SCT110,0.00,VWS V14.01,2013-06-01 05:02:00,
2013-06-01 00:03:00,61.0,52.7,29.35,SW,226,0.0,0.0,74,0.00,,SCT110,0.00,VWS V14.01,2013-06-01 05:03:00,
2013-06-01 00:04:00,60.9,52.9,29.35,SW,226,0.0,0.0,75,0.00,,SCT110,0.00,VWS V14.01,2013-06-01 05:04:00,
2013-06-01 00:05:00,60.9,52.9,29.35,SW,226,0.0,0.0,75,0.00,,SCT110,0.00,VWS V14.01,2013-06-01 05:05:00,
2013-06-01 00:06:00,60.9,53.3,29.35,SW,226,0.0,0.0,76,0.00,,SCT110,0.00,VWS V14.01,2013-06-01 05:06:00,
2013-06-01 00:07:00,60.7,53.5,29.35,SW,226,0.0,0.0,77,0.00,,SCT110,0.00,VWS V14.01,2013-06-01 05:07:00,
2013-06-01 00:08:00,60.5,53.6,29.35,SW,226,0.0,0.0,78,0.00,,SCT110,0.00,VWS V14.01,2013-06-01 05:08:00,
2013-06-01 00:09:00,60.4,53.9,29.35,SW,226,1.0,1.0,79,0.00,,SCT110,0.00,VWS V14.01,2013-06-01 05:09:00,
2013-06-01 00:10:00,60.2,53.7,29.35,SW,226,0.0,1.0,79,0.00,,SCT110,0.00,VWS V14.01,2013-06-01 05:10:00,
2013-06-01 00:11:00,60.1,53.6,29.35,SW,226,0.0,1.0,79,0.00,,SCT110,0.00,VWS V14.01,2013-06-01 05:11:00,
2013-06-01 00:12:00,59.9,53.7,29.35,SW,226,0.0,1.0,80,0.00,,SCT110,0.00,VWS V14.01,2013-06-01 05:12:00,
2013-06-01 00:13:00,59.9,53.7,29.35,SW,226,0.0,1.0,80,0.00,,SCT110,0.00,VWS V14.01,2013-06-01 05:13:00,
2013-06-01 00:14:00,59.8,53.6,29.35,SW,226,0.0,1.0,80,0.00,,SCT110,0.00,VWS V14.01,2013-06-01 05:14:00,
2013-06-01 00:15:00,59.6,53.4,29.33,SW,226,0.0,1.0,80,0.00,,SCT110,0.00,VWS V14.01,2013-06-01 05:15:00,
2013-06-01 00:16:00,59.6,53.1,29.33,SW,226,0.0,1.0,79,0.00,,SCT110,0.00,VWS V14.01,2013-06-01 05:16:00,
2013-06-01 00:17:00,59.6,53.1,29.33,SW,226,0.0,1.0,79,0.00,,SCT110,0.00,VWS V14.01,2013-06-01 05:17:00,
2013-06-01 00:18:00,59.6,53.1,29.33,SW,226,0.0,1.0,79,0.00,,SCT110,0.00,VWS V14.01,2013-06-01 05:18:00,
2013-06-01 00:19:00,59.6,53.1,29.33,SW,226,0.0,1.0,79,0.00,,SCT110,0.00,VWS V14.01,2013-06-01 05:19:00,
2013-06-01 00:20:00,59.5,53.0,29.33,SW,226,0.0,1.0,79,0.00,,SCT110,0.00,VWS V14.01,2013-06-01 05:20:00,
2013-06-01 00:21:00,59.5,53.0,29.33,SW,226,0.0,1.0,79,0.00,,SCT110,0.00,VWS V14.01,2013-06-01 05:21:00,
2013-06-01 00:22:00,59.5,53.0,29.33,SW,226,0.0,1.0,79,0.00,,SCT110,0.00,VWS V14.01,2013-06-01 05:22:00,
2013-06-01 00:23:00,59.5,53.3,29.33,SW,226,0.0,1.0,80,0.00,,SCT110,0.00,VWS V14.01,2013-06-01 05:23:00,
2013-06-01 00:24:00,59.3,53.5,29.33,SW,226,1.0,1.0,81,0.00,,SCT110,0.00,VWS V14.01,2013-06-01 05:24:00,
2013-06-01 00:25:00,59.0,53.5,29.33,SW,226,1.0,2.0,82,0.00,,SCT110,0.00,VWS V14.01,2013-06-01 05:25:00,
2013-06-01 00:26:00,58.9,53.8,29.33,SW,226,1.0,2.0,83,0.00,,SCT110,0.00,VWS V14.01,2013-06-01 05:26:00,
2013-06-01 00:27:00,58.7,53.6,29.33,SW,226,1.0,2.0,83,0.00,,SCT110,0.00,VWS V14.01,2013-06-01 05:27:00,
2013-06-01 00:28:00,58.4,53.6,29.33,SW,226,1.0,2.0,84,0.00,,SCT110,0.00,VWS V14.01,2013-06-01 05:28:00,
2013-06-01 00:29:00,58.4,53.6,29.33,SW,226,1.0,2.0,84,0.00,,SCT110,0.00,VWS V14.01,2013-06-01 05:29:00,
2013-06-01 00:30:00,58.3,53.8,29.34,SW,226,1.0,2.0,85,0.00,,SCT110,0.00,VWS V14.01,2013-06-01 05:30:00,
2013-06-01 00:31:00,58.1,53.6,29.34,SW,226,1.0,1.0,85,0.00,,SCT110,0.00,VWS V14.01,2013-06-01 05:31:00,
2013-06-01 00:32:00,58.1,53.6,29.34,SW,226,1.0,1.0,85,0.00,,BKN250,0.00,VWS V14.01,2013-06-01 05:32:00,
2013-06-01 00:33:00,58.0,53.5,29.34,SW,226,0.0,1.0,85,0.00,,BKN250,0.00,VWS V14.01,2013-06-01 05:33:00,
2013-06-01 00:34:00,58.0,53.5,29.34,SW,226,0.0,1.0,85,0.00,,BKN250,0.00,VWS V14.01,2013-06-01 05:34:00,
2013-06-01 00:35:00,58.0,53.5,29.34,SW,226,0.0,1.0,85,0.00,,BKN250,0.00,VWS V14.01,2013-06-01 05:35:00,
2013-06-01 00:36:00,58.0,53.5,29.34,SW,226,0.0,1.0,85,0.00,,BKN250,0.00,VWS V14.01,2013-06-01 05:36:00,
2013-06-01 00:37:00,57.8,53.7,29.34,SW,226,0.0,1.0,86,0.00,,BKN250,0.00,VWS V14.01,2013-06-01 05:37:00,
2013-06-01 00:38:00,57.8,53.7,29.34,SW,226,1.0,1.0,86,0.00,,BKN250,0.00,VWS V14.01,2013-06-01 05:38:00,
2013-06-01 00:39:00,57.6,53.5,29.34,SW,226,1.0,1.0,86,0.00,,BKN250,0.00,VWS V14.01,2013-06-01 05:39:00,
2013-06-01 00:40:00,57.6,53.5,29.34,SW,226,0.0,2.0,86,0.00,,BKN250,0.00,VWS V14.01,2013-06-01 05:40:00,
2013-06-01 00:41:00,57.5,53.7,29.34,SW,226,2.0,2.0,87,0.00,,BKN250,0.00,VWS V14.01,2013-06-01 05:41:00,
2013-06-01 00:42:00,57.5,53.7,29.34,SW,226,1.0,4.0,87,0.00,,BKN250,0.00,VWS V14.01,2013-06-01 05:42:00,
2013-06-01 00:43:00,57.5,53.7,29.34,SW,226,2.0,5.0,87,0.00,,BKN250,0.00,VWS V14.01,2013-06-01 05:43:00,
2013-06-01 00:44:00,57.3,53.5,29.34,SW,226,1.0,5.0,87,0.00,,BKN250,0.00,VWS V14.01,2013-06-01 05:44:00,
2013-06-01 00:45:00,57.3,53.5,29.35,SW,226,1.0,5.0,87,0.00,,BKN250,0.00,VWS V14.01,2013-06-01 05:45:00,
2013-06-01 00:46:00,57.3,53.5,29.35,SW,226,0.0,5.0,87,0.00,,BKN250,0.00,VWS V14.01,2013-06-01 05:46:00,
2013-06-01 00:47:00,57.3,53.2,29.35,SW,226,0.0,5.0,86,0.00,,BKN250,0.00,VWS V14.01,2013-06-01 05:47:00,
2013-06-01 00:48:00,57.5,53.3,29.35,SW,226,0.0,5.0,86,0.00,,BKN250,0.00,VWS V14.01,2013-06-01 05:48:00,
2013-06-01 00:49:00,57.5,53.3,29.35,SW,226,0.0,5.0,86,0.00,,BKN250,0.00,VWS V14.01,2013-06-01 05:49:00,
2013-06-01 00:50:00,57.5,53.0,29.35,SW,226,0.0,5.0,85,0.00,,BKN250,0.00,VWS V14.01,2013-06-01 05:50:00,
2013-06-01 00:51:00,57.5,53.0,29.35,SW,226,0.0,5.0,85,0.00,,BKN250,0.00,VWS V14.01,2013-06-01 05:51:00,
2013-06-01 00:52:00,57.5,52.7,29.35,SW,226,0.0,5.0,84,0.00,,BKN250,0.00,VWS V14.01,2013-06-01 05:52:00,
2013-06-01 00:53:00,57.6,52.8,29.35,SW,226,0.0,5.0,84,0.00,,BKN250,0.00,VWS V14.01,2013-06-01 05:53:00,
2013-06-01 00:54:00,57.6,52.8,29.35,SW,226,0.0,5.0,84,0.00,,BKN250,0.00,VWS V14.01,2013-06-01 05:54:00,
2013-06-01 00:55:00,57.6,52.5,29.35,SW,226,0.0,5.0,83,0.00,,BKN250,0.00,VWS V14.01,2013-06-01 05:55:00,
2013-06-01 00:56:00,57.8,52.7,29.35,SW,226,0.0,5.0,83,0.00,,BKN250,0.00,VWS V14.01,2013-06-01 05:56:00,
2013-06-01 00:57:00,58.0,52.9,29.35,SW,226,0.0,5.0,83,0.00,,BKN250,0.00,VWS V14.01,2013-06-01 05:57:00,
2013-06-01 00:58:00,58.0,52.9,29.35,SW,226,0.0,5.0,83,0.00,,BKN250,0.00,VWS V14.01,2013-06-01 05:58:00,
2013-06-01 00:59:00,58.0,52.9,29.35,SW,226,0.0,5.0,83,0.00,,BKN250,0.00,VWS V14.01,2013-06-01 05:59:00,
2013-06-01 01:00:00,58.1,53.0,29.35,SW,226,0.0,5.0,83,0.00,,BKN250,0.00,VWS V14.01,2013-06-01 06:00:00,
2013-06-01 01:01:00,58.1,53.0,29.35,SW,226,1.0,1.0,83,0.00,,BKN250,0.00,VWS V14.01,2013-06-01 06:01:00,
2013-06-01 01:02:00,58.0,52.9,29.35,SW,226,0.0,1.0,83,0.00,,BKN250,0.00,VWS V14.01,2013-06-01 06:02:00,
2013-06-01 01:03:00,58.0,53.2,29.35,SW,226,3.0,3.0,84,0.00,,BKN250,0.00,VWS V14.01,2013-06-01 06:03:00,
2013-06-01 01:04:00,57.8,53.0,29.35,SW,226,1.0,3.0,84,0.00,,BKN250,0.00,VWS V14.01,2013-06-01 06:04:00,
2013-06-01 01:05:00,57.6,53.1,29.35,SW,215,2.0,5.0,85,0.00,,BKN250,0.00,VWS V14.01,2013-06-01 06:05:00,
2013-06-01 01:06:00,57.6,53.1,29.35,SW,215,0.0,5.0,85,0.00,,BKN250,0.00,VWS V14.01,2013-06-01 06:06:00,
2013-06-01 01:07:00,57.6,53.1,29.35,SW,215,1.0,5.0,85,0.00,,BKN250,0.00,VWS V14.01,2013-06-01 06:07:00,
2013-06-01 01:08:00,57.6,53.1,29.35,SW,215,0.0,5.0,85,0.00,,BKN250,0.00,VWS V14.01,2013-06-01 06:08:00,
2013-06-01 01:09:00,57.6,52.8,29.35,SW,215,0.0,5.0,84,0.00,,BKN250,0.00,VWS V14.01,2013-06-01 06:09:00,
2013-06-01 01:10:00,57.8,53.0,29.35,SW,215,0.0,5.0,84,0.00,,BKN250,0.00,VWS V14.01,2013-06-01 06:10:00,
2013-06-01 01:11:00,57.8,53.0,29.35,SW,215,0.0,5.0,84,0.00,,BKN250,0.00,VWS V14.01,2013-06-01 06:11:00,
2013-06-01 01:12:00,57.8,52.7,29.35,SW,215,0.0,5.0,83,0.00,,BKN250,0.00,VWS V14.01,2013-06-01 06:12:00,
2013-06-01 01:13:00,57.8,52.7,29.35,SW,215,0.0,5.0,83,0.00,,BKN250,0.00,VWS V14.01,2013-06-01 06:13:00,
2013-06-01 01:14:00,57.8,52.7,29.35,SW,215,0.0,5.0,83,0.00,,BKN250,0.00,VWS V14.01,2013-06-01 06:14:00,
2013-06-01 01:15:00,58.0,52.9,29.35,SW,215,0.0,5.0,83,0.00,,BKN250,0.00,VWS V14.01,2013-06-01 06:15:00,
2013-06-01 01:16:00,58.0,53.2,29.35,SW,215,0.0,5.0,84,0.00,,BKN250,0.00,VWS V14.01,2013-06-01 06:16:00,
2013-06-01 01:17:00,58.0,52.9,29.35,SSW,206,0.0,5.0,83,0.00,,BKN250,0.00,VWS V14.01,2013-06-01 06:17:00,
2013-06-01 01:18:00,58.0,52.9,29.35,SSW,206,1.0,5.0,83,0.00,,BKN250,0.00,VWS V14.01,2013-06-01 06:18:00,
2013-06-01 01:19:00,58.1,53.0,29.35,SSW,206,0.0,5.0,83,0.00,,BKN250,0.00,VWS V14.01,2013-06-01 06:19:00,
2013-06-01 01:20:00,58.1,52.6,29.35,SSW,206,0.0,5.0,82,0.00,,BKN250,0.00,VWS V14.01,2013-06-01 06:20:00,
2013-06-01 01:21:00,58.1,52.6,29.35,SSW,206,0.0,5.0,82,0.00,,BKN250,0.00,VWS V14.01,2013-06-01 06:21:00,
2013-06-01 01:22:00,58.3,52.8,29.35,SSW,206,0.0,5.0,82,0.00,,BKN250,0.00,VWS V14.01,2013-06-01 06:22:00,
2013-06-01 01:23:00,58.3,52.8,29.35,SSW,206,0.0,5.0,82,0.00,,BKN250,0.00,VWS V14.01,2013-06-01 06:23:00,
2013-06-01 01:24:00,58.3,52.8,29.35,SSW,206,0.0,5.0,82,0.00,,BKN250,0.00,VWS V14.01,2013-06-01 06:24:00,
2013-06-01 01:25:00,58.3,52.8,29.35,SSW,206,0.0,5.0,82,0.00,,BKN250,0.00,VWS V14.01,2013-06-01 06:25:00,
2013-06-01 01:26:00,58.3,52.8,29.35,SSW,206,0.0,5.0,82,0.00,,BKN250,0.00,VWS V14.01,2013-06-01 06:26:00,
2013-06-01 01:27:00,58.3,52.8,29.35,SSW,206,0.0,5.0,82,0.00,,BKN250,0.00,VWS V14.01,2013-06-01 06:27:00,
2013-06-01 01:28:00,58.4,52.6,29.35,SSW,206,1.0,5.0,81,0.00,,BKN250,0.00,VWS V14.01,2013-06-01 06:28:00,
2013-06-01 01:29:00,58.4,52.6,29.35,SSW,206,0.0,5.0,81,0.00,,BKN250,0.00,VWS V14.01,2013-06-01 06:29:00,
2013-06-01 01:30:00,58.4,52.3,29.35,SSW,206,0.0,5.0,80,0.00,,BKN250,0.00,VWS V14.01,2013-06-01 06:30:00,
2013-06-01 01:31:00,58.4,52.3,29.35,SSW,206,0.0,1.0,80,0.00,,BKN250,0.00,VWS V14.01,2013-06-01 06:31:00,
2013-06-01 01:32:00,58.4,52.3,29.35,SSW,206,0.0,1.0,80,0.00,,BKN250,0.00,VWS V14.01,2013-06-01 06:32:00,
2013-06-01 01:33:00,58.4,52.3,29.35,SSW,206,0.0,1.0,80,0.00,,BKN090,0.00,VWS V14.01,2013-06-01 06:33:00,
2013-06-01 01:34:00,58.6,52.5,29.35,SSW,206,0.0,1.0,80,0.00,,BKN090,0.00,VWS V14.01,2013-06-01 06:34:00,
2013-06-01 01:35:00,58.6,52.1,29.35,SSW,206,0.0,1.0,79,0.00,,BKN090,0.00,VWS V14.01,2013-06-01 06:35:00,
2013-06-01 01:36:00,58.6,52.1,29.35,SSW,206,0.0,1.0,79,0.00,,BKN090,0.00,VWS V14.01,2013-06-01 06:36:00,
2013-06-01 01:37:00,58.6,52.1,29.35,SSW,206,0.0,1.0,79,0.00,,BKN090,0.00,VWS V14.01,2013-06-01 06:37:00,
2013-06-01 01:38:00,58.6,52.1,29.35,SSW,206,0.0,1.0,79,0.00,,BKN090,0.00,VWS V14.01,2013-06-01 06:38:00,
2013-06-01 01:39:00,58.6,52.1,29.35,SSW,206,0.0,1.0,79,0.00,,BKN090,0.00,VWS V14.01,2013-06-01 06:39:00,
2013-06-01 01:40:00,58.4,51.9,29.35,SSW,206,0.0,1.0,79,0.00,,BKN090,0.00,VWS V14.01,2013-06-01 06:40:00,
2013-06-01 01:41:00,58.4,51.9,29.35,SSW,206,0.0,1.0,79,0.00,,BKN090,0.00,VWS V14.01,2013-06-01 06:41:00,
2013-06-01 01:42:00,58.4,51.9,29.35,SSW,206,0.0,1.0,79,0.00,,BKN090,0.00,VWS V14.01,2013-06-01 06:42:00,
2013-06-01 01:43:00,58.4,51.9,29.35,SSW,206,0.0,1.0,79,0.00,,BKN090,0.00,VWS V14.01,2013-06-01 06:43:00,
2013-06-01 01:44:00,58.4,51.9,29.35,SSW,206,0.0,1.0,79,0.00,,BKN090,0.00,VWS V14.01,2013-06-01 06:44:00,
2013-06-01 01:45:00,58.4,51.9,29.36,SSW,206,0.0,1.0,79,0.00,,BKN090,0.00,VWS V14.01,2013-06-01 06:45:00,
2013-06-01 01:46:00,58.6,52.1,29.36,SSW,206,0.0,1.0,79,0.00,,BKN090,0.00,VWS V14.01,2013-06-01 06:46:00,
2013-06-01 01:47:00,58.6,52.1,29.36,SSW,206,0.0,1.0,79,0.00,,BKN090,0.00,VWS V14.01,2013-06-01 06:47:00,
2013-06-01 01:48:00,58.6,52.1,29.36,SSW,206,0.0,1.0,79,0.00,,BKN090,0.00,VWS V14.01,2013-06-01 06:48:00,
2013-06-01 01:49:00,58.6,52.1,29.36,SSW,206,0.0,1.0,79,0.00,,BKN090,0.00,VWS V14.01,2013-06-01 06:49:00,
2013-06-01 01:50:00,58.6,52.1,29.36,SSW,206,0.0,1.0,79,0.00,,BKN090,0.00,VWS V14.01,2013-06-01 06:50:00,
2013-06-01 01:51:00,58.6,52.1,29.36,SSW,206,0.0,1.0,79,0.00,,BKN090,0.00,VWS V14.01,2013-06-01 06:51:00,
2013-06-01 01:52:00,58.6,52.1,29.36,SSW,206,0.0,1.0,79,0.00,,BKN090,0.00,VWS V14.01,2013-06-01 06:52:00,
2013-06-01 01:53:00,58.6,52.1,29.36,SSW,206,0.0,1.0,79,0.00,,BKN090,0.00,VWS V14.01,2013-06-01 06:53:00,
2013-06-01 01:54:00,58.6,52.1,29.36,SSW,206,0.0,1.0,79,0.00,,BKN090,0.00,VWS V14.01,2013-06-01 06:54:00,
2013-06-01 01:55:00,58.6,52.1,29.36,SSW,206,0.0,1.0,79,0.00,,BKN090,0.00,VWS V14.01,2013-06-01 06:55:00,
2013-06-01 01:56:00,58.6,52.1,29.36,SSW,206,0.0,1.0,79,0.00,,BKN090,0.00,VWS V14.01,2013-06-01 06:56:00,
2013-06-01 01:57:00,58.6,52.1,29.36,SSW,206,0.0,1.0,79,0.00,,BKN090,0.00,VWS V14.01,2013-06-01 06:57:00,
2013-06-01 01:58:00,58.6,52.5,29.36,SSW,206,0.0,1.0,80,0.00,,BKN090,0.00,VWS V14.01,2013-06-01 06:58:00,
2013-06-01 01:59:00,58.4,52.3,29.36,SSW,206,0.0,1.0,80,0.00,,BKN090,0.00,VWS V14.01,2013-06-01 06:59:00,
2013-06-01 02:00:00,58.4,52.3,29.35,SSW,206,0.0,1.0,80,0.00,,BKN090,0.00,VWS V14.01,2013-06-01 07:00:00,
2013-06-01 02:01:00,58.3,52.2,29.35,SSW,206,0.0,0.0,80,0.00,,BKN090,0.00,VWS V14.01,2013-06-01 07:01:00,
2013-06-01 02:02:00,58.3,52.2,29.35,SSW,206,0.0,0.0,80,0.00,,BKN090,0.00,VWS V14.01,2013-06-01 07:02:00,
2013-06-01 02:03:00,58.1,52.3,29.35,SSW,206,0.0,1.0,81,0.00,,BKN090,0.00,VWS V14.01,2013-06-01 07:03:00,
2013-06-01 02:04:00,58.1,52.6,29.35,SSW,206,0.0,1.0,82,0.00,,BKN090,0.00,VWS V14.01,2013-06-01 07:04:00,
2013-06-01 02:05:00,58.0,52.5,29.35,SSW,206,0.0,1.0,82,0.00,,BKN090,0.00,VWS V14.01,2013-06-01 07:05:00,
2013-06-01 02:06:00,57.8,52.3,29.35,SSW,206,0.0,1.0,82,0.00,,BKN090,0.00,VWS V14.01,2013-06-01 07:06:00,
2013-06-01 02:07:00,57.6,52.5,29.35,SSW,206,0.0,1.0,83,0.00,,BKN090,0.00,VWS V14.01,2013-06-01 07:07:00,
2013-06-01 02:08:00,57.5,52.4,29.35,SSW,206,1.0,1.0,83,0.00,,BKN090,0.00,VWS V14.01,2013-06-01 07:08:00,
2013-06-01 02:09:00,57.5,52.4,29.35,SSW,206,0.0,1.0,83,0.00,,BKN090,0.00,VWS V14.01,2013-06-01 07:09:00,
2013-06-01 02:10:00,57.3,52.2,29.35,SSW,206,0.0,1.0,83,0.00,,BKN090,0.00,VWS V14.01,2013-06-01 07:10:00,
2013-06-01 02:11:00,57.2,52.4,29.35,SSW,206,0.0,1.0,84,0.00,,BKN090,0.00,VWS V14.01,2013-06-01 07:11:00,
2013-06-01 02:12:00,57.2,52.4,29.35,SSW,206,0.0,1.0,84,0.00,,BKN090,0.00,VWS V14.01,2013-06-01 07:12:00,
2013-06-01 02:13:00,57.2,52.4,29.35,SSW,206,0.0,1.0,84,0.00,,BKN090,0.00,VWS V14.01,2013-06-01 07:13:00,
2013-06-01 02:14:00,57.2,52.4,29.35,SSW,206,0.0,1.0,84,0.00,,BKN090,0.00,VWS V14.01,2013-06-01 07:14:00,
2013-06-01 02:15:00,57.2,52.4,29.36,SSW,206,0.0,1.0,84,0.00,,BKN090,0.00,VWS V14.01,2013-06-01 07:15:00,
2013-06-01 02:16:00,57.2,52.4,29.36,SSW,206,0.0,1.0,84,0.00,,BKN090,0.00,VWS V14.01,2013-06-01 07:16:00,
2013-06-01 02:17:00,57.2,52.4,29.36,SSW,206,0.0,1.0,84,0.00,,BKN090,0.00,VWS V14.01,2013-06-01 07:17:00,
2013-06-01 02:18:00,57.2,52.4,29.36,SSW,206,0.0,1.0,84,0.00,,BKN090,0.00,VWS V14.01,2013-06-01 07:18:00,
2013-06-01 02:19:00,57.2,52.4,29.36,SSW,206,0.0,1.0,84,0.00,,BKN090,0.00,VWS V14.01,2013-06-01 07:19:00,
2013-06-01 02:20:00,57.2,52.4,29.36,SSW,206,0.0,1.0,84,0.00,,BKN090,0.00,VWS V14.01,2013-06-01 07:20:00,
2013-06-01 02:21:00,57.2,52.1,29.36,SSW,206,0.0,1.0,83,0.00,,BKN090,0.00,VWS V14.01,2013-06-01 07:21:00,
2013-06-01 02:22:00,57.2,52.1,29.36,SSW,206,0.0,1.0,83,0.00,,BKN090,0.00,VWS V14.01,2013-06-01 07:22:00,
2013-06-01 02:23:00,57.2,52.1,29.36,SSW,206,0.0,1.0,83,0.00,,BKN090,0.00,VWS V14.01,2013-06-01 07:23:00,
2013-06-01 02:24:00,57.2,52.1,29.36,SSW,206,0.0,1.0,83,0.00,,BKN090,0.00,VWS V14.01,2013-06-01 07:24:00,
2013-06-01 02:25:00,57.2,52.1,29.36,SSW,206,0.0,1.0,83,0.00,,BKN090,0.00,VWS V14.01,2013-06-01 07:25:00,
2013-06-01 02:26:00,57.3,52.2,29.36,SSW,206,0.0,1.0,83,0.00,,BKN090,0.00,VWS V14.01,2013-06-01 07:26:00,
2013-06-01 02:27:00,57.3,52.2,29.36,SSW,206,0.0,1.0,83,0.00,,BKN090,0.00,VWS V14.01,2013-06-01 07:27:00,
2013-06-01 02:28:00,57.3,52.2,29.36,SSW,206,0.0,1.0,83,0.00,,BKN090,0.00,VWS V14.01,2013-06-01 07:28:00,
2013-06-01 02:29:00,57.3,52.2,29.36,SSW,206,0.0,1.0,83,0.00,,BKN090,0.00,VWS V14.01,2013-06-01 07:29:00,
2013-06-01 02:30:00,57.3,52.2,29.36,SSW,206,0.0,1.0,83,0.00,,BKN090,0.00,VWS V14.01,2013-06-01 07:30:00,
2013-06-01 02:31:00,57.3,51.9,29.36,SSW,206,0.0,0.0,82,0.00,,BKN090,0.00,VWS V14.01,2013-06-01 07:31:00,
2013-06-01 02:32:00,57.3,51.9,29.36,SSW,206,0.0,0.0,82,0.00,,BKN090,0.00,VWS V14.01,2013-06-01 07:32:00,
2013-06-01 02:33:00,57.3,51.9,29.36,SSW,206,0.0,0.0,82,0.00,,BKN080,0.00,VWS V14.01,2013-06-01 07:33:00,
2013-06-01 02:34:00,57.3,51.9,29.36,SSW,206,0.0,1.0,82,0.00,,BKN080,0.00,VWS V14.01,2013-06-01 07:34:00,
2013-06-01 02:35:00,57.3,51.5,29.36,SSW,206,0.0,1.0,81,0.00,,BKN080,0.00,VWS V14.01,2013-06-01 07:35:00,
2013-06-01 02:36:00,57.3,51.5,29.36,SSW,206,0.0,1.0,81,0.00,,BKN080,0.00,VWS V14.01,2013-06-01 07:36:00,
2013-06-01 02:37:00,57.5,51.7,29.36,SSW,206,0.0,1.0,81,0.00,,BKN080,0.00,VWS V14.01,2013-06-01 07:37:00,
2013-06-01 02:38:00,57.5,51.7,29.36,SSW,206,0.0,1.0,81,0.00,,BKN080,0.00,VWS V14.01,2013-06-01 07:38:00,
2013-06-01 02:39:00,57.5,51.7,29.36,SSW,206,0.0,1.0,81,0.00,,BKN080,0.00,VWS V14.01,2013-06-01 07:39:00,
2013-06-01 02:40:00,57.5,51.7,29.36,SSW,206,0.0,1.0,81,0.00,,BKN080,0.00,VWS V14.01,2013-06-01 07:40:00,
2013-06-01 02:41:00,57.5,51.7,29.36,SSW,206,0.0,1.0,81,0.00,,BKN080,0.00,VWS V14.01,2013-06-01 07:41:00,
2013-06-01 02:42:00,57.5,51.7,29.36,SSW,206,0.0,1.0,81,0.00,,BKN080,0.00,VWS V14.01,2013-06-01 07:42:00,
2013-06-01 02:43:00,57.5,51.7,29.36,SSW,206,0.0,1.0,81,0.00,,BKN080,0.00,VWS V14.01,2013-06-01 07:43:00,
2013-06-01 02:44:00,57.5,51.4,29.36,SSW,206,0.0,1.0,80,0.00,,BKN080,0.00,VWS V14.01,2013-06-01 07:44:00,
2013-06-01 02:45:00,57.5,51.7,29.35,SSW,206,0.0,1.0,81,0.00,,BKN080,0.00,VWS V14.01,2013-06-01 07:45:00,
2013-06-01 02:46:00,57.5,51.7,29.35,SSW,206,0.0,1.0,81,0.00,,BKN080,0.00,VWS V14.01,2013-06-01 07:46:00,
2013-06-01 02:47:00,57.5,51.4,29.35,SSW,206,0.0,1.0,80,0.00,,BKN080,0.00,VWS V14.01,2013-06-01 07:47:00,
2013-06-01 02:48:00,57.5,51.4,29.35,SSW,206,0.0,1.0,80,0.00,,BKN080,0.00,VWS V14.01,2013-06-01 07:48:00,
2013-06-01 02:49:00,57.3,51.5,29.35,SSW,206,0.0,1.0,81,0.00,,BKN080,0.00,VWS V14.01,2013-06-01 07:49:00,
2013-06-01 02:50:00,57.3,51.2,29.35,SSW,206,0.0,1.0,80,0.00,,BKN080,0.00,VWS V14.01,2013-06-01 07:50:00,
2013-06-01 02:51:00,57.3,51.2,29.35,SSW,206,0.0,1.0,80,0.00,,BKN080,0.00,VWS V14.01,2013-06-01 07:51:00,
2013-06-01 02:52:00,57.3,51.2,29.35,SSW,206,0.0,1.0,80,0.00,,BKN080,0.00,VWS V14.01,2013-06-01 07:52:00,
2013-06-01 02:53:00,57.3,51.2,29.35,SSW,206,0.0,1.0,80,0.00,,BKN080,0.00,VWS V14.01,2013-06-01 07:53:00,
2013-06-01 02:54:00,57.3,51.2,29.35,SSW,206,0.0,1.0,80,0.00,,BKN080,0.00,VWS V14.01,2013-06-01 07:54:00,
2013-06-01 02:55:00,57.3,51.2,29.35,SSW,206,0.0,1.0,80,0.00,,BKN080,0.00,VWS V14.01,2013-06-01 07:55:00,
2013-06-01 02:56:00,57.3,51.2,29.35,SSW,206,0.0,1.0,80,0.00,,BKN080,0.00,VWS V14.01,2013-06-01 07:56:00,
2013-06-01 02:57:00,57.3,51.2,29.35,SSW,206,0.0,1.0,80,0.00,,BKN080,0.00,VWS V14.01,2013-06-01 07:57:00,
2013-06-01 02:58:00,57.3,51.2,29.35,SSW,206,0.0,1.0,80,0.00,,BKN080,0.00,VWS V14.01,2013-06-01 07:58:00,
2013-06-01 02:59:00,57.3,51.2,29.35,SSW,206,0.0,1.0,80,0.00,,BKN080,0.00,VWS V14.01,2013-06-01 07:59:00,
2013-06-01 03:00:00,57.3,51.2,29.36,SSW,206,0.0,1.0,80,0.00,,BKN080,0.00,VWS V14.01,2013-06-01 08:00:00,
2013-06-01 03:01:00,57.3,51.5,29.36,SSW,206,0.0,0.0,81,0.00,,BKN080,0.00,VWS V14.01,2013-06-01 08:01:00,
2013-06-01 03:02:00,57.2,51.4,29.36,SSW,206,0.0,0.0,81,0.00,,BKN080,0.00,VWS V14.01,2013-06-01 08:02:00,
2013-06-01 03:03:00,57.2,51.4,29.36,SSW,206,0.0,0.0,81,0.00,,BKN080,0.00,VWS V14.01,2013-06-01 08:03:00,
2013-06-01 03:04:00,57.2,51.4,29.36,SSW,206,0.0,0.0,81,0.00,,BKN080,0.00,VWS V14.01,2013-06-01 08:04:00,
2013-06-01 03:05:00,57.2,51.4,29.36,SSW,206,0.0,0.0,81,0.00,,BKN080,0.00,VWS V14.01,2013-06-01 08:05:00,
2013-06-01 03:06:00,57.2,51.4,29.36,SSW,206,0.0,0.0,81,0.00,,BKN080,0.00,VWS V14.01,2013-06-01 08:06:00,
2013-06-01 03:07:00,57.0,51.2,29.36,SSW,206,0.0,0.0,81,0.00,,BKN080,0.00,VWS V14.01,2013-06-01 08:07:00,
2013-06-01 03:08:00,57.0,51.2,29.36,SSW,206,0.0,0.0,81,0.00,,BKN080,0.00,VWS V14.01,2013-06-01 08:08:00,
2013-06-01 03:09:00,57.0,51.2,29.36,SSW,206,0.0,1.0,81,0.00,,BKN080,0.00,VWS V14.01,2013-06-01 08:09:00,
2013-06-01 03:10:00,57.0,51.2,29.36,SSW,206,1.0,1.0,81,0.00,,BKN080,0.00,VWS V14.01,2013-06-01 08:10:00,
2013-06-01 03:11:00,57.0,51.2,29.36,SSW,206,0.0,1.0,81,0.00,,BKN080,0.00,VWS V14.01,2013-06-01 08:11:00,
2013-06-01 03:12:00,57.0,51.2,29.36,SSW,206,0.0,1.0,81,0.00,,BKN080,0.00,VWS V14.01,2013-06-01 08:12:00,
2013-06-01 03:13:00,57.0,51.2,29.36,SSW,206,0.0,1.0,81,0.00,,BKN080,0.00,VWS V14.01,2013-06-01 08:13:00,
2013-06-01 03:14:00,57.0,51.2,29.36,SSW,206,0.0,1.0,81,0.00,,BKN080,0.00,VWS V14.01,2013-06-01 08:14:00,
2013-06-01 03:15:00,57.0,51.2,29.36,SSW,206,0.0,1.0,81,0.00,,BKN080,0.00,VWS V14.01,2013-06-01 08:15:00,
2013-06-01 03:16:00,57.0,51.2,29.36,SSW,206,0.0,1.0,81,0.00,,BKN080,0.00,VWS V14.01,2013-06-01 08:16:00,
2013-06-01 03:17:00,56.9,51.1,29.36,SSW,206,0.0,1.0,81,0.00,,BKN080,0.00,VWS V14.01,2013-06-01 08:17:00,
2013-06-01 03:18:00,56.9,51.1,29.36,SSW,206,0.0,1.0,81,0.00,,BKN080,0.00,VWS V14.01,2013-06-01 08:18:00,
2013-06-01 03:19:00,56.9,51.1,29.36,SSW,206,0.0,1.0,81,0.00,,BKN080,0.00,VWS V14.01,2013-06-01 08:19:00,
2013-06-01 03:20:00,56.9,51.1,29.36,SSW,206,0.0,1.0,81,0.00,,BKN080,0.00,VWS V14.01,2013-06-01 08:20:00,
2013-06-01 03:21:00,56.9,51.1,29.36,SSW,206,0.0,1.0,81,0.00,,BKN080,0.00,VWS V14.01,2013-06-01 08:21:00,
2013-06-01 03:22:00,56.9,51.1,29.36,SSW,206,0.0,1.0,81,0.00,,BKN080,0.00,VWS V14.01,2013-06-01 08:22:00,
2013-06-01 03:23:00,56.9,51.1,29.36,SSW,206,0.0,1.0,81,0.00,,BKN080,0.00,VWS V14.01,2013-06-01 08:23:00,
2013-06-01 03:24:00,56.9,51.1,29.36,SSW,206,0.0,1.0,81,0.00,,BKN080,0.00,VWS V14.01,2013-06-01 08:24:00,
2013-06-01 03:25:00,56.9,51.1,29.36,SSW,206,0.0,1.0,81,0.00,,BKN080,0.00,VWS V14.01,2013-06-01 08:25:00,
2013-06-01 03:26:00,56.9,51.1,29.36,SSW,206,0.0,1.0,81,0.00,,BKN080,0.00,VWS V14.01,2013-06-01 08:26:00,
2013-06-01 03:27:00,56.9,51.1,29.36,SSW,206,0.0,1.0,81,0.00,,BKN080,0.00,VWS V14.01,2013-06-01 08:27:00,
2013-06-01 03:28:00,56.9,51.1,29.36,SSW,206,0.0,1.0,81,0.00,,BKN080,0.00,VWS V14.01,2013-06-01 08:28:00,
2013-06-01 03:29:00,56.9,51.1,29.36,SSW,206,0.0,1.0,81,0.00,,BKN080,0.00,VWS V14.01,2013-06-01 08:29:00,
2013-06-01 03:30:00,56.9,51.1,29.36,SSW,206,0.0,1.0,81,0.00,,BKN080,0.00,VWS V14.01,2013-06-01 08:30:00,
2013-06-01 03:31:00,56.9,51.1,29.36,SSW,206,0.0,0.0,81,0.00,,BKN080,0.00,VWS V14.01,2013-06-01 08:31:00,
2013-06-01 03:32:00,56.9,51.1,29.36,SSW,206,0.0,0.0,81,0.00,,BKN080,0.00,VWS V14.01,2013-06-01 08:32:00,
2013-06-01 03:33:00,56.9,51.1,29.36,SSW,206,0.0,0.0,81,0.00,,BKN080,0.00,VWS V14.01,2013-06-01 08:33:00,
2013-06-01 03:34:00,56.9,51.1,29.36,SSW,206,0.0,1.0,81,0.00,,BKN080,0.00,VWS V14.01,2013-06-01 08:34:00,
2013-06-01 03:35:00,57.0,51.2,29.36,SSW,206,0.0,1.0,81,0.00,,BKN080,0.00,VWS V14.01,2013-06-01 08:35:00,
2013-06-01 03:36:00,57.0,51.2,29.36,SSW,206,0.0,1.0,81,0.00,,BKN080,0.00,VWS V14.01,2013-06-01 08:36:00,
2013-06-01 03:37:00,57.0,51.2,29.36,SSW,206,0.0,1.0,81,0.00,,BKN080,0.00,VWS V14.01,2013-06-01 08:37:00,
2013-06-01 03:38:00,57.0,51.2,29.36,SSW,206,0.0,1.0,81,0.00,,BKN080,0.00,VWS V14.01,2013-06-01 08:38:00,
2013-06-01 03:39:00,57.0,51.2,29.36,SSW,206,0.0,1.0,81,0.00,,BKN080,0.00,VWS V14.01,2013-06-01 08:39:00,
2013-06-01 03:40:00,57.0,51.2,29.36,SSW,206,0.0,1.0,81,0.00,,BKN080,0.00,VWS V14.01,2013-06-01 08:40:00,
2013-06-01 03:41:00,57.0,51.2,29.36,SSW,206,0.0,1.0,81,0.00,,BKN080,0.00,VWS V14.01,2013-06-01 08:41:00,
2013-06-01 03:42:00,57.0,51.2,29.36,SSW,206,0.0,1.0,81,0.00,,BKN080,0.00,VWS V14.01,2013-06-01 08:42:00,
2013-06-01 03:43:00,57.0,51.2,29.36,SSW,206,0.0,1.0,81,0.00,,BKN080,0.00,VWS V14.01,2013-06-01 08:43:00,
2013-06-01 03:44:00,57.0,51.6,29.36,SSW,206,0.0,1.0,82,0.00,,BKN080,0.00,VWS V14.01,2013-06-01 08:44:00,
2013-06-01 03:45:00,57.0,51.6,29.35,SSW,206,0.0,1.0,82,0.00,,BKN080,0.00,VWS V14.01,2013-06-01 08:45:00,
2013-06-01 03:46:00,57.0,51.6,29.35,SSW,206,0.0,1.0,82,0.00,,BKN080,0.00,VWS V14.01,2013-06-01 08:46:00,
2013-06-01 03:47:00,57.0,51.6,29.35,SSW,206,0.0,1.0,82,0.00,,BKN080,0.00,VWS V14.01,2013-06-01 08:47:00,
2013-06-01 03:48:00,57.0,51.6,29.35,SSW,206,0.0,1.0,82,0.00,,BKN080,0.00,VWS V14.01,2013-06-01 08:48:00,
2013-06-01 03:49:00,57.0,51.6,29.35,SSW,206,0.0,1.0,82,0.00,,BKN080,0.00,VWS V14.01,2013-06-01 08:49:00,
2013-06-01 03:50:00,57.0,51.6,29.35,SSW,206,0.0,1.0,82,0.00,,BKN080,0.00,VWS V14.01,2013-06-01 08:50:00,
2013-06-01 03:51:00,57.0,51.6,29.35,SSW,206,0.0,1.0,82,0.00,,BKN080,0.00,VWS V14.01,2013-06-01 08:51:00,
2013-06-01 03:52:00,57.0,51.6,29.35,SSW,206,0.0,1.0,82,0.00,,BKN080,0.00,VWS V14.01,2013-06-01 08:52:00,
2013-06-01 03:53:00,57.0,51.6,29.35,SSW,206,0.0,1.0,82,0.00,,BKN080,0.00,VWS V14.01,2013-06-01 08:53:00,
2013-06-01 03:54:00,57.0,51.2,29.35,SSW,206,0.0,1.0,81,0.00,,BKN080,0.00,VWS V14.01,2013-06-01 08:54:00,
2013-06-01 03:55:00,57.0,51.2,29.35,SSW,206,0.0,1.0,81,0.00,,BKN080,0.00,VWS V14.01,2013-06-01 08:55:00,
2013-06-01 03:56:00,57.0,51.2,29.35,SSW,206,0.0,1.0,81,0.00,,BKN080,0.00,VWS V14.01,2013-06-01 08:56:00,
2013-06-01 03:57:00,57.0,51.2,29.35,SSW,206,0.0,1.0,81,0.00,,BKN080,0.00,VWS V14.01,2013-06-01 08:57:00,
2013-06-01 03:58:00,57.0,51.2,29.35,SSW,206,0.0,1.0,81,0.00,,BKN080,0.00,VWS V14.01,2013-06-01 08:58:00,
2013-06-01 03:59:00,57.0,51.2,29.35,SSW,206,0.0,1.0,81,0.00,,BKN080,0.00,VWS V14.01,2013-06-01 08:59:00,
2013-06-01 04:00:00,57.2,51.8,29.35,SSW,206,0.0,1.0,82,0.00,,BKN080,0.00,VWS V14.01,2013-06-01 09:00:00,
2013-06-01 04:01:00,57.2,51.8,29.35,SSW,206,0.0,0.0,82,0.00,,BKN080,0.00,VWS V14.01,2013-06-01 09:01:00,
2013-06-01 04:02:00,57.2,51.8,29.35,SSW,206,0.0,1.0,82,0.00,,BKN080,0.00,VWS V14.01,2013-06-01 09:02:00,
2013-06-01 04:03:00,57.2,51.8,29.35,SSW,206,0.0,1.0,82,0.00,,BKN080,0.00,VWS V14.01,2013-06-01 09:03:00,
2013-06-01 04:04:00,57.2,51.8,29.35,SSW,206,0.0,1.0,82,0.00,,BKN080,0.00,VWS V14.01,2013-06-01 09:04:00,
2013-06-01 04:05:00,57.2,51.8,29.35,SSW,206,0.0,1.0,82,0.00,,BKN080,0.00,VWS V14.01,2013-06-01 09:05:00,
2013-06-01 04:06:00,57.2,51.8,29.35,SSW,206,0.0,1.0,82,0.00,,BKN080,0.00,VWS V14.01,2013-06-01 09:06:00,
2013-06-01 04:07:00,57.2,51.8,29.35,SSW,206,0.0,1.0,82,0.00,,BKN080,0.00,VWS V14.01,2013-06-01 09:07:00,
2013-06-01 04:08:00,57.2,51.8,29.35,SSW,206,0.0,1.0,82,0.00,,BKN080,0.00,VWS V14.01,2013-06-01 09:08:00,
2013-06-01 04:09:00,57.2,51.8,29.35,SSW,206,0.0,1.0,82,0.00,,BKN080,0.00,VWS V14.01,2013-06-01 09:09:00,
2013-06-01 04:10:00,57.2,51.8,29.35,SSW,206,0.0,1.0,82,0.00,,BKN080,0.00,VWS V14.01,2013-06-01 09:10:00,
2013-06-01 04:11:00,57.2,51.8,29.35,SSW,206,0.0,1.0,82,0.00,,BKN080,0.00,VWS V14.01,2013-06-01 09:11:00,
2013-06-01 04:12:00,57.2,51.8,29.35,SSW,206,0.0,1.0,82,0.00,,BKN080,0.00,VWS V14.01,2013-06-01 09:12:00,
2013-06-01 04:13:00,57.2,51.8,29.35,SSW,206,0.0,1.0,82,0.00,,BKN080,0.00,VWS V14.01,2013-06-01 09:13:00,
2013-06-01 04:14:00,57.2,51.8,29.35,SSW,206,0.0,1.0,82,0.00,,BKN080,0.00,VWS V14.01,2013-06-01 09:14:00,
2013-06-01 04:15:00,57.2,51.8,29.35,SSW,206,0.0,1.0,82,0.00,,BKN080,0.00,VWS V14.01,2013-06-01 09:15:00,
2013-06-01 04:16:00,57.2,51.8,29.35,SSW,206,0.0,1.0,82,0.00,,BKN080,0.00,VWS V14.01,2013-06-01 09:16:00,
2013-06-01 04:17:00,57.0,51.6,29.35,SSW,206,0.0,1.0,82,0.00,,BKN080,0.00,VWS V14.01,2013-06-01 09:17:00,
2013-06-01 04:18:00,57.0,51.6,29.35,SSW,206,0.0,1.0,82,0.00,,BKN080,0.00,VWS V14.01,2013-06-01 09:18:00,
2013-06-01 04:19:00,57.0,51.6,29.35,SSW,206,0.0,1.0,82,0.00,,BKN080,0.00,VWS V14.01,2013-06-01 09:19:00,
2013-06-01 04:20:00,57.0,51.6,29.35,SSW,206,0.0,1.0,82,0.00,,BKN080,0.00,VWS V14.01,2013-06-01 09:20:00,
2013-06-01 04:21:00,57.0,51.6,29.35,SSW,206,0.0,1.0,82,0.00,,BKN080,0.00,VWS V14.01,2013-06-01 09:21:00,
2013-06-01 04:22:00,57.0,51.6,29.35,SSW,206,0.0,1.0,82,0.00,,BKN080,0.00,VWS V14.01,2013-06-01 09:22:00,
2013-06-01 04:23:00,57.0,51.6,29.35,SSW,206,0.0,1.0,82,0.00,,BKN080,0.00,VWS V14.01,2013-06-01 09:23:00,
2013-06-01 04:24:00,57.0,51.9,29.35,SSW,206,0.0,1.0,83,0.00,,BKN080,0.00,VWS V14.01,2013-06-01 09:24:00,
2013-06-01 04:25:00,57.0,51.9,29.35,SSW,206,0.0,1.0,83,0.00,,BKN080,0.00,VWS V14.01,2013-06-01 09:25:00,
2013-06-01 04:26:00,57.0,51.9,29.35,SSW,206,0.0,1.0,83,0.00,,BKN080,0.00,VWS V14.01,2013-06-01 09:26:00,
2013-06-01 04:27:00,57.0,51.6,29.35,SSW,206,0.0,1.0,82,0.00,,BKN080,0.00,VWS V14.01,2013-06-01 09:27:00,
2013-06-01 04:28:00,56.9,51.8,29.35,SSW,206,0.0,1.0,83,0.00,,BKN080,0.00,VWS V14.01,2013-06-01 09:28:00,
2013-06-01 04:29:00,56.9,51.8,29.35,SSW,206,0.0,1.0,83,0.00,,BKN080,0.00,VWS V14.01,2013-06-01 09:29:00,
2013-06-01 04:30:00,56.9,51.8,29.35,SSW,206,0.0,1.0,83,0.00,,BKN080,0.00,VWS V14.01,2013-06-01 09:30:00,
2013-06-01 04:31:00,56.9,51.8,29.35,SSW,206,0.0,0.0,83,0.00,,BKN080,0.00,VWS V14.01,2013-06-01 09:31:00,
2013-06-01 04:32:00,56.9,51.8,29.35,SSW,206,0.0,0.0,83,0.00,,BKN080,0.00,VWS V14.01,2013-06-01 09:32:00,
2013-06-01 04:33:00,56.7,51.6,29.35,SSW,206,0.0,0.0,83,0.00,,BKN080,0.00,VWS V14.01,2013-06-01 09:33:00,
2013-06-01 04:34:00,56.7,51.6,29.35,SSW,206,0.0,0.0,83,0.00,,BKN080,0.00,VWS V14.01,2013-06-01 09:34:00,
2013-06-01 04:35:00,56.7,51.6,29.35,SSW,206,0.0,0.0,83,0.00,,BKN080,0.00,VWS V14.01,2013-06-01 09:35:00,
2013-06-01 04:36:00,56.7,51.6,29.35,SSW,206,0.0,0.0,83,0.00,,BKN080,0.00,VWS V14.01,2013-06-01 09:36:00,
2013-06-01 04:37:00,56.7,51.6,29.35,SSW,206,0.0,1.0,83,0.00,,BKN080,0.00,VWS V14.01,2013-06-01 09:37:00,
2013-06-01 04:38:00,56.6,51.5,29.35,SSW,206,0.0,1.0,83,0.00,,BKN080,0.00,VWS V14.01,2013-06-01 09:38:00,
2013-06-01 04:39:00,56.6,51.5,29.35,SSW,206,0.0,1.0,83,0.00,,BKN080,0.00,VWS V14.01,2013-06-01 09:39:00,
2013-06-01 04:40:00,56.6,51.5,29.35,SSW,206,0.0,1.0,83,0.00,,BKN080,0.00,VWS V14.01,2013-06-01 09:40:00,
2013-06-01 04:41:00,56.6,51.5,29.35,SSW,206,0.0,1.0,83,0.00,,BKN080,0.00,VWS V14.01,2013-06-01 09:41:00,
2013-06-01 04:42:00,56.5,51.4,29.35,SSW,206,0.0,1.0,83,0.00,,BKN080,0.00,VWS V14.01,2013-06-01 09:42:00,
2013-06-01 04:43:00,56.5,51.4,29.35,SSW,206,0.0,1.0,83,0.00,,BKN080,0.00,VWS V14.01,2013-06-01 09:43:00,
2013-06-01 04:44:00,56.5,51.4,29.35,SSW,206,0.0,1.0,83,0.00,,BKN080,0.00,VWS V14.01,2013-06-01 09:44:00,
2013-06-01 04:45:00,56.5,51.7,29.35,SSW,206,0.0,1.0,84,0.00,,BKN080,0.00,VWS V14.01,2013-06-01 09:45:00,
2013-06-01 04:46:00,56.5,51.7,29.35,SSW,206,0.0,1.0,84,0.00,,BKN080,0.00,VWS V14.01,2013-06-01 09:46:00,
2013-06-01 04:47:00,56.5,51.7,29.35,SSW,206,0.0,1.0,84,0.00,,BKN080,0.00,VWS V14.01,2013-06-01 09:47:00,
2013-06-01 04:48:00,56.5,51.7,29.35,SSW,206,0.0,1.0,84,0.00,,BKN080,0.00,VWS V14.01,2013-06-01 09:48:00,
2013-06-01 04:49:00,56.3,51.5,29.35,SSW,206,0.0,1.0,84,0.00,,BKN080,0.00,VWS V14.01,2013-06-01 09:49:00,
2013-06-01 04:50:00,56.3,51.2,29.35,SSW,206,0.0,1.0,83,0.00,,BKN080,0.00,VWS V14.01,2013-06-01 09:50:00,
2013-06-01 04:51:00,56.3,51.2,29.35,SSW,206,0.0,1.0,83,0.00,,BKN080,0.00,VWS V14.01,2013-06-01 09:51:00,
2013-06-01 04:52:00,56.3,51.2,29.35,SSW,206,0.0,1.0,83,0.00,,BKN080,0.00,VWS V14.01,2013-06-01 09:52:00,
2013-06-01 04:53:00,56.3,51.2,29.35,SSW,206,0.0,1.0,83,0.00,,BKN080,0.00,VWS V14.01,2013-06-01 09:53:00,
2013-06-01 04:54:00,56.3,51.2,29.35,SSW,206,0.0,1.0,83,0.00,,BKN080,0.00,VWS V14.01,2013-06-01 09:54:00,
2013-06-01 04:55:00,56.3,51.2,29.35,SSW,206,0.0,1.0,83,0.00,,BKN080,0.00,VWS V14.01,2013-06-01 09:55:00,
2013-06-01 04:56:00,56.3,51.5,29.35,SSW,206,0.0,1.0,84,0.00,,BKN080,0.00,VWS V14.01,2013-06-01 09:56:00,
2013-06-01 04:57:00,56.3,51.5,29.35,SSW,206,0.0,1.0,84,0.00,,BKN080,0.00,VWS V14.01,2013-06-01 09:57:00,
2013-06-01 04:58:00,56.3,51.5,29.35,SSW,206,0.0,1.0,84,0.00,,BKN080,0.00,VWS V14.01,2013-06-01 09:58:00,
2013-06-01 04:59:00,56.3,51.5,29.35,SSW,206,0.0,1.0,84,0.00,,BKN080,0.00,VWS V14.01,2013-06-01 09:59:00,
2013-06-01 05:00:00,56.3,51.5,29.36,SSW,206,0.0,1.0,84,0.00,,BKN080,0.00,VWS V14.01,2013-06-01 10:00:00,
2013-06-01 05:01:00,56.2,51.4,29.36,SSW,206,0.0,0.0,84,0.00,,BKN080,0.00,VWS V14.01,2013-06-01 10:01:00,
2013-06-01 05:02:00,56.2,51.4,29.36,SSW,206,0.0,0.0,84,0.00,,BKN080,0.00,VWS V14.01,2013-06-01 10:02:00,
2013-06-01 05:03:00,56.2,51.4,29.36,SSW,206,0.0,0.0,84,0.00,,BKN080,0.00,VWS V14.01,2013-06-01 10:03:00,
2013-06-01 05:04:00,56.2,51.4,29.36,SSW,206,0.0,0.0,84,0.00,,BKN080,0.00,VWS V14.01,2013-06-01 10:04:00,
2013-06-01 05:05:00,56.2,51.4,29.36,SSW,206,0.0,0.0,84,0.00,,BKN080,0.00,VWS V14.01,2013-06-01 10:05:00,
2013-06-01 05:06:00,56.2,51.4,29.36,SSW,206,0.0,0.0,84,0.00,,BKN080,0.00,VWS V14.01,2013-06-01 10:06:00,
2013-06-01 05:07:00,56.0,51.2,29.36,SSW,206,0.0,0.0,84,0.00,,BKN080,0.00,VWS V14.01,2013-06-01 10:07:00,
2013-06-01 05:08:00,56.0,51.2,29.36,SSW,206,0.0,0.0,84,0.00,,BKN080,0.00,VWS V14.01,2013-06-01 10:08:00,
2013-06-01 05:09:00,56.0,51.2,29.36,SSW,206,0.0,0.0,84,0.00,,BKN080,0.00,VWS V14.01,2013-06-01 10:09:00,
2013-06-01 05:10:00,56.0,51.2,29.36,SSW,206,0.0,0.0,84,0.00,,BKN080,0.00,VWS V14.01,2013-06-01 10:10:00,
2013-06-01 05:11:00,56.0,51.6,29.36,SSW,206,0.0,1.0,85,0.00,,BKN080,0.00,VWS V14.01,2013-06-01 10:11:00,
2013-06-01 05:12:00,55.9,51.5,29.36,SSW,206,0.0,1.0,85,0.00,,BKN080,0.00,VWS V14.01,2013-06-01 10:12:00,
2013-06-01 05:13:00,55.9,51.5,29.36,SSW,206,0.0,1.0,85,0.00,,BKN080,0.00,VWS V14.01,2013-06-01 10:13:00,
2013-06-01 05:14:00,55.9,51.8,29.36,SSW,206,0.0,1.0,86,0.00,,BKN080,0.00,VWS V14.01,2013-06-01 10:14:00,
2013-06-01 05:15:00,55.9,51.8,29.38,SSW,206,0.0,1.0,86,0.00,,BKN080,0.00,VWS V14.01,2013-06-01 10:15:00,
2013-06-01 05:16:00,55.7,51.6,29.38,SSW,206,0.0,1.0,86,0.00,,BKN080,0.00,VWS V14.01,2013-06-01 10:16:00,
2013-06-01 05:17:00,55.7,51.6,29.38,SSW,206,0.0,1.0,86,0.00,,BKN080,0.00,VWS V14.01,2013-06-01 10:17:00,
2013-06-01 05:18:00,55.7,51.9,29.38,SSW,206,0.0,1.0,87,0.00,,BKN080,0.00,VWS V14.01,2013-06-01 10:18:00,
2013-06-01 05:19:00,55.6,51.8,29.38,SSW,206,0.0,1.0,87,0.00,,BKN080,0.00,VWS V14.01,2013-06-01 10:19:00,
2013-06-01 05:20:00,55.6,51.8,29.38,SSW,206,0.0,1.0,87,0.00,,BKN080,0.00,VWS V14.01,2013-06-01 10:20:00,
2013-06-01 05:21:00,55.6,51.8,29.38,SSW,206,0.0,1.0,87,0.00,,BKN080,0.00,VWS V14.01,2013-06-01 10:21:00,
2013-06-01 05:22:00,55.6,51.8,29.38,SSW,202,0.0,1.0,87,0.00,,BKN080,0.00,VWS V14.01,2013-06-01 10:22:00,
2013-06-01 05:23:00,55.6,51.8,29.38,SSW,202,0.0,1.0,87,0.00,,BKN080,0.00,VWS V14.01,2013-06-01 10:23:00,
2013-06-01 05:24:00,55.6,51.8,29.38,SSW,202,0.0,1.0,87,0.00,,BKN080,0.00,VWS V14.01,2013-06-01 10:24:00,
2013-06-01 05:25:00,55.6,51.8,29.38,SSW,202,0.0,1.0,87,0.00,,BKN080,0.00,VWS V14.01,2013-06-01 10:25:00,
2013-06-01 05:26:00,55.6,51.8,29.38,SSW,202,0.0,1.0,87,0.00,,BKN080,0.00,VWS V14.01,2013-06-01 10:26:00,
2013-06-01 05:27:00,55.6,51.8,29.38,SSW,202,0.0,1.0,87,0.00,,BKN080,0.00,VWS V14.01,2013-06-01 10:27:00,
2013-06-01 05:28:00,55.4,51.9,29.38,SSW,202,0.0,1.0,88,0.00,,BKN080,0.00,VWS V14.01,2013-06-01 10:28:00,
2013-06-01 05:29:00,55.4,51.3,29.38,SSW,202,0.0,1.0,86,0.00,,BKN080,0.00,VWS V14.01,2013-06-01 10:29:00,
2013-06-01 05:30:00,55.4,51.3,29.38,SSW,202,0.0,1.0,86,0.00,,BKN080,0.00,VWS V14.01,2013-06-01 10:30:00,
2013-06-01 05:31:00,55.4,51.6,29.38,SSW,202,0.0,0.0,87,0.00,,BKN080,0.00,VWS V14.01,2013-06-01 10:31:00,
2013-06-01 05:32:00,55.4,51.6,29.38,SSW,202,0.0,0.0,87,0.00,,BKN080,0.00,VWS V14.01,2013-06-01 10:32:00,
2013-06-01 05:33:00,55.4,51.6,29.38,SSW,202,0.0,0.0,87,0.00,,FEW080,0.00,VWS V14.01,2013-06-01 10:33:00,
2013-06-01 05:34:00,55.4,51.6,29.38,SSW,202,0.0,0.0,87,0.00,,FEW080,0.00,VWS V14.01,2013-06-01 10:34:00,
2013-06-01 05:35:00,55.4,51.6,29.38,SSW,202,0.0,0.0,87,0.00,,FEW080,0.00,VWS V14.01,2013-06-01 10:35:00,
2013-06-01 05:36:00,55.4,51.6,29.38,SSW,202,0.0,0.0,87,0.00,,FEW080,0.00,VWS V14.01,2013-06-01 10:36:00,
2013-06-01 05:37:00,55.4,51.6,29.38,SSW,202,0.0,0.0,87,0.00,,FEW080,0.00,VWS V14.01,2013-06-01 10:37:00,
2013-06-01 05:38:00,55.4,51.6,29.38,SSW,202,0.0,0.0,87,0.00,,FEW080,0.00,VWS V14.01,2013-06-01 10:38:00,
2013-06-01 05:39:00,55.4,51.6,29.38,SSW,202,0.0,0.0,87,0.00,,FEW080,0.00,VWS V14.01,2013-06-01 10:39:00,
2013-06-01 05:40:00,55.6,51.8,29.38,SSW,202,0.0,0.0,87,0.00,,FEW080,0.00,VWS V14.01,2013-06-01 10:40:00,
2013-06-01 05:41:00,55.6,51.8,29.38,SSW,202,0.0,0.0,87,0.00,,FEW080,0.00,VWS V14.01,2013-06-01 10:41:00,
2013-06-01 05:42:00,55.6,51.8,29.38,SSW,201,0.0,0.0,87,0.00,,FEW080,0.00,VWS V14.01,2013-06-01 10:42:00,
2013-06-01 05:43:00,55.6,51.8,29.38,SSW,201,0.0,0.0,87,0.00,,FEW080,0.00,VWS V14.01,2013-06-01 10:43:00,
2013-06-01 05:44:00,55.6,51.8,29.38,ESE,105,0.0,0.0,87,0.00,,FEW080,0.00,VWS V14.01,2013-06-01 10:44:00,
2013-06-01 05:45:00,55.7,51.9,29.39,ESE,105,0.0,0.0,87,0.00,,FEW080,0.00,VWS V14.01,2013-06-01 10:45:00,
2013-06-01 05:46:00,55.7,51.9,29.39,ESE,105,0.0,0.0,87,0.00,,FEW080,0.00,VWS V14.01,2013-06-01 10:46:00,
2013-06-01 05:47:00,55.7,51.9,29.39,ESE,105,0.0,0.0,87,0.00,,FEW080,0.00,VWS V14.01,2013-06-01 10:47:00,
2013-06-01 05:48:00,55.9,52.1,29.39,ESE,105,0.0,1.0,87,0.00,,FEW080,0.00,VWS V14.01,2013-06-01 10:48:00,
2013-06-01 05:49:00,55.9,52.1,29.39,ESE,105,0.0,1.0,87,0.00,,FEW080,0.00,VWS V14.01,2013-06-01 10:49:00,
2013-06-01 05:50:00,55.9,52.1,29.39,ESE,105,0.0,1.0,87,0.00,,FEW080,0.00,VWS V14.01,2013-06-01 10:50:00,
2013-06-01 05:51:00,56.0,52.2,29.39,ESE,105,0.0,1.0,87,0.00,,FEW080,0.00,VWS V14.01,2013-06-01 10:51:00,
2013-06-01 05:52:00,56.0,51.9,29.39,ESE,105,0.0,1.0,86,0.00,,FEW080,0.00,VWS V14.01,2013-06-01 10:52:00,
2013-06-01 05:53:00,56.2,52.1,29.39,ESE,105,0.0,1.0,86,0.00,,FEW080,0.00,VWS V14.01,2013-06-01 10:53:00,
2013-06-01 05:54:00,56.2,52.1,29.39,ESE,105,0.0,1.0,86,0.00,,FEW080,0.00,VWS V14.01,2013-06-01 10:54:00,
2013-06-01 05:55:00,56.3,52.2,29.39,ESE,105,0.0,1.0,86,0.00,,FEW080,0.00,VWS V14.01,2013-06-01 10:55:00,
2013-06-01 05:56:00,56.3,52.2,29.39,ESE,105,0.0,1.0,86,0.00,,FEW080,0.00,VWS V14.01,2013-06-01 10:56:00,
2013-06-01 05:57:00,56.3,52.2,29.39,ESE,105,0.0,1.0,86,0.00,,FEW080,0.00,VWS V14.01,2013-06-01 10:57:00,
2013-06-01 05:58:00,56.5,52.4,29.39,ESE,105,0.0,1.0,86,0.00,,FEW080,0.00,VWS V14.01,2013-06-01 10:58:00,
2013-06-01 05:59:00,56.5,52.4,29.39,ESE,105,0.0,1.0,86,0.00,,FEW080,0.00,VWS V14.01,2013-06-01 10:59:00,
2013-06-01 06:00:00,56.6,52.5,29.39,ESE,105,0.0,1.0,86,0.00,,FEW080,0.00,VWS V14.01,2013-06-01 11:00:00,
2013-06-01 06:01:00,56.6,52.5,29.39,ESE,105,0.0,1.0,86,0.00,,FEW080,0.00,VWS V14.01,2013-06-01 11:01:00,
2013-06-01 06:02:00,56.7,52.6,29.39,ESE,105,0.0,1.0,86,0.00,,FEW080,0.00,VWS V14.01,2013-06-01 11:02:00,
2013-06-01 06:03:00,56.9,52.4,29.39,East,81,0.0,1.0,85,0.00,,FEW080,0.00,VWS V14.01,2013-06-01 11:03:00,
2013-06-01 06:04:00,56.9,52.4,29.39,SSW,205,0.0,1.0,85,0.00,,FEW080,0.00,VWS V14.01,2013-06-01 11:04:00,
2013-06-01 06:05:00,56.9,52.4,29.39,SSW,205,0.0,1.0,85,0.00,,FEW080,0.00,VWS V14.01,2013-06-01 11:05:00,
2013-06-01 06:06:00,57.0,52.2,29.39,SSW,205,0.0,1.0,84,0.00,,FEW080,0.00,VWS V14.01,2013-06-01 11:06:00,
2013-06-01 06:07:00,57.0,52.2,29.39,SSW,205,0.0,1.0,84,0.00,,FEW080,0.00,VWS V14.01,2013-06-01 11:07:00,
2013-06-01 06:08:00,57.2,52.4,29.39,SSW,205,0.0,1.0,84,0.00,,FEW080,0.00,VWS V14.01,2013-06-01 11:08:00,
2013-06-01 06:09:00,57.2,52.4,29.39,SSW,205,0.0,1.0,84,0.00,,FEW080,0.00,VWS V14.01,2013-06-01 11:09:00,
2013-06-01 06:10:00,57.2,52.4,29.39,SSW,205,0.0,1.0,84,0.00,,FEW080,0.00,VWS V14.01,2013-06-01 11:10:00,
2013-06-01 06:11:00,57.3,52.5,29.39,SSW,205,0.0,1.0,84,0.00,,FEW080,0.00,VWS V14.01,2013-06-01 11:11:00,
2013-06-01 06:12:00,57.3,52.5,29.39,SSW,205,0.0,1.0,84,0.00,,FEW080,0.00,VWS V14.01,2013-06-01 11:12:00,
2013-06-01 06:13:00,57.3,52.5,29.39,SSW,205,0.0,1.0,84,0.00,,FEW080,0.00,VWS V14.01,2013-06-01 11:13:00,
2013-06-01 06:14:00,57.5,52.7,29.39,SSW,205,0.0,1.0,84,0.00,,FEW080,0.00,VWS V14.01,2013-06-01 11:14:00,
2013-06-01 06:15:00,57.5,52.7,29.39,SSW,205,0.0,1.0,84,0.00,,FEW080,0.00,VWS V14.01,2013-06-01 11:15:00,
2013-06-01 06:16:00,57.5,52.7,29.39,SSW,205,0.0,1.0,84,0.00,,FEW080,0.00,VWS V14.01,2013-06-01 11:16:00,
2013-06-01 06:17:00,57.5,52.7,29.39,SSW,205,1.0,1.0,84,0.00,,FEW080,0.00,VWS V14.01,2013-06-01 11:17:00,
2013-06-01 06:18:00,57.5,52.4,29.39,SSW,206,0.0,1.0,83,0.00,,FEW080,0.00,VWS V14.01,2013-06-01 11:18:00,
2013-06-01 06:19:00,57.5,52.4,29.39,SW,215,1.0,2.0,83,0.00,,FEW080,0.00,VWS V14.01,2013-06-01 11:19:00,
2013-06-01 06:20:00,57.6,52.5,29.39,SW,215,2.0,2.0,83,0.00,,FEW080,0.00,VWS V14.01,2013-06-01 11:20:00,
2013-06-01 06:21:00,57.6,52.5,29.39,SW,215,0.0,2.0,83,0.00,,FEW080,0.00,VWS V14.01,2013-06-01 11:21:00,
2013-06-01 06:22:00,57.6,52.2,29.39,SW,219,1.0,2.0,82,0.00,,FEW080,0.00,VWS V14.01,2013-06-01 11:22:00,
2013-06-01 06:23:00,57.6,52.2,29.39,SW,228,1.0,2.0,82,0.00,,FEW080,0.00,VWS V14.01,2013-06-01 11:23:00,
2013-06-01 06:24:00,57.6,52.2,29.39,SW,229,0.0,2.0,82,0.00,,FEW080,0.00,VWS V14.01,2013-06-01 11:24:00,
2013-06-01 06:25:00,57.6,52.2,29.39,SW,233,2.0,2.0,82,0.00,,FEW080,0.00,VWS V14.01,2013-06-01 11:25:00,
2013-06-01 06:26:00,57.6,52.2,29.39,SW,233,0.0,2.0,82,0.00,,FEW080,0.00,VWS V14.01,2013-06-01 11:26:00,
2013-06-01 06:27:00,57.6,52.2,29.39,SW,233,0.0,2.0,82,0.00,,FEW080,0.00,VWS V14.01,2013-06-01 11:27:00,
2013-06-01 06:28:00,57.6,52.2,29.39,SW,235,2.0,2.0,82,0.00,,FEW080,0.00,VWS V14.01,2013-06-01 11:28:00,
2013-06-01 06:29:00,57.6,52.2,29.39,SW,235,0.0,2.0,82,0.00,,FEW080,0.00,VWS V14.01,2013-06-01 11:29:00,
2013-06-01 06:30:00,57.6,52.2,29.39,WSW,238,1.0,2.0,82,0.00,,FEW080,0.00,VWS V14.01,2013-06-01 11:30:00,
2013-06-01 06:31:00,57.6,52.2,29.39,WSW,238,0.0,1.0,82,0.00,,FEW080,0.00,VWS V14.01,2013-06-01 11:31:00,
2013-06-01 06:32:00,57.6,52.5,29.39,WSW,238,0.0,1.0,83,0.00,,FEW080,0.00,VWS V14.01,2013-06-01 11:32:00,
2013-06-01 06:33:00,57.6,52.5,29.39,WSW,240,1.0,2.0,83,0.00,,SCT080,0.00,VWS V14.01,2013-06-01 11:33:00,
2013-06-01 06:34:00,57.6,52.2,29.39,WSW,240,1.0,2.0,82,0.00,,SCT080,0.00,VWS V14.01,2013-06-01 11:34:00,
2013-06-01 06:35:00,57.6,52.2,29.39,WSW,240,0.0,2.0,82,0.00,,SCT080,0.00,VWS V14.01,2013-06-01 11:35:00,
2013-06-01 06:36:00,57.6,52.5,29.39,WSW,240,1.0,2.0,83,0.00,,SCT080,0.00,VWS V14.01,2013-06-01 11:36:00,
2013-06-01 06:37:00,57.6,52.5,29.39,WSW,240,3.0,3.0,83,0.00,,SCT080,0.00,VWS V14.01,2013-06-01 11:37:00,
2013-06-01 06:38:00,57.6,52.2,29.39,WSW,243,0.0,3.0,82,0.00,,SCT080,0.00,VWS V14.01,2013-06-01 11:38:00,
2013-06-01 06:39:00,57.6,52.2,29.39,WSW,243,1.0,3.0,82,0.00,,SCT080,0.00,VWS V14.01,2013-06-01 11:39:00,
2013-06-01 06:40:00,57.6,52.2,29.39,WSW,243,0.0,3.0,82,0.00,,SCT080,0.00,VWS V14.01,2013-06-01 11:40:00,
2013-06-01 06:41:00,57.6,52.2,29.39,WSW,243,0.0,3.0,82,0.00,,SCT080,0.00,VWS V14.01,2013-06-01 11:41:00,
2013-06-01 06:42:00,57.6,52.2,29.39,WSW,243,0.0,3.0,82,0.00,,SCT080,0.00,VWS V14.01,2013-06-01 11:42:00,
2013-06-01 06:43:00,57.6,52.2,29.39,WSW,243,1.0,3.0,82,0.00,,SCT080,0.00,VWS V14.01,2013-06-01 11:43:00,
2013-06-01 06:44:00,57.6,52.2,29.39,WSW,243,0.0,3.0,82,0.00,,SCT080,0.00,VWS V14.01,2013-06-01 11:44:00,
2013-06-01 06:45:00,57.6,52.2,29.39,WSW,243,0.0,3.0,82,0.00,,SCT080,0.00,VWS V14.01,2013-06-01 11:45:00,
2013-06-01 06:46:00,57.6,52.2,29.39,WSW,243,0.0,3.0,82,0.00,,SCT080,0.00,VWS V14.01,2013-06-01 11:46:00,
2013-06-01 06:47:00,57.6,52.2,29.39,WSW,246,0.0,3.0,82,0.00,,SCT080,0.00,VWS V14.01,2013-06-01 11:47:00,
2013-06-01 06:48:00,57.6,52.2,29.39,WSW,246,0.0,3.0,82,0.00,,SCT080,0.00,VWS V14.01,2013-06-01 11:48:00,
2013-06-01 06:49:00,57.8,52.3,29.39,WSW,246,0.0,3.0,82,0.00,,SCT080,0.00,VWS V14.01,2013-06-01 11:49:00,
2013-06-01 06:50:00,57.8,52.3,29.39,WSW,246,0.0,3.0,82,0.00,,SCT080,0.00,VWS V14.01,2013-06-01 11:50:00,
2013-06-01 06:51:00,57.8,52.3,29.39,WSW,246,0.0,3.0,82,0.00,,SCT080,0.00,VWS V14.01,2013-06-01 11:51:00,
2013-06-01 06:52:00,57.8,52.3,29.39,WSW,246,1.0,3.0,82,0.00,,SCT080,0.00,VWS V14.01,2013-06-01 11:52:00,
2013-06-01 06:53:00,57.8,52.0,29.39,WSW,246,2.0,3.0,81,0.00,,SCT080,0.00,VWS V14.01,2013-06-01 11:53:00,
2013-06-01 06:54:00,57.8,52.0,29.39,WSW,246,0.0,3.0,81,0.00,,SCT080,0.00,VWS V14.01,2013-06-01 11:54:00,
2013-06-01 06:55:00,57.8,52.3,29.39,WSW,246,0.0,3.0,82,0.00,,SCT080,0.00,VWS V14.01,2013-06-01 11:55:00,
2013-06-01 06:56:00,57.8,52.3,29.39,WSW,246,0.0,3.0,82,0.00,,SCT080,0.00,VWS V14.01,2013-06-01 11:56:00,
2013-06-01 06:57:00,58.0,52.5,29.39,WSW,246,0.0,3.0,82,0.00,,SCT080,0.00,VWS V14.01,2013-06-01 11:57:00,
2013-06-01 06:58:00,58.0,52.5,29.39,WSW,246,0.0,3.0,82,0.00,,SCT080,0.00,VWS V14.01,2013-06-01 11:58:00,
2013-06-01 06:59:00,58.0,52.5,29.39,WSW,246,0.0,3.0,82,0.00,,SCT080,0.00,VWS V14.01,2013-06-01 11:59:00,
2013-06-01 07:00:00,58.0,52.9,29.39,WSW,246,0.0,3.0,83,0.00,,SCT080,0.00,VWS V14.01,2013-06-01 12:00:00,
2013-06-01 07:01:00,58.1,53.0,29.39,WSW,246,0.0,0.0,83,0.00,,SCT080,0.00,VWS V14.01,2013-06-01 12:01:00,
2013-06-01 07:02:00,58.1,53.0,29.39,WSW,246,0.0,1.0,83,0.00,,SCT080,0.00,VWS V14.01,2013-06-01 12:02:00,
2013-06-01 07:03:00,58.1,53.0,29.39,WSW,246,0.0,1.0,83,0.00,,SCT080,0.00,VWS V14.01,2013-06-01 12:03:00,
2013-06-01 07:04:00,58.1,53.3,29.39,WSW,238,0.0,1.0,84,0.00,,SCT080,0.00,VWS V14.01,2013-06-01 12:04:00,
2013-06-01 07:05:00,58.1,53.3,29.39,WSW,240,2.0,2.0,84,0.00,,SCT080,0.00,VWS V14.01,2013-06-01 12:05:00,
2013-06-01 07:06:00,58.1,53.0,29.39,WSW,240,0.0,2.0,83,0.00,,SCT080,0.00,VWS V14.01,2013-06-01 12:06:00,
2013-06-01 07:07:00,58.1,53.0,29.39,SW,228,5.0,5.0,83,0.00,,SCT080,0.00,VWS V14.01,2013-06-01 12:07:00,
2013-06-01 07:08:00,58.1,53.0,29.39,SSW,192,0.0,6.0,83,0.00,,SCT080,0.00,VWS V14.01,2013-06-01 12:08:00,
2013-06-01 07:09:00,58.1,53.0,29.39,SSW,194,0.0,6.0,83,0.00,,SCT080,0.00,VWS V14.01,2013-06-01 12:09:00,
2013-06-01 07:10:00,58.1,53.0,29.39,SSW,206,5.0,6.0,83,0.00,,SCT080,0.00,VWS V14.01,2013-06-01 12:10:00,
2013-06-01 07:11:00,58.1,53.0,29.39,SSW,211,0.0,6.0,83,0.00,,SCT080,0.00,VWS V14.01,2013-06-01 12:11:00,
2013-06-01 07:12:00,58.1,53.0,29.39,SSW,211,0.0,6.0,83,0.00,,SCT080,0.00,VWS V14.01,2013-06-01 12:12:00,
2013-06-01 07:13:00,58.1,52.3,29.39,SSW,211,0.0,6.0,81,0.00,,SCT080,0.00,VWS V14.01,2013-06-01 12:13:00,
2013-06-01 07:14:00,58.1,52.3,29.39,SSW,211,0.0,6.0,81,0.00,,SCT080,0.00,VWS V14.01,2013-06-01 12:14:00,
2013-06-01 07:15:00,58.1,52.3,29.40,SSW,211,0.0,6.0,81,0.00,,SCT080,0.00,VWS V14.01,2013-06-01 12:15:00,
2013-06-01 07:16:00,58.3,52.8,29.40,SSW,208,1.0,6.0,82,0.00,,SCT080,0.00,VWS V14.01,2013-06-01 12:16:00,
2013-06-01 07:17:00,58.3,52.8,29.40,SSW,204,0.0,6.0,82,0.00,,SCT080,0.00,VWS V14.01,2013-06-01 12:17:00,
2013-06-01 07:18:00,58.3,52.5,29.40,SSW,209,1.0,6.0,81,0.00,,SCT080,0.00,VWS V14.01,2013-06-01 12:18:00,
2013-06-01 07:19:00,58.3,52.5,29.40,SSW,209,0.0,6.0,81,0.00,,SCT080,0.00,VWS V14.01,2013-06-01 12:19:00,
2013-06-01 07:20:00,58.3,52.5,29.40,SSW,209,1.0,6.0,81,0.00,,SCT080,0.00,VWS V14.01,2013-06-01 12:20:00,
2013-06-01 07:21:00,58.3,52.5,29.40,SSW,209,0.0,6.0,81,0.00,,SCT080,0.00,VWS V14.01,2013-06-01 12:21:00,
2013-06-01 07:22:00,58.3,52.5,29.40,SSW,209,1.0,6.0,81,0.00,,SCT080,0.00,VWS V14.01,2013-06-01 12:22:00,
2013-06-01 07:23:00,58.3,52.5,29.40,SSW,209,0.0,6.0,81,0.00,,SCT080,0.00,VWS V14.01,2013-06-01 12:23:00,
2013-06-01 07:24:00,58.1,52.3,29.40,SSW,209,0.0,6.0,81,0.00,,SCT080,0.00,VWS V14.01,2013-06-01 12:24:00,
2013-06-01 07:25:00,58.1,52.3,29.40,SSW,209,0.0,6.0,81,0.00,,SCT080,0.00,VWS V14.01,2013-06-01 12:25:00,
2013-06-01 07:26:00,58.1,52.3,29.40,SSW,209,0.0,6.0,81,0.00,,SCT080,0.00,VWS V14.01,2013-06-01 12:26:00,
2013-06-01 07:27:00,58.1,52.3,29.40,SSW,209,0.0,6.0,81,0.00,,SCT080,0.00,VWS V14.01,2013-06-01 12:27:00,
2013-06-01 07:28:00,58.1,52.3,29.40,SSW,209,0.0,6.0,81,0.00,,SCT080,0.00,VWS V14.01,2013-06-01 12:28:00,
2013-06-01 07:29:00,58.3,53.2,29.40,SSW,209,0.0,6.0,83,0.00,,SCT080,0.00,VWS V14.01,2013-06-01 12:29:00,
2013-06-01 07:30:00,58.3,53.5,29.39,SSW,209,0.0,6.0,84,0.00,,SCT080,0.00,VWS V14.01,2013-06-01 12:30:00,
2013-06-01 07:31:00,58.3,53.5,29.39,SSW,209,0.0,0.0,84,0.00,,SCT080,0.00,VWS V14.01,2013-06-01 12:31:00,
2013-06-01 07:32:00,58.3,53.2,29.39,SSW,209,1.0,1.0,83,0.00,,SCT080,0.00,VWS V14.01,2013-06-01 12:32:00,
2013-06-01 07:33:00,58.3,53.2,29.39,SSW,209,0.0,1.0,83,0.00,,BKN080,0.00,VWS V14.01,2013-06-01 12:33:00,
2013-06-01 07:34:00,58.3,53.2,29.39,SSW,209,0.0,1.0,83,0.00,,BKN080,0.00,VWS V14.01,2013-06-01 12:34:00,
2013-06-01 07:35:00,58.3,53.2,29.39,SSW,209,0.0,1.0,83,0.00,,BKN080,0.00,VWS V14.01,2013-06-01 12:35:00,
2013-06-01 07:36:00,58.3,53.2,29.39,SSW,209,0.0,1.0,83,0.00,,BKN080,0.00,VWS V14.01,2013-06-01 12:36:00,
2013-06-01 07:37:00,58.3,53.2,29.39,SSW,209,0.0,1.0,83,0.00,,BKN080,0.00,VWS V14.01,2013-06-01 12:37:00,
2013-06-01 07:38:00,58.3,53.2,29.39,SSW,209,0.0,1.0,83,0.00,,BKN080,0.00,VWS V14.01,2013-06-01 12:38:00,
2013-06-01 07:39:00,58.4,53.3,29.39,SSW,209,0.0,1.0,83,0.00,,BKN080,0.00,VWS V14.01,2013-06-01 12:39:00,
2013-06-01 07:40:00,58.4,53.3,29.39,SSW,209,0.0,1.0,83,0.00,,BKN080,0.00,VWS V14.01,2013-06-01 12:40:00,
2013-06-01 07:41:00,58.4,53.3,29.39,SSW,209,0.0,1.0,83,0.00,,BKN080,0.00,VWS V14.01,2013-06-01 12:41:00,
2013-06-01 07:42:00,58.4,53.3,29.39,SSW,209,0.0,1.0,83,0.00,,BKN080,0.00,VWS V14.01,2013-06-01 12:42:00,
2013-06-01 07:43:00,58.6,53.5,29.39,SSW,209,0.0,1.0,83,0.00,,BKN080,0.00,VWS V14.01,2013-06-01 12:43:00,
2013-06-01 07:44:00,58.6,53.5,29.39,SSW,209,0.0,1.0,83,0.00,,BKN080,0.00,VWS V14.01,2013-06-01 12:44:00,
2013-06-01 07:45:00,58.6,53.5,29.40,SSW,209,0.0,1.0,83,0.00,,BKN080,0.00,VWS V14.01,2013-06-01 12:45:00,
2013-06-01 07:46:00,58.6,53.5,29.40,SSW,209,0.0,1.0,83,0.00,,BKN080,0.00,VWS V14.01,2013-06-01 12:46:00,
2013-06-01 07:47:00,58.7,53.6,29.40,SSW,209,0.0,1.0,83,0.00,,BKN080,0.00,VWS V14.01,2013-06-01 12:47:00,
2013-06-01 07:48:00,58.7,53.6,29.40,SSW,209,0.0,1.0,83,0.00,,BKN080,0.00,VWS V14.01,2013-06-01 12:48:00,
2013-06-01 07:49:00,58.7,53.2,29.40,SSW,209,0.0,2.0,82,0.00,,BKN080,0.00,VWS V14.01,2013-06-01 12:49:00,
2013-06-01 07:50:00,58.7,53.2,29.40,SSW,209,1.0,2.0,82,0.00,,BKN080,0.00,VWS V14.01,2013-06-01 12:50:00,
2013-06-01 07:51:00,58.7,53.2,29.40,SSW,209,0.0,2.0,82,0.00,,BKN080,0.00,VWS V14.01,2013-06-01 12:51:00,
2013-06-01 07:52:00,58.7,53.2,29.40,SSW,209,0.0,2.0,82,0.00,,BKN080,0.00,VWS V14.01,2013-06-01 12:52:00,
2013-06-01 07:53:00,58.7,53.2,29.40,SSW,209,0.0,2.0,82,0.00,,BKN080,0.00,VWS V14.01,2013-06-01 12:53:00,
2013-06-01 07:54:00,58.9,53.8,29.40,SSW,209,0.0,2.0,83,0.00,,BKN080,0.00,VWS V14.01,2013-06-01 12:54:00,
2013-06-01 07:55:00,58.9,53.8,29.40,SSW,209,0.0,2.0,83,0.00,,BKN080,0.00,VWS V14.01,2013-06-01 12:55:00,
2013-06-01 07:56:00,58.9,53.8,29.40,SSW,209,1.0,2.0,83,0.00,,BKN080,0.00,VWS V14.01,2013-06-01 12:56:00,
2013-06-01 07:57:00,58.9,53.4,29.40,SSW,209,0.0,2.0,82,0.00,,BKN080,0.00,VWS V14.01,2013-06-01 12:57:00,
2013-06-01 07:58:00,58.9,53.4,29.40,SSW,209,0.0,2.0,82,0.00,,BKN080,0.00,VWS V14.01,2013-06-01 12:58:00,
2013-06-01 07:59:00,58.9,53.4,29.40,SSW,209,0.0,2.0,82,0.00,,BKN080,0.00,VWS V14.01,2013-06-01 12:59:00,
2013-06-01 08:00:00,58.9,53.4,29.41,SSW,209,0.0,2.0,82,0.00,,BKN080,0.00,VWS V14.01,2013-06-01 13:00:00,
2013-06-01 08:01:00,58.9,53.1,29.41,SSW,209,0.0,1.0,81,0.00,,BKN080,0.00,VWS V14.01,2013-06-01 13:01:00,
2013-06-01 08:02:00,58.9,53.1,29.41,SSW,209,0.0,1.0,81,0.00,,BKN080,0.00,VWS V14.01,2013-06-01 13:02:00,
2013-06-01 08:03:00,58.9,53.1,29.41,SSW,209,0.0,1.0,81,0.00,,BKN080,0.00,VWS V14.01,2013-06-01 13:03:00,
2013-06-01 08:04:00,58.9,53.4,29.41,SSW,209,0.0,1.0,82,0.00,,BKN080,0.00,VWS V14.01,2013-06-01 13:04:00,
2013-06-01 08:05:00,58.9,53.1,29.41,SSW,209,0.0,1.0,81,0.00,,BKN080,0.00,VWS V14.01,2013-06-01 13:05:00,
2013-06-01 08:06:00,58.9,53.1,29.41,SSW,209,1.0,1.0,81,0.00,,BKN080,0.00,VWS V14.01,2013-06-01 13:06:00,
2013-06-01 08:07:00,58.9,53.1,29.41,SSW,209,0.0,2.0,81,0.00,,BKN080,0.00,VWS V14.01,2013-06-01 13:07:00,
2013-06-01 08:08:00,58.9,53.1,29.41,SSW,209,0.0,2.0,81,0.00,,BKN080,0.00,VWS V14.01,2013-06-01 13:08:00,
2013-06-01 08:09:00,59.0,53.2,29.41,SSW,209,0.0,2.0,81,0.00,,BKN080,0.00,VWS V14.01,2013-06-01 13:09:00,
2013-06-01 08:10:00,59.0,53.2,29.41,SSW,209,1.0,2.0,81,0.00,,BKN080,0.00,VWS V14.01,2013-06-01 13:10:00,
2013-06-01 08:11:00,59.0,53.2,29.41,SSW,209,0.0,2.0,81,0.00,,BKN080,0.00,VWS V14.01,2013-06-01 13:11:00,
2013-06-01 08:12:00,59.0,53.2,29.41,SSW,209,0.0,2.0,81,0.00,,BKN080,0.00,VWS V14.01,2013-06-01 13:12:00,
2013-06-01 08:13:00,59.2,54.0,29.41,SSW,211,1.0,2.0,83,0.00,,BKN080,0.00,VWS V14.01,2013-06-01 13:13:00,
2013-06-01 08:14:00,59.2,53.7,29.41,SSW,211,0.0,2.0,82,0.00,,BKN080,0.00,VWS V14.01,2013-06-01 13:14:00,
2013-06-01 08:15:00,59.2,53.4,29.42,SSW,211,0.0,2.0,81,0.00,,BKN080,0.00,VWS V14.01,2013-06-01 13:15:00,
2013-06-01 08:16:00,59.2,53.4,29.42,SSW,211,0.0,2.0,81,0.00,,BKN080,0.00,VWS V14.01,2013-06-01 13:16:00,
2013-06-01 08:17:00,59.2,53.0,29.42,SSW,211,0.0,2.0,80,0.00,,BKN080,0.00,VWS V14.01,2013-06-01 13:17:00,
2013-06-01 08:18:00,59.2,53.0,29.42,SSW,211,0.0,2.0,80,0.00,,BKN080,0.00,VWS V14.01,2013-06-01 13:18:00,
2013-06-01 08:19:00,59.2,53.4,29.42,SSW,211,0.0,2.0,81,0.00,,BKN080,0.00,VWS V14.01,2013-06-01 13:19:00,
2013-06-01 08:20:00,59.2,53.4,29.42,SSW,211,0.0,2.0,81,0.00,,BKN080,0.00,VWS V14.01,2013-06-01 13:20:00,
2013-06-01 08:21:00,59.3,53.5,29.42,SSW,211,0.0,2.0,81,0.00,,BKN080,0.00,VWS V14.01,2013-06-01 13:21:00,
2013-06-01 08:22:00,59.3,53.8,29.42,SSW,211,0.0,2.0,82,0.00,,BKN080,0.00,VWS V14.01,2013-06-01 13:22:00,
2013-06-01 08:23:00,59.3,53.5,29.42,SSW,211,0.0,2.0,81,0.00,,BKN080,0.00,VWS V14.01,2013-06-01 13:23:00,
2013-06-01 08:24:00,59.3,53.5,29.42,SSW,211,0.0,2.0,81,0.00,,BKN080,0.00,VWS V14.01,2013-06-01 13:24:00,
2013-06-01 08:25:00,59.3,53.5,29.42,SSW,211,0.0,2.0,81,0.00,,BKN080,0.00,VWS V14.01,2013-06-01 13:25:00,
2013-06-01 08:26:00,59.3,53.5,29.42,SSW,211,0.0,2.0,81,0.00,,BKN080,0.00,VWS V14.01,2013-06-01 13:26:00,
2013-06-01 08:27:00,59.5,53.7,29.42,SSW,211,0.0,2.0,81,0.00,,BKN080,0.00,VWS V14.01,2013-06-01 13:27:00,
2013-06-01 08:28:00,59.5,53.7,29.42,SSW,211,0.0,2.0,81,0.00,,BKN080,0.00,VWS V14.01,2013-06-01 13:28:00,
2013-06-01 08:29:00,59.5,53.7,29.42,SSW,211,0.0,2.0,81,0.00,,BKN080,0.00,VWS V14.01,2013-06-01 13:29:00,
2013-06-01 08:30:00,59.5,53.7,29.42,SSW,211,0.0,2.0,81,0.00,,BKN080,0.00,VWS V14.01,2013-06-01 13:30:00,
2013-06-01 08:31:00,59.5,53.7,29.42,WSW,247,2.0,3.0,81,0.00,,BKN080,0.00,VWS V14.01,2013-06-01 13:31:00,
2013-06-01 08:32:00,59.5,53.3,29.42,WSW,252,2.0,3.0,80,0.00,,BKN080,0.00,VWS V14.01,2013-06-01 13:32:00,
2013-06-01 08:33:00,59.5,53.3,29.42,WSW,252,2.0,3.0,80,0.00,,BKN080,0.00,VWS V14.01,2013-06-01 13:33:00,
2013-06-01 08:34:00,59.5,53.3,29.42,WSW,256,1.0,3.0,80,0.00,,BKN080,0.00,VWS V14.01,2013-06-01 13:34:00,
2013-06-01 08:35:00,59.5,53.3,29.42,WSW,256,0.0,3.0,80,0.00,,BKN080,0.00,VWS V14.01,2013-06-01 13:35:00,
2013-06-01 08:36:00,59.5,53.3,29.42,WSW,256,1.0,3.0,80,0.00,,BKN080,0.00,VWS V14.01,2013-06-01 13:36:00,
2013-06-01 08:37:00,59.5,53.7,29.42,WSW,256,0.0,3.0,81,0.00,,BKN080,0.00,VWS V14.01,2013-06-01 13:37:00,
2013-06-01 08:38:00,59.5,53.7,29.42,WSW,256,1.0,3.0,81,0.00,,BKN080,0.00,VWS V14.01,2013-06-01 13:38:00,
2013-06-01 08:39:00,59.6,53.8,29.42,WSW,256,2.0,3.0,81,0.00,,BKN080,0.00,VWS V14.01,2013-06-01 13:39:00,
2013-06-01 08:40:00,59.6,53.4,29.42,WSW,256,2.0,3.0,80,0.00,,BKN080,0.00,VWS V14.01,2013-06-01 13:40:00,
2013-06-01 08:41:00,59.6,53.4,29.42,WSW,256,1.0,3.0,80,0.00,,BKN080,0.00,VWS V14.01,2013-06-01 13:41:00,
2013-06-01 08:42:00,59.5,53.3,29.42,WSW,256,1.0,3.0,80,0.00,,BKN080,0.00,VWS V14.01,2013-06-01 13:42:00,
2013-06-01 08:43:00,59.6,53.4,29.42,WSW,257,2.0,3.0,80,0.00,,BKN080,0.00,VWS V14.01,2013-06-01 13:43:00,
2013-06-01 08:44:00,59.6,53.4,29.42,WSW,257,1.0,3.0,80,0.00,,BKN080,0.00,VWS V14.01,2013-06-01 13:44:00,
2013-06-01 08:45:00,59.6,53.4,29.42,WSW,256,1.0,3.0,80,0.00,,BKN080,0.00,VWS V14.01,2013-06-01 13:45:00,
2013-06-01 08:46:00,59.6,53.4,29.42,West,262,1.0,3.0,80,0.00,,BKN080,0.00,VWS V14.01,2013-06-01 13:46:00,
2013-06-01 08:47:00,59.6,53.4,29.42,West,262,1.0,3.0,80,0.00,,BKN080,0.00,VWS V14.01,2013-06-01 13:47:00,
2013-06-01 08:48:00,59.6,53.4,29.42,West,262,0.0,3.0,80,0.00,,BKN080,0.00,VWS V14.01,2013-06-01 13:48:00,
2013-06-01 08:49:00,59.8,53.6,29.42,West,262,2.0,3.0,80,0.00,,BKN080,0.00,VWS V14.01,2013-06-01 13:49:00,
2013-06-01 08:50:00,59.8,53.6,29.42,West,262,1.0,3.0,80,0.00,,BKN080,0.00,VWS V14.01,2013-06-01 13:50:00,
2013-06-01 08:51:00,59.8,53.6,29.42,West,262,0.0,3.0,80,0.00,,BKN080,0.00,VWS V14.01,2013-06-01 13:51:00,
2013-06-01 08:52:00,59.8,54.0,29.42,West,262,1.0,3.0,81,0.00,,BKN080,0.00,VWS V14.01,2013-06-01 13:52:00,
2013-06-01 08:53:00,59.9,53.7,29.42,West,262,0.0,3.0,80,0.00,,BKN080,0.00,VWS V14.01,2013-06-01 13:53:00,
2013-06-01 08:54:00,59.9,53.7,29.42,West,262,1.0,3.0,80,0.00,,BKN080,0.00,VWS V14.01,2013-06-01 13:54:00,
2013-06-01 08:55:00,59.9,53.7,29.42,West,262,1.0,3.0,80,0.00,,BKN080,0.00,VWS V14.01,2013-06-01 13:55:00,
2013-06-01 08:56:00,59.9,53.7,29.42,West,262,0.0,3.0,80,0.00,,BKN080,0.00,VWS V14.01,2013-06-01 13:56:00,
2013-06-01 08:57:00,59.9,53.7,29.42,West,262,1.0,3.0,80,0.00,,BKN080,0.00,VWS V14.01,2013-06-01 13:57:00,
2013-06-01 08:58:00,59.9,53.4,29.42,West,266,2.0,3.0,79,0.00,,BKN080,0.00,VWS V14.01,2013-06-01 13:58:00,
2013-06-01 08:59:00,59.9,53.7,29.42,West,270,2.0,3.0,80,0.00,,BKN080,0.00,VWS V14.01,2013-06-01 13:59:00,
2013-06-01 09:00:00,59.9,53.7,29.43,West,270,0.0,3.0,80,0.00,,BKN080,0.00,VWS V14.01,2013-06-01 14:00:00,
2013-06-01 09:01:00,60.1,53.9,29.43,West,270,3.0,4.0,80,0.00,,BKN080,0.00,VWS V14.01,2013-06-01 14:01:00,
2013-06-01 09:02:00,60.1,53.9,29.43,West,270,2.0,5.0,80,0.00,,BKN080,0.00,VWS V14.01,2013-06-01 14:02:00,
2013-06-01 09:03:00,60.1,54.3,29.43,West,270,2.0,5.0,81,0.00,,BKN080,0.00,VWS V14.01,2013-06-01 14:03:00,
2013-06-01 09:04:00,60.1,53.6,29.43,West,270,2.0,5.0,79,0.00,,BKN080,0.00,VWS V14.01,2013-06-01 14:04:00,
2013-06-01 09:05:00,60.1,53.9,29.43,West,270,1.0,5.0,80,0.00,,BKN080,0.00,VWS V14.01,2013-06-01 14:05:00,
2013-06-01 09:06:00,60.1,53.9,29.43,West,270,0.0,5.0,80,0.00,,BKN080,0.00,VWS V14.01,2013-06-01 14:06:00,
2013-06-01 09:07:00,60.2,54.0,29.43,West,270,1.0,5.0,80,0.00,,BKN080,0.00,VWS V14.01,2013-06-01 14:07:00,
2013-06-01 09:08:00,60.2,54.0,29.43,West,270,0.0,5.0,80,0.00,,BKN080,0.00,VWS V14.01,2013-06-01 14:08:00,
2013-06-01 09:09:00,60.2,54.0,29.43,West,270,2.0,5.0,80,0.00,,BKN080,0.00,VWS V14.01,2013-06-01 14:09:00,
2013-06-01 09:10:00,60.2,54.0,29.43,West,270,2.0,5.0,80,0.00,,BKN080,0.00,VWS V14.01,2013-06-01 14:10:00,
2013-06-01 09:11:00,60.2,53.7,29.43,West,270,1.0,5.0,79,0.00,,BKN080,0.00,VWS V14.01,2013-06-01 14:11:00,
2013-06-01 09:12:00,60.2,54.0,29.43,West,270,2.0,5.0,80,0.00,,BKN080,0.00,VWS V14.01,2013-06-01 14:12:00,
2013-06-01 09:13:00,60.4,54.5,29.43,West,270,1.0,5.0,81,0.00,,BKN080,0.00,VWS V14.01,2013-06-01 14:13:00,
2013-06-01 09:14:00,60.4,54.2,29.43,West,270,0.0,5.0,80,0.00,,BKN080,0.00,VWS V14.01,2013-06-01 14:14:00,
2013-06-01 09:15:00,60.4,54.2,29.43,West,270,0.0,5.0,80,0.00,,BKN080,0.00,VWS V14.01,2013-06-01 14:15:00,
2013-06-01 09:16:00,60.5,54.7,29.43,West,270,1.0,5.0,81,0.00,,BKN080,0.00,VWS V14.01,2013-06-01 14:16:00,
2013-06-01 09:17:00,60.5,54.7,29.43,West,270,0.0,5.0,81,0.00,,BKN080,0.00,VWS V14.01,2013-06-01 14:17:00,
2013-06-01 09:18:00,60.7,54.5,29.43,West,270,0.0,5.0,80,0.00,,BKN080,0.00,VWS V14.01,2013-06-01 14:18:00,
2013-06-01 09:19:00,60.7,54.2,29.43,West,270,1.0,5.0,79,0.00,,BKN080,0.00,VWS V14.01,2013-06-01 14:19:00,
2013-06-01 09:20:00,60.7,54.2,29.43,West,271,2.0,5.0,79,0.00,,BKN080,0.00,VWS V14.01,2013-06-01 14:20:00,
2013-06-01 09:21:00,60.7,54.2,29.43,West,270,1.0,5.0,79,0.00,,BKN080,0.00,VWS V14.01,2013-06-01 14:21:00,
2013-06-01 09:22:00,60.7,54.2,29.43,West,270,0.0,5.0,79,0.00,,BKN080,0.00,VWS V14.01,2013-06-01 14:22:00,
2013-06-01 09:23:00,60.9,54.3,29.43,West,270,0.0,5.0,79,0.00,,BKN080,0.00,VWS V14.01,2013-06-01 14:23:00,
2013-06-01 09:24:00,60.9,54.3,29.43,West,270,0.0,5.0,79,0.00,,BKN080,0.00,VWS V14.01,2013-06-01 14:24:00,
2013-06-01 09:25:00,60.7,54.2,29.43,West,270,0.0,5.0,79,0.00,,BKN080,0.00,VWS V14.01,2013-06-01 14:25:00,
2013-06-01 09:26:00,60.7,54.2,29.43,West,270,0.0,5.0,79,0.00,,BKN080,0.00,VWS V14.01,2013-06-01 14:26:00,
2013-06-01 09:27:00,60.7,54.2,29.43,West,270,1.0,5.0,79,0.00,,BKN080,0.00,VWS V14.01,2013-06-01 14:27:00,
2013-06-01 09:28:00,60.9,54.3,29.43,West,270,0.0,5.0,79,0.00,,BKN080,0.00,VWS V14.01,2013-06-01 14:28:00,
2013-06-01 09:29:00,60.9,54.7,29.43,West,270,1.0,5.0,80,0.00,,BKN080,0.00,VWS V14.01,2013-06-01 14:29:00,
2013-06-01 09:30:00,60.9,54.7,29.44,West,270,2.0,5.0,80,0.00,,BKN080,0.00,VWS V14.01,2013-06-01 14:30:00,
2013-06-01 09:31:00,60.9,54.3,29.44,West,270,1.0,2.0,79,0.00,,BKN080,0.00,VWS V14.01,2013-06-01 14:31:00,
2013-06-01 09:32:00,60.9,54.3,29.44,West,270,1.0,2.0,79,0.00,,BKN080,0.00,VWS V14.01,2013-06-01 14:32:00,
2013-06-01 09:33:00,60.9,54.3,29.44,West,270,0.0,2.0,79,0.00,,BKN100,0.00,VWS V14.01,2013-06-01 14:33:00,
2013-06-01 09:34:00,60.9,54.7,29.44,West,270,1.0,2.0,80,0.00,,BKN100,0.00,VWS V14.01,2013-06-01 14:34:00,
2013-06-01 09:35:00,60.9,54.3,29.44,West,270,2.0,2.0,79,0.00,,BKN100,0.00,VWS V14.01,2013-06-01 14:35:00,
2013-06-01 09:36:00,60.9,54.3,29.44,West,270,0.0,2.0,79,0.00,,BKN100,0.00,VWS V14.01,2013-06-01 14:36:00,
2013-06-01 09:37:00,60.9,54.3,29.44,West,270,1.0,2.0,79,0.00,,BKN100,0.00,VWS V14.01,2013-06-01 14:37:00,
2013-06-01 09:38:00,61.0,54.8,29.44,West,270,1.0,2.0,80,0.00,,BKN100,0.00,VWS V14.01,2013-06-01 14:38:00,
2013-06-01 09:39:00,61.0,55.1,29.44,West,270,1.0,2.0,81,0.00,,BKN100,0.00,VWS V14.01,2013-06-01 14:39:00,
2013-06-01 09:40:00,61.0,54.5,29.44,West,270,1.0,2.0,79,0.00,,BKN100,0.00,VWS V14.01,2013-06-01 14:40:00,
2013-06-01 09:41:00,61.2,54.6,29.44,West,270,0.0,2.0,79,0.00,,BKN100,0.00,VWS V14.01,2013-06-01 14:41:00,
2013-06-01 09:42:00,61.2,54.6,29.44,West,270,0.0,2.0,79,0.00,,BKN100,0.00,VWS V14.01,2013-06-01 14:42:00,
2013-06-01 09:43:00,61.2,54.6,29.44,West,270,0.0,2.0,79,0.00,,BKN100,0.00,VWS V14.01,2013-06-01 14:43:00,
2013-06-01 09:44:00,61.2,54.6,29.44,West,270,0.0,2.0,79,0.00,,BKN100,0.00,VWS V14.01,2013-06-01 14:44:00,
2013-06-01 09:45:00,61.2,54.6,29.44,West,270,0.0,2.0,79,0.00,,BKN100,0.00,VWS V14.01,2013-06-01 14:45:00,
2013-06-01 09:46:00,61.2,54.6,29.44,West,270,2.0,2.0,79,0.00,,BKN100,0.00,VWS V14.01,2013-06-01 14:46:00,
2013-06-01 09:47:00,61.2,54.6,29.44,West,270,2.0,2.0,79,0.00,,BKN100,0.00,VWS V14.01,2013-06-01 14:47:00,
2013-06-01 09:48:00,61.2,54.6,29.44,West,273,2.0,3.0,79,0.00,,BKN100,0.00,VWS V14.01,2013-06-01 14:48:00,
2013-06-01 09:49:00,61.2,55.0,29.44,West,270,1.0,3.0,80,0.00,,BKN100,0.00,VWS V14.01,2013-06-01 14:49:00,
2013-06-01 09:50:00,61.2,55.0,29.44,West,270,0.0,3.0,80,0.00,,BKN100,0.00,VWS V14.01,2013-06-01 14:50:00,
2013-06-01 09:51:00,61.0,54.5,29.44,West,270,1.0,3.0,79,0.00,,BKN100,0.00,VWS V14.01,2013-06-01 14:51:00,
2013-06-01 09:52:00,61.0,54.5,29.44,West,274,1.0,3.0,79,0.00,,BKN100,0.00,VWS V14.01,2013-06-01 14:52:00,
2013-06-01 09:53:00,61.0,54.5,29.44,West,274,1.0,3.0,79,0.00,,BKN100,0.00,VWS V14.01,2013-06-01 14:53:00,
2013-06-01 09:54:00,61.0,54.8,29.44,West,273,2.0,3.0,80,0.00,,BKN100,0.00,VWS V14.01,2013-06-01 14:54:00,
2013-06-01 09:55:00,61.0,54.5,29.44,West,273,1.0,3.0,79,0.00,,BKN100,0.00,VWS V14.01,2013-06-01 14:55:00,
2013-06-01 09:56:00,61.0,54.8,29.44,West,271,2.0,3.0,80,0.00,,BKN100,0.00,VWS V14.01,2013-06-01 14:56:00,
2013-06-01 09:57:00,60.9,54.3,29.44,West,271,1.0,3.0,79,0.00,,BKN100,0.00,VWS V14.01,2013-06-01 14:57:00,
2013-06-01 09:58:00,60.9,54.7,29.44,West,273,2.0,3.0,80,0.00,,BKN100,0.00,VWS V14.01,2013-06-01 14:58:00,
2013-06-01 09:59:00,60.9,54.7,29.44,West,273,2.0,3.0,80,0.00,,BKN100,0.00,VWS V14.01,2013-06-01 14:59:00,
2013-06-01 10:00:00,60.9,54.3,29.45,West,273,1.0,3.0,79,0.00,,BKN100,0.00,VWS V14.01,2013-06-01 15:00:00,
2013-06-01 10:01:00,60.9,54.3,29.45,West,271,2.0,3.0,79,0.00,,BKN100,0.00,VWS V14.01,2013-06-01 15:01:00,
2013-06-01 10:02:00,60.9,54.3,29.45,West,273,0.0,3.0,79,0.00,,BKN100,0.00,VWS V14.01,2013-06-01 15:02:00,
2013-06-01 10:03:00,60.9,54.7,29.45,West,273,1.0,3.0,80,0.00,,BKN100,0.00,VWS V14.01,2013-06-01 15:03:00,
2013-06-01 10:04:00,60.7,54.2,29.45,West,271,0.0,3.0,79,0.00,,BKN100,0.00,VWS V14.01,2013-06-01 15:04:00,
2013-06-01 10:05:00,60.9,54.7,29.45,West,273,1.0,3.0,80,0.00,,BKN100,0.00,VWS V14.01,2013-06-01 15:05:00,
2013-06-01 10:06:00,60.9,54.7,29.45,West,273,1.0,3.0,80,0.00,,BKN100,0.00,VWS V14.01,2013-06-01 15:06:00,
2013-06-01 10:07:00,60.9,54.7,29.45,West,273,1.0,3.0,80,0.00,,BKN100,0.00,VWS V14.01,2013-06-01 15:07:00,
2013-06-01 10:08:00,60.9,54.3,29.45,West,276,2.0,3.0,79,0.00,,BKN100,0.00,VWS V14.01,2013-06-01 15:08:00,
2013-06-01 10:09:00,60.9,54.3,29.45,West,276,1.0,3.0,79,0.00,,BKN100,0.00,VWS V14.01,2013-06-01 15:09:00,
2013-06-01 10:10:00,60.9,54.7,29.45,West,276,2.0,3.0,80,0.00,,BKN100,0.00,VWS V14.01,2013-06-01 15:10:00,
2013-06-01 10:11:00,60.9,54.3,29.45,West,276,1.0,3.0,79,0.00,,BKN100,0.00,VWS V14.01,2013-06-01 15:11:00,
2013-06-01 10:12:00,60.9,54.7,29.45,West,276,1.0,3.0,80,0.00,,BKN100,0.00,VWS V14.01,2013-06-01 15:12:00,
2013-06-01 10:13:00,60.9,54.7,29.45,West,276,0.0,3.0,80,0.00,,BKN100,0.00,VWS V14.01,2013-06-01 15:13:00,
2013-06-01 10:14:00,60.9,54.7,29.45,West,276,0.0,3.0,80,0.00,,BKN100,0.00,VWS V14.01,2013-06-01 15:14:00,
2013-06-01 10:15:00,61.0,54.8,29.45,West,276,0.0,3.0,80,0.00,,BKN100,0.00,VWS V14.01,2013-06-01 15:15:00,
2013-06-01 10:16:00,61.0,54.8,29.45,West,276,0.0,3.0,80,0.00,,BKN100,0.00,VWS V14.01,2013-06-01 15:16:00,
2013-06-01 10:17:00,61.0,54.8,29.45,West,276,0.0,3.0,80,0.00,,BKN100,0.00,VWS V14.01,2013-06-01 15:17:00,
2013-06-01 10:18:00,61.0,54.8,29.45,West,276,0.0,3.0,80,0.00,,BKN100,0.00,VWS V14.01,2013-06-01 15:18:00,
2013-06-01 10:19:00,61.0,54.8,29.45,West,276,0.0,3.0,80,0.00,,BKN100,0.00,VWS V14.01,2013-06-01 15:19:00,
2013-06-01 10:20:00,61.0,54.8,29.45,West,276,0.0,3.0,80,0.00,,BKN100,0.00,VWS V14.01,2013-06-01 15:20:00,
2013-06-01 10:21:00,61.0,54.8,29.45,West,276,0.0,3.0,80,0.00,,BKN100,0.00,VWS V14.01,2013-06-01 15:21:00,
2013-06-01 10:22:00,61.2,55.0,29.45,West,276,1.0,3.0,80,0.00,,BKN100,0.00,VWS V14.01,2013-06-01 15:22:00,
2013-06-01 10:23:00,61.2,55.0,29.45,West,276,0.0,3.0,80,0.00,,BKN100,0.00,VWS V14.01,2013-06-01 15:23:00,
2013-06-01 10:24:00,61.2,55.0,29.45,West,276,0.0,3.0,80,0.00,,BKN100,0.00,VWS V14.01,2013-06-01 15:24:00,
2013-06-01 10:25:00,61.2,55.0,29.45,West,276,0.0,3.0,80,0.00,,BKN100,0.00,VWS V14.01,2013-06-01 15:25:00,
2013-06-01 10:26:00,61.3,55.1,29.45,West,276,1.0,3.0,80,0.00,,BKN100,0.00,VWS V14.01,2013-06-01 15:26:00,
2013-06-01 10:27:00,61.3,54.7,29.45,West,276,0.0,3.0,79,0.00,,BKN100,0.00,VWS V14.01,2013-06-01 15:27:00,
2013-06-01 10:28:00,61.3,54.7,29.45,West,276,0.0,3.0,79,0.00,,BKN100,0.00,VWS V14.01,2013-06-01 15:28:00,
2013-06-01 10:29:00,61.3,54.7,29.45,West,276,0.0,3.0,79,0.00,,BKN100,0.00,VWS V14.01,2013-06-01 15:29:00,
2013-06-01 10:30:00,61.3,54.7,29.45,West,276,1.0,3.0,79,0.00,,BKN100,0.00,VWS V14.01,2013-06-01 15:30:00,
2013-06-01 10:31:00,61.3,54.7,29.45,West,276,0.0,1.0,79,0.00,,BKN100,0.00,VWS V14.01,2013-06-01 15:31:00,
2013-06-01 10:32:00,61.3,54.7,29.45,West,276,0.0,1.0,79,0.00,,BKN100,0.00,VWS V14.01,2013-06-01 15:32:00,
2013-06-01 10:33:00,61.3,54.7,29.45,West,276,2.0,2.0,79,0.00,,BKN150,0.00,VWS V14.01,2013-06-01 15:33:00,
2013-06-01 10:34:00,61.3,54.7,29.45,West,276,0.0,2.0,79,0.00,,BKN150,0.00,VWS V14.01,2013-06-01 15:34:00,
2013-06-01 10:35:00,61.5,54.9,29.45,West,278,1.0,2.0,79,0.00,,BKN150,0.00,VWS V14.01,2013-06-01 15:35:00,
2013-06-01 10:36:00,61.5,54.9,29.45,West,278,1.0,2.0,79,0.00,,BKN150,0.00,VWS V14.01,2013-06-01 15:36:00,
2013-06-01 10:37:00,61.5,54.9,29.45,West,278,1.0,2.0,79,0.00,,BKN150,0.00,VWS V14.01,2013-06-01 15:37:00,
2013-06-01 10:38:00,61.6,55.4,29.45,West,278,0.0,2.0,80,0.00,,BKN150,0.00,VWS V14.01,2013-06-01 15:38:00,
2013-06-01 10:39:00,61.6,54.7,29.45,West,278,0.0,2.0,78,0.00,,BKN150,0.00,VWS V14.01,2013-06-01 15:39:00,
2013-06-01 10:40:00,61.6,54.7,29.45,West,278,0.0,2.0,78,0.00,,BKN150,0.00,VWS V14.01,2013-06-01 15:40:00,
2013-06-01 10:41:00,61.8,54.9,29.45,West,276,0.0,2.0,78,0.00,,BKN150,0.00,VWS V14.01,2013-06-01 15:41:00,
2013-06-01 10:42:00,61.8,55.2,29.45,West,276,1.0,2.0,79,0.00,,BKN150,0.00,VWS V14.01,2013-06-01 15:42:00,
2013-06-01 10:43:00,61.8,54.9,29.45,West,274,0.0,2.0,78,0.00,,BKN150,0.00,VWS V14.01,2013-06-01 15:43:00,
2013-06-01 10:44:00,61.8,55.2,29.45,West,274,0.0,2.0,79,0.00,,BKN150,0.00,VWS V14.01,2013-06-01 15:44:00,
2013-06-01 10:45:00,62.0,55.1,29.45,West,273,2.0,3.0,78,0.00,,BKN150,0.00,VWS V14.01,2013-06-01 15:45:00,
2013-06-01 10:46:00,62.0,55.1,29.45,West,273,2.0,3.0,78,0.00,,BKN150,0.00,VWS V14.01,2013-06-01 15:46:00,
2013-06-01 10:47:00,62.0,54.7,29.45,West,273,0.0,3.0,77,0.00,,BKN150,0.00,VWS V14.01,2013-06-01 15:47:00,
2013-06-01 10:48:00,62.0,55.4,29.45,West,273,0.0,3.0,79,0.00,,BKN150,0.00,VWS V14.01,2013-06-01 15:48:00,
2013-06-01 10:49:00,62.0,55.4,29.45,West,273,2.0,3.0,79,0.00,,BKN150,0.00,VWS V14.01,2013-06-01 15:49:00,
2013-06-01 10:50:00,62.0,55.1,29.45,West,274,1.0,3.0,78,0.00,,BKN150,0.00,VWS V14.01,2013-06-01 15:50:00,
2013-06-01 10:51:00,62.0,55.4,29.45,West,274,0.0,3.0,79,0.00,,BKN150,0.00,VWS V14.01,2013-06-01 15:51:00,
2013-06-01 10:52:00,62.0,55.1,29.45,West,274,1.0,3.0,78,0.00,,BKN150,0.00,VWS V14.01,2013-06-01 15:52:00,
2013-06-01 10:53:00,62.0,55.1,29.45,West,274,0.0,3.0,78,0.00,,BKN150,0.00,VWS V14.01,2013-06-01 15:53:00,
2013-06-01 10:54:00,62.0,55.1,29.45,West,274,0.0,3.0,78,0.00,,BKN150,0.00,VWS V14.01,2013-06-01 15:54:00,
2013-06-01 10:55:00,62.1,55.2,29.45,West,274,0.0,3.0,78,0.00,,BKN150,0.00,VWS V14.01,2013-06-01 15:55:00,
2013-06-01 10:56:00,62.1,55.5,29.45,West,274,0.0,3.0,79,0.00,,BKN150,0.00,VWS V14.01,2013-06-01 15:56:00,
2013-06-01 10:57:00,62.1,55.2,29.45,West,274,0.0,3.0,78,0.00,,BKN150,0.00,VWS V14.01,2013-06-01 15:57:00,
2013-06-01 10:58:00,62.3,55.4,29.45,West,274,0.0,3.0,78,0.00,,BKN150,0.00,VWS V14.01,2013-06-01 15:58:00,
2013-06-01 10:59:00,62.3,55.4,29.45,West,271,1.0,3.0,78,0.00,,BKN150,0.00,VWS V14.01,2013-06-01 15:59:00,
2013-06-01 11:00:00,62.4,55.5,29.45,West,271,0.0,3.0,78,0.00,,BKN150,0.00,VWS V14.01,2013-06-01 16:00:00,
2013-06-01 11:01:00,62.6,55.7,29.45,West,271,0.0,0.0,78,0.00,,BKN150,0.00,VWS V14.01,2013-06-01 16:01:00,
2013-06-01 11:02:00,62.6,55.7,29.45,West,271,0.0,1.0,78,0.00,,BKN150,0.00,VWS V14.01,2013-06-01 16:02:00,
2013-06-01 11:03:00,62.7,55.4,29.45,West,271,0.0,1.0,77,0.00,,BKN150,0.00,VWS V14.01,2013-06-01 16:03:00,
2013-06-01 11:04:00,62.7,55.0,29.45,West,273,1.0,2.0,76,0.00,,BKN150,0.00,VWS V14.01,2013-06-01 16:04:00,
2013-06-01 11:05:00,62.7,55.0,29.45,West,274,2.0,3.0,76,0.00,,BKN150,0.00,VWS V14.01,2013-06-01 16:05:00,
2013-06-01 11:06:00,62.9,55.6,29.45,West,278,3.0,4.0,77,0.00,,BKN150,0.00,VWS V14.01,2013-06-01 16:06:00,
2013-06-01 11:07:00,62.9,55.6,29.45,West,267,4.0,4.0,77,0.00,,BKN150,0.00,VWS V14.01,2013-06-01 16:07:00,
2013-06-01 11:08:00,62.9,55.6,29.45,West,269,2.0,4.0,77,0.00,,BKN150,0.00,VWS V14.01,2013-06-01 16:08:00,
2013-06-01 11:09:00,62.9,55.2,29.45,West,267,1.0,4.0,76,0.00,,BKN150,0.00,VWS V14.01,2013-06-01 16:09:00,
2013-06-01 11:10:00,62.9,55.9,29.45,West,269,1.0,4.0,78,0.00,,BKN150,0.00,VWS V14.01,2013-06-01 16:10:00,
2013-06-01 11:11:00,62.7,55.4,29.45,West,269,0.0,4.0,77,0.00,,BKN150,0.00,VWS V14.01,2013-06-01 16:11:00,
2013-06-01 11:12:00,62.7,55.4,29.45,West,269,2.0,4.0,77,0.00,,BKN150,0.00,VWS V14.01,2013-06-01 16:12:00,
2013-06-01 11:13:00,62.9,55.6,29.45,West,271,4.0,4.0,77,0.00,,BKN150,0.00,VWS V14.01,2013-06-01 16:13:00,
2013-06-01 11:14:00,62.7,55.0,29.45,West,273,1.0,4.0,76,0.00,,BKN150,0.00,VWS V14.01,2013-06-01 16:14:00,
2013-06-01 11:15:00,62.7,55.4,29.45,West,273,2.0,4.0,77,0.00,,BKN150,0.00,VWS V14.01,2013-06-01 16:15:00,
2013-06-01 11:16:00,62.7,55.0,29.45,West,273,1.0,4.0,76,0.00,,BKN150,0.00,VWS V14.01,2013-06-01 16:16:00,
2013-06-01 11:17:00,62.7,55.4,29.45,West,278,2.0,5.0,77,0.00,,BKN150,0.00,VWS V14.01,2013-06-01 16:17:00,
2013-06-01 11:18:00,62.7,55.4,29.45,West,278,3.0,5.0,77,0.00,,BKN150,0.00,VWS V14.01,2013-06-01 16:18:00,
2013-06-01 11:19:00,62.7,55.0,29.45,West,276,0.0,5.0,76,0.00,,BKN150,0.00,VWS V14.01,2013-06-01 16:19:00,
2013-06-01 11:20:00,62.7,55.0,29.45,West,276,0.0,5.0,76,0.00,,BKN150,0.00,VWS V14.01,2013-06-01 16:20:00,
2013-06-01 11:21:00,62.7,55.0,29.45,West,276,1.0,5.0,76,0.00,,BKN150,0.00,VWS V14.01,2013-06-01 16:21:00,
2013-06-01 11:22:00,62.7,55.4,29.45,West,276,0.0,5.0,77,0.00,,BKN150,0.00,VWS V14.01,2013-06-01 16:22:00,
2013-06-01 11:23:00,62.7,55.4,29.45,West,277,1.0,5.0,77,0.00,,BKN150,0.00,VWS V14.01,2013-06-01 16:23:00,
2013-06-01 11:24:00,62.7,55.8,29.45,West,278,2.0,5.0,78,0.00,,BKN150,0.00,VWS V14.01,2013-06-01 16:24:00,
2013-06-01 11:25:00,62.7,55.4,29.45,West,278,0.0,5.0,77,0.00,,BKN150,0.00,VWS V14.01,2013-06-01 16:25:00,
2013-06-01 11:26:00,62.7,55.4,29.45,West,278,0.0,5.0,77,0.00,,BKN150,0.00,VWS V14.01,2013-06-01 16:26:00,
2013-06-01 11:27:00,62.9,55.9,29.45,West,278,2.0,5.0,78,0.00,,BKN150,0.00,VWS V14.01,2013-06-01 16:27:00,
2013-06-01 11:28:00,63.1,55.8,29.45,West,278,2.0,5.0,77,0.00,,BKN150,0.00,VWS V14.01,2013-06-01 16:28:00,
2013-06-01 11:29:00,63.2,55.9,29.45,West,281,1.0,5.0,77,0.00,,BKN150,0.00,VWS V14.01,2013-06-01 16:29:00,
2013-06-01 11:30:00,63.4,56.4,29.45,WNW,283,1.0,6.0,78,0.00,,BKN150,0.00,VWS V14.01,2013-06-01 16:30:00,
2013-06-01 11:31:00,63.5,56.9,29.45,West,278,2.0,2.0,79,0.00,,BKN150,0.00,VWS V14.01,2013-06-01 16:31:00,
2013-06-01 11:32:00,63.7,56.4,29.45,West,278,2.0,2.0,77,0.00,,BKN150,0.00,VWS V14.01,2013-06-01 16:32:00,
2013-06-01 11:33:00,63.9,56.9,29.45,West,278,1.0,2.0,78,0.00,,BKN110,0.00,VWS V14.01,2013-06-01 16:33:00,
2013-06-01 11:34:00,64.2,57.2,29.45,West,276,2.0,5.0,78,0.00,,BKN110,0.00,VWS V14.01,2013-06-01 16:34:00,
2013-06-01 11:35:00,64.3,56.2,29.45,West,276,3.0,5.0,75,0.00,,BKN110,0.00,VWS V14.01,2013-06-01 16:35:00,
2013-06-01 11:36:00,64.2,55.8,29.45,West,274,0.0,5.0,74,0.00,,BKN110,0.00,VWS V14.01,2013-06-01 16:36:00,
2013-06-01 11:37:00,64.3,56.2,29.45,West,274,1.0,5.0,75,0.00,,BKN110,0.00,VWS V14.01,2013-06-01 16:37:00,
2013-06-01 11:38:00,64.3,57.0,29.45,West,280,1.0,5.0,77,0.00,,BKN110,0.00,VWS V14.01,2013-06-01 16:38:00,
2013-06-01 11:39:00,64.5,56.8,29.45,West,278,2.0,5.0,76,0.00,,BKN110,0.00,VWS V14.01,2013-06-01 16:39:00,
2013-06-01 11:40:00,64.5,56.0,29.45,West,278,0.0,5.0,74,0.00,,BKN110,0.00,VWS V14.01,2013-06-01 16:40:00,
2013-06-01 11:41:00,64.5,56.0,29.45,West,280,1.0,5.0,74,0.00,,BKN110,0.00,VWS V14.01,2013-06-01 16:41:00,
2013-06-01 11:42:00,64.5,56.0,29.45,West,280,1.0,5.0,74,0.00,,BKN110,0.00,VWS V14.01,2013-06-01 16:42:00,
2013-06-01 11:43:00,64.8,57.4,29.45,WNW,284,2.0,5.0,77,0.00,,BKN110,0.00,VWS V14.01,2013-06-01 16:43:00,
2013-06-01 11:44:00,65.0,56.5,29.45,West,264,1.0,5.0,74,0.00,,BKN110,0.00,VWS V14.01,2013-06-01 16:44:00,
2013-06-01 11:45:00,65.0,56.5,29.45,West,266,2.0,5.0,74,0.00,,BKN110,0.00,VWS V14.01,2013-06-01 16:45:00,
2013-06-01 11:46:00,65.2,57.1,29.45,WSW,257,3.0,5.0,75,0.00,,BKN110,0.00,VWS V14.01,2013-06-01 16:46:00,
2013-06-01 11:47:00,65.2,56.3,29.45,West,270,3.0,6.0,73,0.00,,BKN110,0.00,VWS V14.01,2013-06-01 16:47:00,
2013-06-01 11:48:00,65.2,55.6,29.45,West,270,3.0,6.0,71,0.00,,BKN110,0.00,VWS V14.01,2013-06-01 16:48:00,
2013-06-01 11:49:00,65.2,56.0,29.45,WNW,293,1.0,6.0,72,0.00,,BKN110,0.00,VWS V14.01,2013-06-01 16:49:00,
2013-06-01 11:50:00,65.2,56.3,29.45,WNW,293,0.0,6.0,73,0.00,,BKN110,0.00,VWS V14.01,2013-06-01 16:50:00,
2013-06-01 11:51:00,65.2,56.3,29.45,WNW,293,1.0,6.0,73,0.00,,BKN110,0.00,VWS V14.01,2013-06-01 16:51:00,
2013-06-01 11:52:00,65.3,56.8,29.45,West,278,1.0,6.0,74,0.00,,BKN110,0.00,VWS V14.01,2013-06-01 16:52:00,
2013-06-01 11:53:00,65.5,56.6,29.45,West,280,1.0,6.0,73,0.00,,BKN110,0.00,VWS V14.01,2013-06-01 16:53:00,
2013-06-01 11:54:00,65.5,56.6,29.45,WNW,287,2.0,6.0,73,0.00,,BKN110,0.00,VWS V14.01,2013-06-01 16:54:00,
2013-06-01 11:55:00,65.6,56.3,29.45,NW,314,3.0,6.0,72,0.00,,BKN110,0.00,VWS V14.01,2013-06-01 16:55:00,
2013-06-01 11:56:00,65.8,56.2,29.45,NW,314,0.0,6.0,71,0.00,,BKN110,0.00,VWS V14.01,2013-06-01 16:56:00,
2013-06-01 11:57:00,65.8,56.9,29.45,West,267,1.0,6.0,73,0.00,,BKN110,0.00,VWS V14.01,2013-06-01 16:57:00,
2013-06-01 11:58:00,65.8,56.5,29.45,West,269,0.0,6.0,72,0.00,,BKN110,0.00,VWS V14.01,2013-06-01 16:58:00,
2013-06-01 11:59:00,65.8,56.5,29.45,West,270,1.0,6.0,72,0.00,,BKN110,0.00,VWS V14.01,2013-06-01 16:59:00,
2013-06-01 12:00:00,66.0,56.7,29.45,West,270,2.0,6.0,72,0.00,,BKN110,0.00,VWS V14.01,2013-06-01 17:00:00,
2013-06-01 12:01:00,66.0,56.7,29.45,West,271,2.0,3.0,72,0.00,,BKN110,0.00,VWS V14.01,2013-06-01 17:01:00,
2013-06-01 12:02:00,65.8,56.2,29.45,West,267,1.0,3.0,71,0.00,,BKN110,0.00,VWS V14.01,2013-06-01 17:02:00,
2013-06-01 12:03:00,65.8,55.8,29.45,West,269,0.0,3.0,70,0.00,,BKN110,0.00,VWS V14.01,2013-06-01 17:03:00,
2013-06-01 12:04:00,65.8,56.5,29.45,West,267,0.0,3.0,72,0.00,,BKN110,0.00,VWS V14.01,2013-06-01 17:04:00,
2013-06-01 12:05:00,65.8,56.9,29.45,West,269,2.0,3.0,73,0.00,,BKN110,0.00,VWS V14.01,2013-06-01 17:05:00,
2013-06-01 12:06:00,66.0,57.5,29.45,West,269,1.0,3.0,74,0.00,,BKN110,0.00,VWS V14.01,2013-06-01 17:06:00,
2013-06-01 12:07:00,66.0,56.7,29.45,West,270,1.0,3.0,72,0.00,,BKN110,0.00,VWS V14.01,2013-06-01 17:07:00,
2013-06-01 12:08:00,66.0,56.3,29.45,West,270,2.0,3.0,71,0.00,,BKN110,0.00,VWS V14.01,2013-06-01 17:08:00,
2013-06-01 12:09:00,66.1,56.4,29.45,West,269,2.0,4.0,71,0.00,,BKN110,0.00,VWS V14.01,2013-06-01 17:09:00,
2013-06-01 12:10:00,66.1,56.8,29.45,West,270,2.0,4.0,72,0.00,,BKN110,0.00,VWS V14.01,2013-06-01 17:10:00,
2013-06-01 12:11:00,66.1,56.4,29.45,West,271,1.0,4.0,71,0.00,,BKN110,0.00,VWS V14.01,2013-06-01 17:11:00,
2013-06-01 12:12:00,66.3,56.2,29.45,West,271,2.0,4.0,70,0.00,,BKN110,0.00,VWS V14.01,2013-06-01 17:12:00,
2013-06-01 12:13:00,66.4,56.3,29.45,West,271,0.0,4.0,70,0.00,,BKN110,0.00,VWS V14.01,2013-06-01 17:13:00,
2013-06-01 12:14:00,66.4,56.3,29.45,West,271,0.0,4.0,70,0.00,,BKN110,0.00,VWS V14.01,2013-06-01 17:14:00,
2013-06-01 12:15:00,66.6,56.5,29.46,West,271,2.0,4.0,70,0.00,,BKN110,0.00,VWS V14.01,2013-06-01 17:15:00,
2013-06-01 12:16:00,66.8,56.3,29.46,West,271,3.0,4.0,69,0.00,,BKN110,0.00,VWS V14.01,2013-06-01 17:16:00,
2013-06-01 12:17:00,66.8,56.3,29.46,West,271,1.0,4.0,69,0.00,,BKN110,0.00,VWS V14.01,2013-06-01 17:17:00,
2013-06-01 12:18:00,66.8,56.7,29.46,West,270,2.0,4.0,70,0.00,,BKN110,0.00,VWS V14.01,2013-06-01 17:18:00,
2013-06-01 12:19:00,66.8,56.7,29.46,West,270,0.0,4.0,70,0.00,,BKN110,0.00,VWS V14.01,2013-06-01 17:19:00,
2013-06-01 12:20:00,66.8,56.7,29.46,West,270,0.0,4.0,70,0.00,,BKN110,0.00,VWS V14.01,2013-06-01 17:20:00,
2013-06-01 12:21:00,66.9,56.4,29.46,West,270,0.0,4.0,69,0.00,,BKN110,0.00,VWS V14.01,2013-06-01 17:21:00,
2013-06-01 12:22:00,66.9,56.4,29.46,West,270,0.0,4.0,69,0.00,,BKN110,0.00,VWS V14.01,2013-06-01 17:22:00,
2013-06-01 12:23:00,67.1,56.6,29.46,West,270,0.0,4.0,69,0.00,,BKN110,0.00,VWS V14.01,2013-06-01 17:23:00,
2013-06-01 12:24:00,67.1,56.6,29.46,West,270,0.0,4.0,69,0.00,,BKN110,0.00,VWS V14.01,2013-06-01 17:24:00,
2013-06-01 12:25:00,67.3,57.2,29.46,West,270,0.0,4.0,70,0.00,,BKN110,0.00,VWS V14.01,2013-06-01 17:25:00,
2013-06-01 12:26:00,67.3,58.0,29.46,West,270,0.0,4.0,72,0.00,,BKN110,0.00,VWS V14.01,2013-06-01 17:26:00,
2013-06-01 12:27:00,67.3,57.6,29.46,West,270,0.0,4.0,71,0.00,,BKN110,0.00,VWS V14.01,2013-06-01 17:27:00,
2013-06-01 12:28:00,67.3,56.4,29.46,West,270,3.0,4.0,68,0.00,,BKN110,0.00,VWS V14.01,2013-06-01 17:28:00,
2013-06-01 12:29:00,67.4,56.9,29.46,West,269,3.0,4.0,69,0.00,,BKN110,0.00,VWS V14.01,2013-06-01 17:29:00,
2013-06-01 12:30:00,67.3,56.4,29.45,West,270,2.0,4.0,68,0.00,,BKN110,0.00,VWS V14.01,2013-06-01 17:30:00,
2013-06-01 12:31:00,67.3,56.0,29.45,West,270,2.0,2.0,67,0.00,,BKN110,0.00,VWS V14.01,2013-06-01 17:31:00,
2013-06-01 12:32:00,67.3,57.2,29.45,West,270,0.0,2.0,70,0.00,,BKN110,0.00,VWS V14.01,2013-06-01 17:32:00,
2013-06-01 12:33:00,67.4,57.3,29.45,West,270,0.0,2.0,70,0.00,,BKN080,0.00,VWS V14.01,2013-06-01 17:33:00,
2013-06-01 12:34:00,67.6,57.9,29.45,NW,326,6.0,6.0,71,0.00,,BKN080,0.00,VWS V14.01,2013-06-01 17:34:00,
2013-06-01 12:35:00,67.8,57.3,29.45,NW,326,0.0,6.0,69,0.00,,BKN080,0.00,VWS V14.01,2013-06-01 17:35:00,
2013-06-01 12:36:00,67.9,57.4,29.45,NW,326,0.0,6.0,69,0.00,,BKN080,0.00,VWS V14.01,2013-06-01 17:36:00,
2013-06-01 12:37:00,68.1,58.0,29.45,NW,325,1.0,6.0,70,0.00,,BKN080,0.00,VWS V14.01,2013-06-01 17:37:00,
2013-06-01 12:38:00,68.1,56.7,29.45,NW,325,0.0,6.0,67,0.00,,BKN080,0.00,VWS V14.01,2013-06-01 17:38:00,
2013-06-01 12:39:00,68.3,57.8,29.45,NNW,329,2.0,6.0,69,0.00,,BKN080,0.00,VWS V14.01,2013-06-01 17:39:00,
2013-06-01 12:40:00,68.4,58.2,29.45,NNW,332,0.0,6.0,70,0.00,,BKN080,0.00,VWS V14.01,2013-06-01 17:40:00,
2013-06-01 12:41:00,68.4,57.4,29.45,NW,310,2.0,6.0,68,0.00,,BKN080,0.00,VWS V14.01,2013-06-01 17:41:00,
2013-06-01 12:42:00,68.4,57.4,29.45,NW,312,1.0,6.0,68,0.00,,BKN080,0.00,VWS V14.01,2013-06-01 17:42:00,
2013-06-01 12:43:00,68.6,58.0,29.45,WNW,301,1.0,6.0,69,0.00,,BKN080,0.00,VWS V14.01,2013-06-01 17:43:00,
2013-06-01 12:44:00,68.6,56.8,29.45,WNW,301,0.0,6.0,66,0.00,,BKN080,0.00,VWS V14.01,2013-06-01 17:44:00,
2013-06-01 12:45:00,68.6,56.8,29.45,WNW,301,0.0,6.0,66,0.00,,BKN080,0.00,VWS V14.01,2013-06-01 17:45:00,
2013-06-01 12:46:00,68.8,57.4,29.45,WNW,301,0.0,6.0,67,0.00,,BKN080,0.00,VWS V14.01,2013-06-01 17:46:00,
2013-06-01 12:47:00,68.8,57.0,29.45,WNW,301,1.0,6.0,66,0.00,,BKN080,0.00,VWS V14.01,2013-06-01 17:47:00,
2013-06-01 12:48:00,68.8,57.0,29.45,West,269,1.0,6.0,66,0.00,,BKN080,0.00,VWS V14.01,2013-06-01 17:48:00,
2013-06-01 12:49:00,68.6,56.4,29.45,West,269,1.0,6.0,65,0.00,,BKN080,0.00,VWS V14.01,2013-06-01 17:49:00,
2013-06-01 12:50:00,68.6,56.0,29.45,West,267,1.0,6.0,64,0.00,,BKN080,0.00,VWS V14.01,2013-06-01 17:50:00,
2013-06-01 12:51:00,68.4,56.2,29.45,West,269,2.0,6.0,65,0.00,,BKN080,0.00,VWS V14.01,2013-06-01 17:51:00,
2013-06-01 12:52:00,68.4,56.6,29.45,West,269,1.0,6.0,66,0.00,,BKN080,0.00,VWS V14.01,2013-06-01 17:52:00,
2013-06-01 12:53:00,68.4,56.6,29.45,West,269,1.0,6.0,66,0.00,,BKN080,0.00,VWS V14.01,2013-06-01 17:53:00,
2013-06-01 12:54:00,68.6,57.2,29.45,West,274,1.0,6.0,67,0.00,,BKN080,0.00,VWS V14.01,2013-06-01 17:54:00,
2013-06-01 12:55:00,68.6,56.8,29.45,West,267,1.0,6.0,66,0.00,,BKN080,0.00,VWS V14.01,2013-06-01 17:55:00,
2013-06-01 12:56:00,68.6,56.8,29.45,West,270,1.0,6.0,66,0.00,,BKN080,0.00,VWS V14.01,2013-06-01 17:56:00,
2013-06-01 12:57:00,68.8,57.4,29.45,WSW,245,3.0,7.0,67,0.00,,BKN080,0.00,VWS V14.01,2013-06-01 17:57:00,
2013-06-01 12:58:00,68.8,57.0,29.45,WSW,245,2.0,7.0,66,0.00,,BKN080,0.00,VWS V14.01,2013-06-01 17:58:00,
2013-06-01 12:59:00,68.6,57.2,29.45,WSW,245,1.0,7.0,67,0.00,,BKN080,0.00,VWS V14.01,2013-06-01 17:59:00,
2013-06-01 13:00:00,68.6,57.2,29.45,WSW,245,1.0,7.0,67,0.00,,BKN080,0.00,VWS V14.01,2013-06-01 18:00:00,
2013-06-01 13:01:00,68.6,57.2,29.45,WSW,245,0.0,1.0,67,0.00,,BKN080,0.00,VWS V14.01,2013-06-01 18:01:00,
2013-06-01 13:02:00,68.6,57.6,29.45,WSW,252,0.0,2.0,68,0.00,,BKN080,0.00,VWS V14.01,2013-06-01 18:02:00,
2013-06-01 13:03:00,68.4,57.0,29.45,WSW,252,1.0,2.0,67,0.00,,BKN080,0.00,VWS V14.01,2013-06-01 18:03:00,
2013-06-01 13:04:00,68.4,57.0,29.45,WSW,252,1.0,2.0,67,0.00,,BKN080,0.00,VWS V14.01,2013-06-01 18:04:00,
2013-06-01 13:05:00,68.3,56.5,29.45,WSW,252,1.0,2.0,66,0.00,,BKN080,0.00,VWS V14.01,2013-06-01 18:05:00,
2013-06-01 13:06:00,68.3,56.9,29.45,WSW,252,0.0,2.0,67,0.00,,BKN080,0.00,VWS V14.01,2013-06-01 18:06:00,
2013-06-01 13:07:00,68.1,57.2,29.45,WSW,252,0.0,2.0,68,0.00,,BKN080,0.00,VWS V14.01,2013-06-01 18:07:00,
2013-06-01 13:08:00,68.1,57.2,29.45,WSW,252,0.0,2.0,68,0.00,,BKN080,0.00,VWS V14.01,2013-06-01 18:08:00,
2013-06-01 13:09:00,67.9,57.4,29.45,WSW,252,0.0,2.0,69,0.00,,BKN080,0.00,VWS V14.01,2013-06-01 18:09:00,
2013-06-01 13:10:00,67.9,57.0,29.45,WSW,252,0.0,2.0,68,0.00,,BKN080,0.00,VWS V14.01,2013-06-01 18:10:00,
2013-06-01 13:11:00,67.8,56.5,29.45,WSW,252,0.0,2.0,67,0.00,,BKN080,0.00,VWS V14.01,2013-06-01 18:11:00,
2013-06-01 13:12:00,67.8,56.5,29.45,WSW,252,0.0,2.0,67,0.00,,BKN080,0.00,VWS V14.01,2013-06-01 18:12:00,
2013-06-01 13:13:00,67.8,57.3,29.45,WSW,252,1.0,2.0,69,0.00,,BKN080,0.00,VWS V14.01,2013-06-01 18:13:00,
2013-06-01 13:14:00,67.8,57.3,29.45,WSW,252,0.0,2.0,69,0.00,,BKN080,0.00,VWS V14.01,2013-06-01 18:14:00,
2013-06-01 13:15:00,67.6,57.1,29.46,WSW,252,1.0,3.0,69,0.00,,BKN080,0.00,VWS V14.01,2013-06-01 18:15:00,
2013-06-01 13:16:00,67.6,57.1,29.46,WSW,252,0.0,3.0,69,0.00,,BKN080,0.00,VWS V14.01,2013-06-01 18:16:00,
2013-06-01 13:17:00,67.6,57.1,29.46,WSW,252,0.0,3.0,69,0.00,,BKN080,0.00,VWS V14.01,2013-06-01 18:17:00,
2013-06-01 13:18:00,67.6,57.1,29.46,WSW,252,1.0,3.0,69,0.00,,BKN080,0.00,VWS V14.01,2013-06-01 18:18:00,
2013-06-01 13:19:00,67.6,57.5,29.46,WSW,252,0.0,3.0,70,0.00,,BKN080,0.00,VWS V14.01,2013-06-01 18:19:00,
2013-06-01 13:20:00,67.8,57.7,29.46,WSW,252,0.0,3.0,70,0.00,,BKN080,0.00,VWS V14.01,2013-06-01 18:20:00,
2013-06-01 13:21:00,67.9,58.5,29.46,WSW,252,0.0,3.0,72,0.00,,BKN080,0.00,VWS V14.01,2013-06-01 18:21:00,
2013-06-01 13:22:00,68.1,58.0,29.46,WSW,252,0.0,3.0,70,0.00,,BKN080,0.00,VWS V14.01,2013-06-01 18:22:00,
2013-06-01 13:23:00,68.4,58.6,29.46,WSW,247,2.0,3.0,71,0.00,,BKN080,0.00,VWS V14.01,2013-06-01 18:23:00,
2013-06-01 13:24:00,68.4,57.8,29.46,WSW,247,0.0,3.0,69,0.00,,BKN080,0.00,VWS V14.01,2013-06-01 18:24:00,
2013-06-01 13:25:00,68.6,57.2,29.46,WSW,247,1.0,3.0,67,0.00,,BKN080,0.00,VWS V14.01,2013-06-01 18:25:00,
2013-06-01 13:26:00,68.9,57.5,29.46,WSW,247,0.0,3.0,67,0.00,,BKN080,0.00,VWS V14.01,2013-06-01 18:26:00,
2013-06-01 13:27:00,69.1,57.7,29.46,WSW,247,2.0,3.0,67,0.00,,BKN080,0.00,VWS V14.01,2013-06-01 18:27:00,
2013-06-01 13:28:00,69.1,57.3,29.46,SW,233,4.0,4.0,66,0.00,,BKN080,0.00,VWS V14.01,2013-06-01 18:28:00,
2013-06-01 13:29:00,69.1,57.3,29.46,SSW,194,2.0,5.0,66,0.00,,BKN080,0.00,VWS V14.01,2013-06-01 18:29:00,
2013-06-01 13:30:00,69.3,57.5,29.46,SSW,194,2.0,5.0,66,0.00,,BKN080,0.00,VWS V14.01,2013-06-01 18:30:00,
2013-06-01 13:31:00,69.3,57.0,29.46,SSW,194,1.0,3.0,65,0.00,,BKN080,0.00,VWS V14.01,2013-06-01 18:31:00,
2013-06-01 13:32:00,69.3,57.5,29.46,South,180,5.0,5.0,66,0.00,,BKN080,0.00,VWS V14.01,2013-06-01 18:32:00,
2013-06-01 13:33:00,69.3,56.6,29.46,South,180,0.0,5.0,64,0.00,,OVC095,0.00,VWS V14.01,2013-06-01 18:33:00,
2013-06-01 13:34:00,69.3,57.9,29.46,South,175,2.0,5.0,67,0.00,,OVC095,0.00,VWS V14.01,2013-06-01 18:34:00,
2013-06-01 13:35:00,69.4,57.6,29.46,South,175,2.0,5.0,66,0.00,,OVC095,0.00,VWS V14.01,2013-06-01 18:35:00,
2013-06-01 13:36:00,69.6,57.8,29.46,South,175,0.0,5.0,66,0.00,,OVC095,0.00,VWS V14.01,2013-06-01 18:36:00,
2013-06-01 13:37:00,69.6,57.8,29.46,South,175,0.0,5.0,66,0.00,,OVC095,0.00,VWS V14.01,2013-06-01 18:37:00,
2013-06-01 13:38:00,69.6,57.3,29.46,South,177,0.0,5.0,65,0.00,,OVC095,0.00,VWS V14.01,2013-06-01 18:38:00,
2013-06-01 13:39:00,69.6,57.3,29.46,SSE,164,1.0,6.0,65,0.00,,OVC095,0.00,VWS V14.01,2013-06-01 18:39:00,
2013-06-01 13:40:00,69.6,57.3,29.46,SSE,164,0.0,6.0,65,0.00,,OVC095,0.00,VWS V14.01,2013-06-01 18:40:00,
2013-06-01 13:41:00,69.6,56.9,29.46,SSE,164,1.0,6.0,64,0.00,,OVC095,0.00,VWS V14.01,2013-06-01 18:41:00,
2013-06-01 13:42:00,69.6,56.9,29.46,SSE,164,0.0,6.0,64,0.00,,OVC095,0.00,VWS V14.01,2013-06-01 18:42:00,
2013-06-01 13:43:00,69.6,57.8,29.46,SSE,164,0.0,6.0,66,0.00,,OVC095,0.00,VWS V14.01,2013-06-01 18:43:00,
2013-06-01 13:44:00,69.6,57.3,29.46,SSE,164,0.0,6.0,65,0.00,,OVC095,0.00,VWS V14.01,2013-06-01 18:44:00,
2013-06-01 13:45:00,69.6,56.9,29.46,SSE,164,0.0,6.0,64,0.00,,OVC095,0.00,VWS V14.01,2013-06-01 18:45:00,
2013-06-01 13:46:00,69.6,56.9,29.46,SSE,164,0.0,6.0,64,0.00,,OVC095,0.00,VWS V14.01,2013-06-01 18:46:00,
2013-06-01 13:47:00,69.6,57.8,29.46,SSE,164,0.0,6.0,66,0.00,,OVC095,0.00,VWS V14.01,2013-06-01 18:47:00,
2013-06-01 13:48:00,69.6,57.3,29.46,SSE,164,2.0,6.0,65,0.00,,OVC095,0.00,VWS V14.01,2013-06-01 18:48:00,
2013-06-01 13:49:00,69.4,56.7,29.46,SSE,164,0.0,6.0,64,0.00,,OVC095,0.00,VWS V14.01,2013-06-01 18:49:00,
2013-06-01 13:50:00,69.4,57.1,29.46,SSE,164,0.0,6.0,65,0.00,,OVC095,0.00,VWS V14.01,2013-06-01 18:50:00,
2013-06-01 13:51:00,69.4,57.6,29.46,SSE,164,0.0,6.0,66,0.00,,OVC095,0.00,VWS V14.01,2013-06-01 18:51:00,
2013-06-01 13:52:00,69.4,57.6,29.46,SSE,164,2.0,6.0,66,0.00,,OVC095,0.00,VWS V14.01,2013-06-01 18:52:00,
2013-06-01 13:53:00,69.3,57.5,29.46,SSE,164,0.0,6.0,66,0.00,,OVC095,0.00,VWS V14.01,2013-06-01 18:53:00,
2013-06-01 13:54:00,69.3,57.5,29.46,SSE,163,0.0,6.0,66,0.00,,OVC095,0.00,VWS V14.01,2013-06-01 18:54:00,
2013-06-01 13:55:00,69.3,57.5,29.46,SSE,163,0.0,6.0,66,0.00,,OVC095,0.00,VWS V14.01,2013-06-01 18:55:00,
2013-06-01 13:56:00,69.1,56.8,29.46,SSE,163,0.0,6.0,65,0.00,,OVC095,0.00,VWS V14.01,2013-06-01 18:56:00,
2013-06-01 13:57:00,69.1,57.3,29.46,SSE,163,0.0,6.0,66,0.00,,OVC095,0.00,VWS V14.01,2013-06-01 18:57:00,
2013-06-01 13:58:00,69.1,57.7,29.46,SSE,163,0.0,6.0,67,0.00,,OVC095,0.00,VWS V14.01,2013-06-01 18:58:00,
2013-06-01 13:59:00,69.1,57.7,29.46,SSE,163,0.0,6.0,67,0.00,,OVC095,0.00,VWS V14.01,2013-06-01 18:59:00,
2013-06-01 14:00:00,69.1,57.3,29.46,SSE,161,1.0,6.0,66,0.00,,OVC095,0.00,VWS V14.01,2013-06-01 19:00:00,
2013-06-01 14:01:00,68.9,57.1,29.46,SSE,163,1.0,2.0,66,0.00,,OVC095,0.00,VWS V14.01,2013-06-01 19:01:00,
2013-06-01 14:02:00,68.9,57.1,29.46,SSE,163,1.0,2.0,66,0.00,,OVC095,0.00,VWS V14.01,2013-06-01 19:02:00,
2013-06-01 14:03:00,68.9,57.1,29.46,SSE,161,1.0,2.0,66,0.00,,OVC095,0.00,VWS V14.01,2013-06-01 19:03:00,
2013-06-01 14:04:00,68.9,57.1,29.46,SSE,161,0.0,2.0,66,0.00,,OVC095,0.00,VWS V14.01,2013-06-01 19:04:00,
2013-06-01 14:05:00,68.9,57.1,29.46,SSE,161,1.0,2.0,66,0.00,,OVC095,0.00,VWS V14.01,2013-06-01 19:05:00,
2013-06-01 14:06:00,68.9,57.1,29.46,SSE,161,0.0,2.0,66,0.00,,OVC095,0.00,VWS V14.01,2013-06-01 19:06:00,
2013-06-01 14:07:00,68.9,57.1,29.46,SSE,161,0.0,2.0,66,0.00,,OVC095,0.00,VWS V14.01,2013-06-01 19:07:00,
2013-06-01 14:08:00,68.9,57.5,29.46,SSE,161,0.0,2.0,67,0.00,,OVC095,0.00,VWS V14.01,2013-06-01 19:08:00,
2013-06-01 14:09:00,68.9,57.1,29.46,SSE,161,0.0,2.0,66,0.00,,OVC095,0.00,VWS V14.01,2013-06-01 19:09:00,
2013-06-01 14:10:00,68.9,57.5,29.46,SSE,161,0.0,2.0,67,0.00,,OVC095,0.00,VWS V14.01,2013-06-01 19:10:00,
2013-06-01 14:11:00,68.9,57.5,29.46,SSE,161,0.0,2.0,67,0.00,,OVC095,0.00,VWS V14.01,2013-06-01 19:11:00,
2013-06-01 14:12:00,68.9,57.1,29.46,SSE,161,0.0,2.0,66,0.00,,OVC095,0.00,VWS V14.01,2013-06-01 19:12:00,
2013-06-01 14:13:00,68.9,57.1,29.46,SSE,161,0.0,2.0,66,0.00,,OVC095,0.00,VWS V14.01,2013-06-01 19:13:00,
2013-06-01 14:14:00,68.9,57.5,29.46,SSE,161,0.0,2.0,67,0.00,,OVC095,0.00,VWS V14.01,2013-06-01 19:14:00,
2013-06-01 14:15:00,68.8,57.0,29.46,SSE,161,0.0,2.0,66,0.00,,OVC095,0.00,VWS V14.01,2013-06-01 19:15:00,
2013-06-01 14:16:00,68.8,57.4,29.46,SSE,161,0.0,2.0,67,0.00,,OVC095,0.00,VWS V14.01,2013-06-01 19:16:00,
2013-06-01 14:17:00,68.6,58.0,29.46,West,269,5.0,5.0,69,0.00,,-RA,0.00,VWS V14.01,2013-06-01 19:17:00,
2013-06-01 14:18:00,68.3,58.2,29.46,West,270,8.0,8.0,70,0.00,,-RA,0.00,VWS V14.01,2013-06-01 19:18:00,
2013-06-01 14:19:00,67.8,58.1,29.46,NW,305,6.0,11.0,71,0.00,,-RA,0.00,VWS V14.01,2013-06-01 19:19:00,
2013-06-01 14:20:00,67.3,58.4,29.46,West,270,0.0,11.0,73,0.00,,-RA,0.00,VWS V14.01,2013-06-01 19:20:00,
2013-06-01 14:21:00,66.8,58.3,29.46,NW,310,11.0,13.0,74,0.00,,-RA,0.00,VWS V14.01,2013-06-01 19:21:00,
2013-06-01 14:22:00,66.1,58.0,29.46,NNW,329,5.0,14.0,75,0.00,,-RA,0.00,VWS V14.01,2013-06-01 19:22:00,
2013-06-01 14:23:00,65.8,58.4,29.46,North,6,11.0,14.0,77,0.01,,-RA,0.01,VWS V14.01,2013-06-01 19:23:00,
2013-06-01 14:24:00,65.5,58.8,29.46,NNW,346,7.0,14.0,79,0.01,,-RA,0.01,VWS V14.01,2013-06-01 19:24:00,
2013-06-01 14:25:00,65.2,58.9,29.46,NNE,17,8.0,14.0,80,0.02,,-RA,0.02,VWS V14.01,2013-06-01 19:25:00,
2013-06-01 14:26:00,64.7,59.1,29.46,NW,325,8.0,14.0,82,0.02,,-RA,0.02,VWS V14.01,2013-06-01 19:26:00,
2013-06-01 14:27:00,64.3,59.0,29.46,NNW,336,2.0,14.0,83,0.02,,-RA,0.02,VWS V14.01,2013-06-01 19:27:00,
2013-06-01 14:28:00,64.2,59.3,29.46,NW,305,1.0,14.0,84,0.02,,-RA,0.02,VWS V14.01,2013-06-01 19:28:00,
2013-06-01 14:29:00,63.9,59.3,29.46,NW,325,11.0,14.0,85,0.02,,-RA,0.02,VWS V14.01,2013-06-01 19:29:00,
2013-06-01 14:30:00,63.7,59.1,29.48,WNW,301,1.0,14.0,85,0.02,,-RA,0.02,VWS V14.01,2013-06-01 19:30:00,
2013-06-01 14:31:00,63.5,58.9,29.48,NW,315,3.0,6.0,85,0.02,,-RA,0.02,VWS V14.01,2013-06-01 19:31:00,
2013-06-01 14:32:00,63.5,58.9,29.48,WNW,297,3.0,8.0,85,0.02,,-RA,0.02,VWS V14.01,2013-06-01 19:32:00,
2013-06-01 14:33:00,63.4,58.8,29.48,NW,315,4.0,8.0,85,0.02,,RA,0.02,VWS V14.01,2013-06-01 19:33:00,
2013-06-01 14:34:00,63.4,59.2,29.48,NNW,335,9.0,9.0,86,0.02,,RA,0.02,VWS V14.01,2013-06-01 19:34:00,
2013-06-01 14:35:00,63.4,59.2,29.48,NW,311,3.0,9.0,86,0.02,,RA,0.02,VWS V14.01,2013-06-01 19:35:00,
2013-06-01 14:36:00,63.4,59.2,29.48,WNW,297,2.0,9.0,86,0.02,,RA,0.02,VWS V14.01,2013-06-01 19:36:00,
2013-06-01 14:37:00,63.4,59.2,29.48,NNW,329,2.0,9.0,86,0.02,,RA,0.02,VWS V14.01,2013-06-01 19:37:00,
2013-06-01 14:38:00,63.4,59.2,29.48,NW,325,7.0,9.0,86,0.02,,RA,0.02,VWS V14.01,2013-06-01 19:38:00,
2013-06-01 14:39:00,63.4,59.2,29.48,West,281,2.0,9.0,86,0.02,,RA,0.02,VWS V14.01,2013-06-01 19:39:00,
2013-06-01 14:40:00,63.4,59.2,29.48,NNE,22,14.0,14.0,86,0.02,,RA,0.02,VWS V14.01,2013-06-01 19:40:00,
2013-06-01 14:41:00,63.4,58.5,29.48,NNE,22,10.0,14.0,84,0.02,,RA,0.02,VWS V14.01,2013-06-01 19:41:00,
2013-06-01 14:42:00,63.4,58.8,29.48,NNW,348,9.0,14.0,85,0.02,,RA,0.02,VWS V14.01,2013-06-01 19:42:00,
2013-06-01 14:43:00,63.2,58.0,29.48,NNW,334,6.0,14.0,83,0.02,,RA,0.02,VWS V14.01,2013-06-01 19:43:00,
2013-06-01 14:44:00,63.2,58.3,29.48,NNW,332,7.0,14.0,84,0.02,,RA,0.02,VWS V14.01,2013-06-01 19:44:00,
2013-06-01 14:45:00,63.2,58.3,29.49,North,360,9.0,14.0,84,0.02,,RA,0.02,VWS V14.01,2013-06-01 19:45:00,
2013-06-01 14:46:00,63.2,58.3,29.49,NNW,332,5.0,14.0,84,0.02,,RA,0.02,VWS V14.01,2013-06-01 19:46:00,
2013-06-01 14:47:00,63.2,58.3,29.49,North,6,7.0,14.0,84,0.02,,RA,0.02,VWS V14.01,2013-06-01 19:47:00,
2013-06-01 14:48:00,63.2,58.3,29.49,NW,319,1.0,14.0,84,0.02,,RA,0.02,VWS V14.01,2013-06-01 19:48:00,
2013-06-01 14:49:00,63.1,58.2,29.49,NW,310,3.0,14.0,84,0.02,,RA,0.02,VWS V14.01,2013-06-01 19:49:00,
2013-06-01 14:50:00,63.1,58.2,29.49,WNW,297,2.0,14.0,84,0.02,,RA,0.02,VWS V14.01,2013-06-01 19:50:00,
2013-06-01 14:51:00,63.1,58.5,29.49,NNW,329,1.0,14.0,85,0.02,,RA,0.02,VWS V14.01,2013-06-01 19:51:00,
2013-06-01 14:52:00,63.1,58.2,29.49,NE,36,8.0,14.0,84,0.02,,RA,0.02,VWS V14.01,2013-06-01 19:52:00,
2013-06-01 14:53:00,63.1,58.5,29.49,NNE,17,1.0,14.0,85,0.02,,RA,0.02,VWS V14.01,2013-06-01 19:53:00,
2013-06-01 14:54:00,63.1,58.2,29.49,NNW,345,11.0,14.0,84,0.02,,RA,0.02,VWS V14.01,2013-06-01 19:54:00,
2013-06-01 14:55:00,63.1,57.9,29.49,NNE,20,9.0,14.0,83,0.02,,RA,0.02,VWS V14.01,2013-06-01 19:55:00,
2013-06-01 14:56:00,63.1,57.5,29.49,NW,315,6.0,14.0,82,0.02,,RA,0.02,VWS V14.01,2013-06-01 19:56:00,
2013-06-01 14:57:00,63.1,57.9,29.49,NNW,332,10.0,14.0,83,0.02,,RA,0.02,VWS V14.01,2013-06-01 19:57:00,
2013-06-01 14:58:00,63.1,57.2,29.49,North,7,3.0,14.0,81,0.02,,RA,0.02,VWS V14.01,2013-06-01 19:58:00,
2013-06-01 14:59:00,63.1,57.5,29.49,NNE,29,7.0,14.0,82,0.02,,RA,0.02,VWS V14.01,2013-06-01 19:59:00,
2013-06-01 15:00:00,63.2,58.0,29.49,NNE,29,5.0,14.0,83,0.02,,RA,0.02,VWS V14.01,2013-06-01 20:00:00,
2013-06-01 15:01:00,63.2,58.0,29.49,NW,318,0.0,10.0,83,0.02,,RA,0.02,VWS V14.01,2013-06-01 20:01:00,
2013-06-01 15:02:00,63.2,57.6,29.49,NNW,345,5.0,14.0,82,0.02,,RA,0.02,VWS V14.01,2013-06-01 20:02:00,
2013-06-01 15:03:00,63.2,58.0,29.49,NNE,30,17.0,17.0,83,0.02,,RA,0.02,VWS V14.01,2013-06-01 20:03:00,
2013-06-01 15:04:00,63.4,58.2,29.49,NE,34,8.0,17.0,83,0.02,,RA,0.02,VWS V14.01,2013-06-01 20:04:00,
2013-06-01 15:05:00,63.4,58.2,29.49,North,358,9.0,17.0,83,0.02,,RA,0.02,VWS V14.01,2013-06-01 20:05:00,
2013-06-01 15:06:00,63.5,58.2,29.49,North,10,0.0,17.0,83,0.02,,RA,0.02,VWS V14.01,2013-06-01 20:06:00,
2013-06-01 15:07:00,63.5,58.2,29.49,NNE,19,2.0,17.0,83,0.02,,RA,0.02,VWS V14.01,2013-06-01 20:07:00,
2013-06-01 15:08:00,63.7,58.8,29.49,North,353,10.0,17.0,84,0.02,,RA,0.02,VWS V14.01,2013-06-01 20:08:00,
2013-06-01 15:09:00,63.7,58.5,29.49,North,5,2.0,17.0,83,0.02,,RA,0.02,VWS V14.01,2013-06-01 20:09:00,
2013-06-01 15:10:00,63.9,58.6,29.49,NNE,29,13.0,17.0,83,0.02,,RA,0.02,VWS V14.01,2013-06-01 20:10:00,
2013-06-01 15:11:00,63.9,58.6,29.49,NNW,334,5.0,18.0,83,0.02,,RA,0.02,VWS V14.01,2013-06-01 20:11:00,
2013-06-01 15:12:00,64.0,58.7,29.49,NNW,341,2.0,18.0,83,0.02,,RA,0.02,VWS V14.01,2013-06-01 20:12:00,
2013-06-01 15:13:00,64.2,58.9,29.49,NNE,30,10.0,18.0,83,0.02,,RA,0.02,VWS V14.01,2013-06-01 20:13:00,
2013-06-01 15:14:00,64.2,58.9,29.49,NNE,33,2.0,18.0,83,0.02,,RA,0.02,VWS V14.01,2013-06-01 20:14:00,
2013-06-01 15:15:00,64.3,59.0,29.50,NW,315,1.0,18.0,83,0.02,,RA,0.02,VWS V14.01,2013-06-01 20:15:00,
2013-06-01 15:16:00,64.5,59.2,29.50,North,6,8.0,18.0,83,0.02,,RA,0.02,VWS V14.01,2013-06-01 20:16:00,
2013-06-01 15:17:00,64.5,59.2,29.50,NE,41,7.0,18.0,83,0.02,,RA,0.02,VWS V14.01,2013-06-01 20:17:00,
2013-06-01 15:18:00,64.7,59.1,29.50,North,349,6.0,18.0,82,0.02,,RA,0.02,VWS V14.01,2013-06-01 20:18:00,
2013-06-01 15:19:00,64.8,58.8,29.50,NNW,338,3.0,18.0,81,0.02,,RA,0.02,VWS V14.01,2013-06-01 20:19:00,
2013-06-01 15:20:00,65.0,59.0,29.50,North,353,4.0,18.0,81,0.02,,RA,0.02,VWS V14.01,2013-06-01 20:20:00,
2013-06-01 15:21:00,65.0,59.0,29.50,North,352,13.0,18.0,81,0.02,,RA,0.02,VWS V14.01,2013-06-01 20:21:00,
2013-06-01 15:22:00,65.2,58.5,29.50,NNW,339,8.0,18.0,79,0.02,,RA,0.02,VWS V14.01,2013-06-01 20:22:00,
2013-06-01 15:23:00,65.3,58.6,29.50,North,358,3.0,18.0,79,0.02,,RA,0.02,VWS V14.01,2013-06-01 20:23:00,
2013-06-01 15:24:00,65.5,58.8,29.50,NNW,335,8.0,18.0,79,0.02,,RA,0.02,VWS V14.01,2013-06-01 20:24:00,
2013-06-01 15:25:00,65.5,58.8,29.50,NNW,331,11.0,18.0,79,0.02,,RA,0.02,VWS V14.01,2013-06-01 20:25:00,
2013-06-01 15:26:00,65.5,58.5,29.50,NNW,343,13.0,19.0,78,0.02,,RA,0.02,VWS V14.01,2013-06-01 20:26:00,
2013-06-01 15:27:00,65.5,58.1,29.50,NW,307,3.0,19.0,77,0.02,,RA,0.02,VWS V14.01,2013-06-01 20:27:00,
2013-06-01 15:28:00,65.6,58.2,29.50,NNW,331,5.0,19.0,77,0.02,,RA,0.02,VWS V14.01,2013-06-01 20:28:00,
2013-06-01 15:29:00,65.6,58.2,29.50,NW,310,1.0,19.0,77,0.02,,RA,0.02,VWS V14.01,2013-06-01 20:29:00,
2013-06-01 15:30:00,65.6,58.2,29.50,NW,321,4.0,19.0,77,0.02,,RA,0.02,VWS V14.01,2013-06-01 20:30:00,
2013-06-01 15:31:00,65.6,58.2,29.50,NW,318,7.0,11.0,77,0.00,,RA,0.02,VWS V14.01,2013-06-01 20:31:00,
2013-06-01 15:32:00,65.6,58.6,29.50,NNW,329,13.0,19.0,78,0.00,,RA,0.02,VWS V14.01,2013-06-01 20:32:00,
2013-06-01 15:33:00,65.6,58.2,29.50,NNW,336,10.0,19.0,77,0.00,,BKN060,0.02,VWS V14.01,2013-06-01 20:33:00,
2013-06-01 15:34:00,65.5,58.1,29.50,NNE,20,8.0,21.0,77,0.00,,BKN060,0.02,VWS V14.01,2013-06-01 20:34:00,
2013-06-01 15:35:00,65.3,57.9,29.50,NNE,20,8.0,21.0,77,0.00,,BKN060,0.02,VWS V14.01,2013-06-01 20:35:00,
2013-06-01 15:36:00,65.2,57.8,29.50,NNW,335,11.0,21.0,77,0.00,,BKN060,0.02,VWS V14.01,2013-06-01 20:36:00,
2013-06-01 15:37:00,65.0,57.3,29.50,NW,319,1.0,21.0,76,0.00,,BKN060,0.02,VWS V14.01,2013-06-01 20:37:00,
2013-06-01 15:38:00,64.8,57.1,29.50,NNW,342,12.0,21.0,76,0.00,,BKN060,0.02,VWS V14.01,2013-06-01 20:38:00,
2013-06-01 15:39:00,64.7,57.3,29.50,NW,311,2.0,21.0,77,0.00,,BKN060,0.02,VWS V14.01,2013-06-01 20:39:00,
2013-06-01 15:40:00,64.7,57.3,29.50,NNE,17,11.0,21.0,77,0.00,,BKN060,0.02,VWS V14.01,2013-06-01 20:40:00,
2013-06-01 15:41:00,64.5,57.1,29.50,North,10,14.0,21.0,77,0.00,,BKN060,0.02,VWS V14.01,2013-06-01 20:41:00,
2013-06-01 15:42:00,64.5,57.1,29.50,North,3,7.0,24.0,77,0.00,,BKN060,0.02,VWS V14.01,2013-06-01 20:42:00,
2013-06-01 15:43:00,64.3,57.3,29.50,NNW,343,10.0,24.0,78,0.00,,BKN060,0.02,VWS V14.01,2013-06-01 20:43:00,
2013-06-01 15:44:00,64.3,57.3,29.50,North,10,11.0,24.0,78,0.00,,BKN060,0.02,VWS V14.01,2013-06-01 20:44:00,
2013-06-01 15:45:00,64.3,57.3,29.51,NNW,329,5.0,24.0,78,0.00,,BKN060,0.02,VWS V14.01,2013-06-01 20:45:00,
2013-06-01 15:46:00,64.2,57.2,29.51,NW,310,6.0,24.0,78,0.00,,BKN060,0.02,VWS V14.01,2013-06-01 20:46:00,
2013-06-01 15:47:00,64.2,57.6,29.51,NNE,22,14.0,24.0,79,0.00,,BKN060,0.02,VWS V14.01,2013-06-01 20:47:00,
2013-06-01 15:48:00,64.2,57.6,29.51,NNW,338,6.0,24.0,79,0.00,,BKN060,0.02,VWS V14.01,2013-06-01 20:48:00,
2013-06-01 15:49:00,64.0,57.4,29.51,NNE,29,12.0,24.0,79,0.00,,BKN060,0.02,VWS V14.01,2013-06-01 20:49:00,
2013-06-01 15:50:00,64.0,57.4,29.51,NW,326,5.0,24.0,79,0.00,,BKN060,0.02,VWS V14.01,2013-06-01 20:50:00,
2013-06-01 15:51:00,64.0,57.7,29.51,NNW,343,1.0,24.0,80,0.00,,BKN060,0.02,VWS V14.01,2013-06-01 20:51:00,
2013-06-01 15:52:00,63.9,57.6,29.51,WNW,298,5.0,24.0,80,0.00,,BKN060,0.02,VWS V14.01,2013-06-01 20:52:00,
2013-06-01 15:53:00,63.9,58.0,29.51,NW,319,7.0,24.0,81,0.00,,BKN060,0.02,VWS V14.01,2013-06-01 20:53:00,
2013-06-01 15:54:00,63.9,58.0,29.51,North,356,9.0,24.0,81,0.00,,BKN060,0.02,VWS V14.01,2013-06-01 20:54:00,
2013-06-01 15:55:00,63.9,58.0,29.51,North,9,8.0,24.0,81,0.00,,BKN060,0.02,VWS V14.01,2013-06-01 20:55:00,
2013-06-01 15:56:00,63.9,58.0,29.51,NW,326,2.0,24.0,81,0.00,,BKN060,0.02,VWS V14.01,2013-06-01 20:56:00,
2013-06-01 15:57:00,63.9,58.3,29.51,NW,321,6.0,24.0,82,0.00,,BKN060,0.02,VWS V14.01,2013-06-01 20:57:00,
2013-06-01 15:58:00,63.9,58.3,29.51,NNW,345,8.0,24.0,82,0.00,,BKN060,0.02,VWS V14.01,2013-06-01 20:58:00,
2013-06-01 15:59:00,63.9,58.3,29.51,NW,317,3.0,24.0,82,0.00,,BKN060,0.02,VWS V14.01,2013-06-01 20:59:00,
2013-06-01 16:00:00,63.9,58.3,29.51,NNW,338,7.0,24.0,82,0.00,,BKN060,0.02,VWS V14.01,2013-06-01 21:00:00,
2013-06-01 16:01:00,63.9,58.3,29.51,NW,322,1.0,10.0,82,0.00,,BKN060,0.02,VWS V14.01,2013-06-01 21:01:00,
2013-06-01 16:02:00,63.9,58.3,29.51,NNW,336,3.0,13.0,82,0.00,,BKN060,0.02,VWS V14.01,2013-06-01 21:02:00,
2013-06-01 16:03:00,64.0,58.4,29.51,NNE,12,2.0,13.0,82,0.00,,-RA,0.02,VWS V14.01,2013-06-01 21:03:00,
2013-06-01 16:04:00,64.0,58.4,29.51,NNE,31,1.0,13.0,82,0.00,,-RA,0.02,VWS V14.01,2013-06-01 21:04:00,
2013-06-01 16:05:00,64.0,58.4,29.51,NW,318,2.0,13.0,82,0.00,,-RA,0.02,VWS V14.01,2013-06-01 21:05:00,
2013-06-01 16:06:00,64.2,58.6,29.51,NW,325,1.0,13.0,82,0.00,,-RA,0.02,VWS V14.01,2013-06-01 21:06:00,
2013-06-01 16:07:00,64.2,58.6,29.51,NW,304,1.0,13.0,82,0.00,,-RA,0.02,VWS V14.01,2013-06-01 21:07:00,
2013-06-01 16:08:00,64.3,58.7,29.51,NW,325,5.0,13.0,82,0.00,,-RA,0.02,VWS V14.01,2013-06-01 21:08:00,
2013-06-01 16:09:00,64.3,58.0,29.51,WNW,287,4.0,16.0,80,0.00,,-RA,0.02,VWS V14.01,2013-06-01 21:09:00,
2013-06-01 16:10:00,64.5,57.8,29.51,West,270,5.0,16.0,79,0.00,,-RA,0.02,VWS V14.01,2013-06-01 21:10:00,
2013-06-01 16:11:00,64.5,57.1,29.51,West,278,7.0,16.0,77,0.00,,-RA,0.02,VWS V14.01,2013-06-01 21:11:00,
2013-06-01 16:12:00,64.5,57.1,29.51,WNW,288,10.0,16.0,77,0.00,,-RA,0.02,VWS V14.01,2013-06-01 21:12:00,
2013-06-01 16:13:00,64.5,56.4,29.51,NW,312,10.0,19.0,75,0.00,,-RA,0.02,VWS V14.01,2013-06-01 21:13:00,
2013-06-01 16:14:00,64.5,56.4,29.51,NW,304,10.0,19.0,75,0.00,,-RA,0.02,VWS V14.01,2013-06-01 21:14:00,
2013-06-01 16:15:00,64.5,56.4,29.52,North,358,13.0,19.0,75,0.00,,-RA,0.02,VWS V14.01,2013-06-01 21:15:00,
2013-06-01 16:16:00,64.5,56.4,29.52,NW,325,8.0,19.0,75,0.00,,-RA,0.02,VWS V14.01,2013-06-01 21:16:00,
2013-06-01 16:17:00,64.5,56.4,29.52,NW,312,11.0,19.0,75,0.00,,-RA,0.02,VWS V14.01,2013-06-01 21:17:00,
2013-06-01 16:18:00,64.5,56.4,29.52,NW,322,8.0,19.0,75,0.00,,-RA,0.02,VWS V14.01,2013-06-01 21:18:00,
2013-06-01 16:19:00,64.7,56.6,29.52,NE,46,16.0,19.0,75,0.00,,-RA,0.02,VWS V14.01,2013-06-01 21:19:00,
2013-06-01 16:20:00,64.5,56.4,29.52,North,350,21.0,21.0,75,0.00,,-RA,0.02,VWS V14.01,2013-06-01 21:20:00,
2013-06-01 16:21:00,64.5,56.0,29.52,West,277,6.0,21.0,74,0.00,,-RA,0.02,VWS V14.01,2013-06-01 21:21:00,
2013-06-01 16:22:00,64.5,56.0,29.52,NW,319,19.0,24.0,74,0.00,,-RA,0.02,VWS V14.01,2013-06-01 21:22:00,
2013-06-01 16:23:00,64.3,55.8,29.52,WNW,294,11.0,24.0,74,0.00,,-RA,0.02,VWS V14.01,2013-06-01 21:23:00,
2013-06-01 16:24:00,64.3,56.2,29.52,NNE,27,11.0,24.0,75,0.00,,-RA,0.02,VWS V14.01,2013-06-01 21:24:00,
2013-06-01 16:25:00,64.3,56.2,29.52,NW,322,11.0,24.0,75,0.00,,-RA,0.02,VWS V14.01,2013-06-01 21:25:00,
2013-06-01 16:26:00,64.5,56.0,29.52,NW,318,0.0,24.0,74,0.00,,-RA,0.02,VWS V14.01,2013-06-01 21:26:00,
2013-06-01 16:27:00,64.5,56.4,29.52,North,2,8.0,24.0,75,0.00,,-RA,0.02,VWS V14.01,2013-06-01 21:27:00,
2013-06-01 16:28:00,64.7,56.2,29.52,NNW,342,12.0,24.0,74,0.00,,-RA,0.02,VWS V14.01,2013-06-01 21:28:00,
2013-06-01 16:29:00,64.7,55.9,29.52,NNW,334,13.0,25.0,73,0.00,,-RA,0.02,VWS V14.01,2013-06-01 21:29:00,
2013-06-01 16:30:00,64.7,56.2,29.52,NNE,27,19.0,25.0,74,0.00,,-RA,0.02,VWS V14.01,2013-06-01 21:30:00,
2013-06-01 16:31:00,64.5,56.0,29.52,NNE,19,13.0,17.0,74,0.00,,-RA,0.02,VWS V14.01,2013-06-01 21:31:00,
2013-06-01 16:32:00,64.5,56.0,29.52,WNW,283,7.0,17.0,74,0.00,,-RA,0.02,VWS V14.01,2013-06-01 21:32:00,
2013-06-01 16:33:00,64.3,56.2,29.52,NNW,336,7.0,17.0,75,0.00,,BKN030,0.02,VWS V14.01,2013-06-01 21:33:00,
2013-06-01 16:34:00,64.2,56.1,29.52,NNW,335,4.0,17.0,75,0.00,,BKN030,0.02,VWS V14.01,2013-06-01 21:34:00,
2013-06-01 16:35:00,64.2,56.1,29.52,North,5,13.0,17.0,75,0.00,,BKN030,0.02,VWS V14.01,2013-06-01 21:35:00,
2013-06-01 16:36:00,64.0,55.9,29.52,NW,304,9.0,20.0,75,0.00,,BKN030,0.02,VWS V14.01,2013-06-01 21:36:00,
2013-06-01 16:37:00,63.9,55.8,29.52,NW,305,8.0,20.0,75,0.00,,BKN030,0.02,VWS V14.01,2013-06-01 21:37:00,
2013-06-01 16:38:00,63.7,55.3,29.52,NNW,345,13.0,20.0,74,0.00,,BKN030,0.02,VWS V14.01,2013-06-01 21:38:00,
2013-06-01 16:39:00,63.5,55.4,29.52,North,359,17.0,20.0,75,0.00,,BKN030,0.02,VWS V14.01,2013-06-01 21:39:00,
2013-06-01 16:40:00,63.5,55.8,29.52,NW,322,13.0,20.0,76,0.00,,BKN030,0.02,VWS V14.01,2013-06-01 21:40:00,
2013-06-01 16:41:00,63.4,55.0,29.52,North,360,12.0,20.0,74,0.00,,BKN030,0.02,VWS V14.01,2013-06-01 21:41:00,
2013-06-01 16:42:00,63.2,55.2,29.52,North,356,15.0,20.0,75,0.00,,BKN030,0.02,VWS V14.01,2013-06-01 21:42:00,
2013-06-01 16:43:00,63.2,55.2,29.52,NW,325,20.0,20.0,75,0.00,,BKN030,0.02,VWS V14.01,2013-06-01 21:43:00,
2013-06-01 16:44:00,63.2,55.2,29.52,NW,319,6.0,20.0,75,0.00,,BKN030,0.02,VWS V14.01,2013-06-01 21:44:00,
2013-06-01 16:45:00,63.1,55.1,29.54,North,349,16.0,20.0,75,0.00,,BKN030,0.02,VWS V14.01,2013-06-01 21:45:00,
2013-06-01 16:46:00,63.1,54.7,29.54,NE,36,17.0,20.0,74,0.00,,BKN030,0.02,VWS V14.01,2013-06-01 21:46:00,
2013-06-01 16:47:00,62.9,54.9,29.54,NNE,14,14.0,22.0,75,0.00,,BKN030,0.02,VWS V14.01,2013-06-01 21:47:00,
2013-06-01 16:48:00,62.9,54.9,29.54,NW,325,5.0,22.0,75,0.00,,BKN030,0.02,VWS V14.01,2013-06-01 21:48:00,
2013-06-01 16:49:00,62.9,54.9,29.54,NW,326,7.0,22.0,75,0.00,,BKN030,0.02,VWS V14.01,2013-06-01 21:49:00,
2013-06-01 16:50:00,62.9,54.9,29.54,NNW,341,8.0,22.0,75,0.00,,BKN030,0.02,VWS V14.01,2013-06-01 21:50:00,
2013-06-01 16:51:00,62.7,55.0,29.54,North,349,11.0,22.0,76,0.00,,BKN030,0.02,VWS V14.01,2013-06-01 21:51:00,
2013-06-01 16:52:00,62.7,54.7,29.54,NNW,329,14.0,22.0,75,0.00,,BKN030,0.02,VWS V14.01,2013-06-01 21:52:00,
2013-06-01 16:53:00,62.6,54.9,29.54,NNW,328,0.0,22.0,76,0.00,,BKN030,0.02,VWS V14.01,2013-06-01 21:53:00,
2013-06-01 16:54:00,62.4,54.8,29.54,NNW,346,10.0,22.0,76,0.00,,BKN030,0.02,VWS V14.01,2013-06-01 21:54:00,
2013-06-01 16:55:00,62.4,54.4,29.54,NNE,17,18.0,25.0,75,0.00,,BKN030,0.02,VWS V14.01,2013-06-01 21:55:00,
2013-06-01 16:56:00,62.3,54.3,29.54,NNE,31,11.0,25.0,75,0.00,,BKN030,0.02,VWS V14.01,2013-06-01 21:56:00,
2013-06-01 16:57:00,62.3,54.7,29.54,NNW,339,8.0,25.0,76,0.00,,BKN030,0.02,VWS V14.01,2013-06-01 21:57:00,
2013-06-01 16:58:00,62.1,54.1,29.54,North,356,14.0,25.0,75,0.00,,BKN030,0.02,VWS V14.01,2013-06-01 21:58:00,
2013-06-01 16:59:00,62.1,54.5,29.54,NNW,341,10.0,25.0,76,0.00,,BKN030,0.02,VWS V14.01,2013-06-01 21:59:00,
2013-06-01 17:00:00,62.0,54.4,29.55,NW,325,2.0,25.0,76,0.00,,BKN030,0.02,VWS V14.01,2013-06-01 22:00:00,
2013-06-01 17:01:00,61.8,54.2,29.55,NNE,27,6.0,12.0,76,0.00,,BKN030,0.02,VWS V14.01,2013-06-01 22:01:00,
2013-06-01 17:02:00,61.8,54.5,29.55,North,359,11.0,13.0,77,0.00,,BKN030,0.02,VWS V14.01,2013-06-01 22:02:00,
2013-06-01 17:03:00,61.8,54.5,29.55,WNW,295,4.0,13.0,77,0.00,,OVC090,0.02,VWS V14.01,2013-06-01 22:03:00,
2013-06-01 17:04:00,61.6,54.3,29.55,NNW,339,3.0,13.0,77,0.00,,OVC090,0.02,VWS V14.01,2013-06-01 22:04:00,
2013-06-01 17:05:00,61.6,54.3,29.55,NW,305,6.0,18.0,77,0.00,,OVC090,0.02,VWS V14.01,2013-06-01 22:05:00,
2013-06-01 17:06:00,61.6,54.0,29.55,North,356,9.0,18.0,76,0.00,,OVC090,0.02,VWS V14.01,2013-06-01 22:06:00,
2013-06-01 17:07:00,61.5,53.9,29.55,North,5,14.0,20.0,76,0.00,,OVC090,0.02,VWS V14.01,2013-06-01 22:07:00,
2013-06-01 17:08:00,61.5,54.2,29.55,NNW,328,3.0,20.0,77,0.00,,OVC090,0.02,VWS V14.01,2013-06-01 22:08:00,
2013-06-01 17:09:00,61.5,53.9,29.55,NNW,341,11.0,20.0,76,0.00,,OVC090,0.02,VWS V14.01,2013-06-01 22:09:00,
2013-06-01 17:10:00,61.5,54.2,29.55,North,349,12.0,20.0,77,0.00,,OVC090,0.02,VWS V14.01,2013-06-01 22:10:00,
2013-06-01 17:11:00,61.5,53.9,29.55,NNW,334,11.0,20.0,76,0.00,,OVC090,0.02,VWS V14.01,2013-06-01 22:11:00,
2013-06-01 17:12:00,61.5,53.9,29.55,NNE,22,18.0,20.0,76,0.00,,OVC090,0.02,VWS V14.01,2013-06-01 22:12:00,
2013-06-01 17:13:00,61.6,54.0,29.55,North,355,11.0,20.0,76,0.00,,OVC090,0.02,VWS V14.01,2013-06-01 22:13:00,
2013-06-01 17:14:00,61.6,54.0,29.55,NE,36,18.0,20.0,76,0.00,,OVC090,0.02,VWS V14.01,2013-06-01 22:14:00,
2013-06-01 17:15:00,61.6,54.0,29.56,North,355,14.0,20.0,76,0.00,,OVC090,0.02,VWS V14.01,2013-06-01 22:15:00,
2013-06-01 17:16:00,61.6,53.6,29.56,NNE,27,9.0,20.0,75,0.00,,OVC090,0.02,VWS V14.01,2013-06-01 22:16:00,
2013-06-01 17:17:00,61.6,53.6,29.56,NW,308,16.0,20.0,75,0.00,,OVC090,0.02,VWS V14.01,2013-06-01 22:17:00,
2013-06-01 17:18:00,61.6,53.2,29.56,NW,317,0.0,20.0,74,0.00,,OVC090,0.02,VWS V14.01,2013-06-01 22:18:00,
2013-06-01 17:19:00,61.6,53.6,29.56,NNW,343,2.0,20.0,75,0.00,,OVC090,0.02,VWS V14.01,2013-06-01 22:19:00,
2013-06-01 17:20:00,61.6,53.6,29.56,NW,312,14.0,20.0,75,0.00,,OVC090,0.02,VWS V14.01,2013-06-01 22:20:00,
2013-06-01 17:21:00,61.6,53.6,29.56,NW,310,1.0,20.0,75,0.00,,OVC090,0.02,VWS V14.01,2013-06-01 22:21:00,
2013-06-01 17:22:00,61.6,53.6,29.56,NNE,29,14.0,21.0,75,0.00,,OVC090,0.02,VWS V14.01,2013-06-01 22:22:00,
2013-06-01 17:23:00,61.5,53.2,29.56,NE,34,13.0,21.0,74,0.00,,OVC090,0.02,VWS V14.01,2013-06-01 22:23:00,
2013-06-01 17:24:00,61.5,53.5,29.56,NNW,339,16.0,21.0,75,0.00,,OVC090,0.02,VWS V14.01,2013-06-01 22:24:00,
2013-06-01 17:25:00,61.5,53.2,29.56,NW,319,9.0,21.0,74,0.00,,OVC090,0.02,VWS V14.01,2013-06-01 22:25:00,
2013-06-01 17:26:00,61.3,53.3,29.56,NW,312,5.0,21.0,75,0.00,,OVC090,0.02,VWS V14.01,2013-06-01 22:26:00,
2013-06-01 17:27:00,61.3,53.0,29.56,NNE,27,10.0,21.0,74,0.00,,OVC090,0.02,VWS V14.01,2013-06-01 22:27:00,
2013-06-01 17:28:00,61.3,53.0,29.56,NNW,331,15.0,21.0,74,0.00,,OVC090,0.02,VWS V14.01,2013-06-01 22:28:00,
2013-06-01 17:29:00,61.2,52.9,29.56,North,356,11.0,21.0,74,0.00,,OVC090,0.02,VWS V14.01,2013-06-01 22:29:00,
2013-06-01 17:30:00,61.2,52.9,29.56,NW,317,7.0,21.0,74,0.00,,OVC090,0.02,VWS V14.01,2013-06-01 22:30:00,
2013-06-01 17:31:00,61.0,53.0,29.56,NW,326,7.0,13.0,75,0.00,,OVC090,0.02,VWS V14.01,2013-06-01 22:31:00,
2013-06-01 17:32:00,61.0,53.0,29.56,NW,304,5.0,13.0,75,0.00,,OVC090,0.02,VWS V14.01,2013-06-01 22:32:00,
2013-06-01 17:33:00,61.0,53.0,29.56,NNE,12,13.0,19.0,75,0.00,,OVC023,0.02,VWS V14.01,2013-06-01 22:33:00,
2013-06-01 17:34:00,60.9,52.6,29.56,North,10,17.0,21.0,74,0.00,,OVC023,0.02,VWS V14.01,2013-06-01 22:34:00,
2013-06-01 17:35:00,60.9,52.6,29.56,NNE,13,13.0,21.0,74,0.00,,OVC023,0.02,VWS V14.01,2013-06-01 22:35:00,
2013-06-01 17:36:00,60.9,52.9,29.56,North,356,19.0,21.0,75,0.00,,OVC023,0.02,VWS V14.01,2013-06-01 22:36:00,
2013-06-01 17:37:00,60.7,52.4,29.56,NNW,345,8.0,21.0,74,0.00,,OVC023,0.02,VWS V14.01,2013-06-01 22:37:00,
2013-06-01 17:38:00,60.7,52.4,29.56,NNW,328,11.0,21.0,74,0.00,,OVC023,0.02,VWS V14.01,2013-06-01 22:38:00,
2013-06-01 17:39:00,60.7,52.7,29.56,WNW,291,2.0,21.0,75,0.00,,OVC023,0.02,VWS V14.01,2013-06-01 22:39:00,
2013-06-01 17:40:00,60.7,52.7,29.56,NW,312,4.0,21.0,75,0.00,,OVC023,0.02,VWS V14.01,2013-06-01 22:40:00,
2013-06-01 17:41:00,60.7,52.7,29.56,NW,314,11.0,21.0,75,0.00,,OVC023,0.02,VWS V14.01,2013-06-01 22:41:00,
2013-06-01 17:42:00,60.5,52.5,29.56,NNW,335,1.0,21.0,75,0.00,,OVC023,0.02,VWS V14.01,2013-06-01 22:42:00,
2013-06-01 17:43:00,60.5,52.5,29.56,WNW,295,5.0,21.0,75,0.00,,OVC023,0.02,VWS V14.01,2013-06-01 22:43:00,
2013-06-01 17:44:00,60.5,52.5,29.56,WNW,294,0.0,21.0,75,0.00,,OVC023,0.02,VWS V14.01,2013-06-01 22:44:00,
2013-06-01 17:45:00,60.5,52.5,29.57,NW,308,3.0,21.0,75,0.00,,OVC023,0.02,VWS V14.01,2013-06-01 22:45:00,
2013-06-01 17:46:00,60.4,52.5,29.57,NW,322,10.0,21.0,75,0.00,,OVC023,0.02,VWS V14.01,2013-06-01 22:46:00,
2013-06-01 17:47:00,60.4,52.5,29.57,WNW,297,1.0,21.0,75,0.00,,OVC023,0.02,VWS V14.01,2013-06-01 22:47:00,
2013-06-01 17:48:00,60.4,52.5,29.57,NNW,335,9.0,21.0,75,0.00,,OVC023,0.02,VWS V14.01,2013-06-01 22:48:00,
2013-06-01 17:49:00,60.2,52.3,29.57,WNW,301,4.0,21.0,75,0.00,,OVC023,0.02,VWS V14.01,2013-06-01 22:49:00,
2013-06-01 17:50:00,60.2,52.3,29.57,NW,304,3.0,21.0,75,0.00,,OVC023,0.02,VWS V14.01,2013-06-01 22:50:00,
2013-06-01 17:51:00,60.2,52.6,29.57,North,352,10.0,21.0,76,0.00,,OVC023,0.02,VWS V14.01,2013-06-01 22:51:00,
2013-06-01 17:52:00,60.1,52.5,29.57,NE,46,14.0,21.0,76,0.00,,OVC023,0.02,VWS V14.01,2013-06-01 22:52:00,
2013-06-01 17:53:00,60.1,52.5,29.57,North,3,12.0,21.0,76,0.00,,OVC023,0.02,VWS V14.01,2013-06-01 22:53:00,
2013-06-01 17:54:00,60.1,52.2,29.57,North,10,0.0,21.0,75,0.00,,OVC023,0.02,VWS V14.01,2013-06-01 22:54:00,
2013-06-01 17:55:00,59.9,52.0,29.57,NNW,339,16.0,21.0,75,0.00,,OVC023,0.02,VWS V14.01,2013-06-01 22:55:00,
2013-06-01 17:56:00,59.9,52.0,29.57,NNW,331,2.0,21.0,75,0.00,,OVC023,0.02,VWS V14.01,2013-06-01 22:56:00,
2013-06-01 17:57:00,59.8,51.9,29.57,NNE,19,12.0,21.0,75,0.00,,OVC023,0.02,VWS V14.01,2013-06-01 22:57:00,
2013-06-01 17:58:00,59.8,51.9,29.57,NNE,27,14.0,21.0,75,0.00,,OVC023,0.02,VWS V14.01,2013-06-01 22:58:00,
2013-06-01 17:59:00,59.6,51.7,29.57,North,7,5.0,21.0,75,0.00,,OVC023,0.02,VWS V14.01,2013-06-01 22:59:00,
2013-06-01 18:00:00,59.6,51.7,29.58,NNW,335,7.0,21.0,75,0.00,,OVC023,0.02,VWS V14.01,2013-06-01 23:00:00,
2013-06-01 18:01:00,59.5,51.6,29.58,NW,317,8.0,20.0,75,0.00,,OVC023,0.02,VWS V14.01,2013-06-01 23:01:00,
2013-06-01 18:02:00,59.5,51.6,29.58,NW,310,7.0,20.0,75,0.00,,OVC023,0.02,VWS V14.01,2013-06-01 23:02:00,
2013-06-01 18:03:00,59.5,51.6,29.58,North,355,21.0,21.0,75,0.00,,OVC023,0.02,VWS V14.01,2013-06-01 23:03:00,
2013-06-01 18:04:00,59.3,51.4,29.58,NW,310,8.0,21.0,75,0.00,,OVC023,0.02,VWS V14.01,2013-06-01 23:04:00,
2013-06-01 18:05:00,59.3,51.4,29.58,North,352,12.0,21.0,75,0.00,,OVC023,0.02,VWS V14.01,2013-06-01 23:05:00,
2013-06-01 18:06:00,59.3,51.8,29.58,North,2,7.0,21.0,76,0.00,,OVC023,0.02,VWS V14.01,2013-06-01 23:06:00,
2013-06-01 18:07:00,59.3,51.8,29.58,NNE,13,8.0,21.0,76,0.00,,OVC023,0.02,VWS V14.01,2013-06-01 23:07:00,
2013-06-01 18:08:00,59.2,51.7,29.58,NNW,339,2.0,21.0,76,0.00,,OVC023,0.02,VWS V14.01,2013-06-01 23:08:00,
2013-06-01 18:09:00,59.2,51.7,29.58,NNW,328,1.0,21.0,76,0.00,,OVC023,0.02,VWS V14.01,2013-06-01 23:09:00,
2013-06-01 18:10:00,59.2,51.7,29.58,NNE,19,1.0,21.0,76,0.00,,OVC023,0.02,VWS V14.01,2013-06-01 23:10:00,
2013-06-01 18:11:00,59.2,51.7,29.58,NW,312,3.0,21.0,76,0.00,,OVC023,0.02,VWS V14.01,2013-06-01 23:11:00,
2013-06-01 18:12:00,59.0,51.5,29.58,North,358,12.0,21.0,76,0.00,,OVC023,0.02,VWS V14.01,2013-06-01 23:12:00,
2013-06-01 18:13:00,59.0,51.5,29.58,NE,38,16.0,21.0,76,0.00,,OVC023,0.02,VWS V14.01,2013-06-01 23:13:00,
2013-06-01 18:14:00,58.9,51.4,29.58,NNE,24,10.0,21.0,76,0.00,,OVC023,0.02,VWS V14.01,2013-06-01 23:14:00,
2013-06-01 18:15:00,58.9,51.4,29.59,North,350,11.0,21.0,76,0.00,,OVC023,0.02,VWS V14.01,2013-06-01 23:15:00,
2013-06-01 18:16:00,58.9,51.4,29.59,NW,319,5.0,21.0,76,0.00,,OVC023,0.02,VWS V14.01,2013-06-01 23:16:00,
2013-06-01 18:17:00,58.9,51.4,29.59,NW,304,8.0,21.0,76,0.00,,OVC023,0.02,VWS V14.01,2013-06-01 23:17:00,
2013-06-01 18:18:00,58.7,51.2,29.59,NW,311,6.0,21.0,76,0.00,,OVC023,0.02,VWS V14.01,2013-06-01 23:18:00,
2013-06-01 18:19:00,58.7,51.2,29.59,North,10,3.0,21.0,76,0.00,,OVC023,0.02,VWS V14.01,2013-06-01 23:19:00,
2013-06-01 18:20:00,58.7,51.2,29.59,North,360,18.0,21.0,76,0.00,,OVC023,0.02,VWS V14.01,2013-06-01 23:20:00,
2013-06-01 18:21:00,58.7,50.8,29.59,NNE,27,21.0,21.0,75,0.00,,OVC023,0.02,VWS V14.01,2013-06-01 23:21:00,
2013-06-01 18:22:00,58.6,51.1,29.59,WNW,291,12.0,21.0,76,0.00,,OVC023,0.02,VWS V14.01,2013-06-01 23:22:00,
2013-06-01 18:23:00,58.6,51.1,29.59,North,358,1.0,21.0,76,0.00,,OVC023,0.02,VWS V14.01,2013-06-01 23:23:00,
2013-06-01 18:24:00,58.6,51.1,29.59,NE,51,13.0,21.0,76,0.00,,OVC023,0.02,VWS V14.01,2013-06-01 23:24:00,
2013-06-01 18:25:00,58.4,50.9,29.59,NNE,26,15.0,21.0,76,0.00,,OVC023,0.02,VWS V14.01,2013-06-01 23:25:00,
2013-06-01 18:26:00,58.4,50.5,29.59,NE,46,15.0,21.0,75,0.00,,OVC023,0.02,VWS V14.01,2013-06-01 23:26:00,
2013-06-01 18:27:00,58.3,50.8,29.59,NNW,345,13.0,21.0,76,0.00,,OVC023,0.02,VWS V14.01,2013-06-01 23:27:00,
2013-06-01 18:28:00,58.3,50.4,29.59,NNW,342,3.0,21.0,75,0.00,,OVC023,0.02,VWS V14.01,2013-06-01 23:28:00,
2013-06-01 18:29:00,58.3,50.8,29.59,NNW,335,12.0,21.0,76,0.00,,OVC023,0.02,VWS V14.01,2013-06-01 23:29:00,
2013-06-01 18:30:00,58.3,50.8,29.60,North,360,1.0,21.0,76,0.00,,OVC023,0.02,VWS V14.01,2013-06-01 23:30:00,
2013-06-01 18:31:00,58.1,50.6,29.60,North,2,9.0,11.0,76,0.00,,OVC023,0.02,VWS V14.01,2013-06-01 23:31:00,
2013-06-01 18:32:00,58.1,50.6,29.60,NE,41,9.0,12.0,76,0.00,,OVC023,0.02,VWS V14.01,2013-06-01 23:32:00,
2013-06-01 18:33:00,58.1,50.6,29.60,NNE,24,12.0,13.0,76,0.00,,OVC023,0.02,VWS V14.01,2013-06-01 23:33:00,
2013-06-01 18:34:00,58.1,50.6,29.60,North,2,6.0,18.0,76,0.00,,OVC023,0.02,VWS V14.01,2013-06-01 23:34:00,
2013-06-01 18:35:00,58.1,50.6,29.60,North,2,6.0,18.0,76,0.00,,OVC023,0.02,VWS V14.01,2013-06-01 23:35:00,
2013-06-01 18:36:00,58.0,50.5,29.60,North,350,10.0,18.0,76,0.00,,OVC023,0.02,VWS V14.01,2013-06-01 23:36:00,
2013-06-01 18:37:00,58.0,50.5,29.60,North,9,13.0,18.0,76,0.00,,OVC023,0.02,VWS V14.01,2013-06-01 23:37:00,
2013-06-01 18:38:00,58.0,50.5,29.60,North,2,8.0,18.0,76,0.00,,OVC023,0.02,VWS V14.01,2013-06-01 23:38:00,
2013-06-01 18:39:00,58.0,50.5,29.60,North,353,4.0,18.0,76,0.00,,OVC023,0.02,VWS V14.01,2013-06-01 23:39:00,
2013-06-01 18:40:00,57.8,50.3,29.60,North,3,6.0,18.0,76,0.00,,OVC023,0.02,VWS V14.01,2013-06-01 23:40:00,
2013-06-01 18:41:00,57.8,50.3,29.60,NNE,16,5.0,18.0,76,0.00,,OVC023,0.02,VWS V14.01,2013-06-01 23:41:00,
2013-06-01 18:42:00,57.8,50.3,29.60,North,10,7.0,18.0,76,0.00,,OVC023,0.02,VWS V14.01,2013-06-01 23:42:00,
2013-06-01 18:43:00,57.8,49.9,29.60,NNE,12,8.0,18.0,75,0.00,,OVC023,0.02,VWS V14.01,2013-06-01 23:43:00,
2013-06-01 18:44:00,57.6,50.1,29.60,NNE,24,17.0,18.0,76,0.00,,OVC023,0.02,VWS V14.01,2013-06-01 23:44:00,
2013-06-01 18:45:00,57.6,49.8,29.61,WNW,294,6.0,19.0,75,0.00,,OVC023,0.02,VWS V14.01,2013-06-01 23:45:00,
2013-06-01 18:46:00,57.5,49.7,29.61,NW,310,12.0,19.0,75,0.00,,OVC023,0.02,VWS V14.01,2013-06-01 23:46:00,
2013-06-01 18:47:00,57.5,49.7,29.61,NE,34,12.0,22.0,75,0.00,,OVC023,0.02,VWS V14.01,2013-06-01 23:47:00,
2013-06-01 18:48:00,57.5,49.7,29.61,NW,326,6.0,22.0,75,0.00,,OVC023,0.02,VWS V14.01,2013-06-01 23:48:00,
2013-06-01 18:49:00,57.3,49.5,29.61,North,352,2.0,22.0,75,0.00,,OVC023,0.02,VWS V14.01,2013-06-01 23:49:00,
2013-06-01 18:50:00,57.3,49.5,29.61,NNE,30,16.0,22.0,75,0.00,,OVC023,0.02,VWS V14.01,2013-06-01 23:50:00,
2013-06-01 18:51:00,57.3,49.5,29.61,NNW,332,5.0,22.0,75,0.00,,OVC023,0.02,VWS V14.01,2013-06-01 23:51:00,
2013-06-01 18:52:00,57.3,49.5,29.61,NNW,346,0.0,22.0,75,0.00,,OVC023,0.02,VWS V14.01,2013-06-01 23:52:00,
2013-06-01 18:53:00,57.3,49.8,29.61,NE,40,12.0,22.0,76,0.00,,OVC023,0.02,VWS V14.01,2013-06-01 23:53:00,
2013-06-01 18:54:00,57.2,49.7,29.61,North,356,10.0,22.0,76,0.00,,OVC023,0.02,VWS V14.01,2013-06-01 23:54:00,
2013-06-01 18:55:00,57.2,49.4,29.61,North,349,9.0,22.0,75,0.00,,OVC023,0.02,VWS V14.01,2013-06-01 23:55:00,
2013-06-01 18:56:00,57.2,49.4,29.61,NNE,30,25.0,25.0,75,0.00,,OVC023,0.02,VWS V14.01,2013-06-01 23:56:00,
2013-06-01 18:57:00,57.0,49.2,29.61,North,353,11.0,25.0,75,0.00,,OVC023,0.02,VWS V14.01,2013-06-01 23:57:00,
2013-06-01 18:58:00,57.0,48.8,29.61,WNW,288,7.0,25.0,74,0.00,,OVC023,0.02,VWS V14.01,2013-06-01 23:58:00,
2013-06-01 18:59:00,56.9,48.7,29.61,North,3,14.0,25.0,74,0.00,,OVC023,0.02,VWS V14.01,2013-06-01 23:59:00,
2013-06-01 19:00:00,56.9,48.7,29.62,NNE,22,10.0,25.0,74,0.00,,OVC023,0.02,VWS V14.01,2013-06-02 00:00:00,
2013-06-01 19:01:00,56.9,48.7,29.62,NNW,341,16.0,16.0,74,0.00,,OVC023,0.02,VWS V14.01,2013-06-02 00:01:00,
2013-06-01 19:02:00,56.7,48.5,29.62,WNW,295,11.0,18.0,74,0.00,,OVC023,0.02,VWS V14.01,2013-06-02 00:02:00,
2013-06-01 19:03:00,56.7,48.5,29.62,ENE,58,12.0,18.0,74,0.00,,OVC023,0.02,VWS V14.01,2013-06-02 00:03:00,
2013-06-01 19:04:00,56.6,48.4,29.62,WNW,287,10.0,18.0,74,0.00,,OVC023,0.02,VWS V14.01,2013-06-02 00:04:00,
2013-06-01 19:05:00,56.6,48.4,29.62,NW,326,5.0,18.0,74,0.00,,OVC023,0.02,VWS V14.01,2013-06-02 00:05:00,
2013-06-01 19:06:00,56.5,48.3,29.62,NNW,329,2.0,20.0,74,0.00,,OVC023,0.02,VWS V14.01,2013-06-02 00:06:00,
2013-06-01 19:07:00,56.5,48.3,29.62,North,359,6.0,20.0,74,0.00,,OVC023,0.02,VWS V14.01,2013-06-02 00:07:00,
2013-06-01 19:08:00,56.3,48.1,29.62,NW,305,6.0,20.0,74,0.00,,OVC023,0.02,VWS V14.01,2013-06-02 00:08:00,
2013-06-01 19:09:00,56.3,48.1,29.62,NW,308,2.0,20.0,74,0.00,,OVC023,0.02,VWS V14.01,2013-06-02 00:09:00,
2013-06-01 19:10:00,56.3,48.1,29.62,NNE,30,13.0,20.0,74,0.00,,OVC023,0.02,VWS V14.01,2013-06-02 00:10:00,
2013-06-01 19:11:00,56.3,48.1,29.62,NW,322,12.0,20.0,74,0.00,,OVC023,0.02,VWS V14.01,2013-06-02 00:11:00,
2013-06-01 19:12:00,56.2,48.0,29.62,NNW,328,21.0,21.0,74,0.00,,OVC023,0.02,VWS V14.01,2013-06-02 00:12:00,
2013-06-01 19:13:00,56.2,47.7,29.62,NNE,27,11.0,24.0,73,0.00,,OVC023,0.02,VWS V14.01,2013-06-02 00:13:00,
2013-06-01 19:14:00,56.0,47.5,29.62,NW,319,8.0,24.0,73,0.00,,OVC023,0.02,VWS V14.01,2013-06-02 00:14:00,
2013-06-01 19:15:00,56.0,47.5,29.63,NW,325,13.0,24.0,73,0.00,,OVC023,0.02,VWS V14.01,2013-06-02 00:15:00,
2013-06-01 19:16:00,56.0,47.5,29.63,ENE,65,10.0,24.0,73,0.00,,OVC023,0.02,VWS V14.01,2013-06-02 00:16:00,
2013-06-01 19:17:00,55.9,47.4,29.63,NW,317,10.0,24.0,73,0.00,,OVC023,0.02,VWS V14.01,2013-06-02 00:17:00,
2013-06-01 19:18:00,55.9,47.4,29.63,NNW,348,10.0,24.0,73,0.00,,OVC023,0.02,VWS V14.01,2013-06-02 00:18:00,
2013-06-01 19:19:00,55.9,47.4,29.63,NW,315,1.0,24.0,73,0.00,,OVC023,0.02,VWS V14.01,2013-06-02 00:19:00,
2013-06-01 19:20:00,55.7,47.5,29.63,North,3,12.0,24.0,74,0.00,,OVC023,0.02,VWS V14.01,2013-06-02 00:20:00,
2013-06-01 19:21:00,55.7,47.2,29.63,NNE,24,8.0,24.0,73,0.00,,OVC023,0.02,VWS V14.01,2013-06-02 00:21:00,
2013-06-01 19:22:00,55.7,47.2,29.63,NNW,328,5.0,24.0,73,0.00,,OVC023,0.02,VWS V14.01,2013-06-02 00:22:00,
2013-06-01 19:23:00,55.6,47.1,29.63,NNE,26,20.0,24.0,73,0.00,,OVC023,0.02,VWS V14.01,2013-06-02 00:23:00,
2013-06-01 19:24:00,55.6,47.1,29.63,NW,315,12.0,24.0,73,0.00,,OVC023,0.02,VWS V14.01,2013-06-02 00:24:00,
2013-06-01 19:25:00,55.6,47.1,29.63,WNW,295,8.0,24.0,73,0.00,,OVC023,0.02,VWS V14.01,2013-06-02 00:25:00,
2013-06-01 19:26:00,55.6,47.1,29.63,NW,308,2.0,24.0,73,0.00,,OVC023,0.02,VWS V14.01,2013-06-02 00:26:00,
2013-06-01 19:27:00,55.4,47.3,29.63,NNE,17,17.0,24.0,74,0.00,,OVC023,0.02,VWS V14.01,2013-06-02 00:27:00,
2013-06-01 19:28:00,55.4,46.9,29.63,North,2,17.0,24.0,73,0.00,,OVC023,0.02,VWS V14.01,2013-06-02 00:28:00,
2013-06-01 19:29:00,55.3,46.8,29.63,NNW,328,16.0,24.0,73,0.00,,OVC023,0.02,VWS V14.01,2013-06-02 00:29:00,
2013-06-01 19:30:00,55.3,46.8,29.64,NW,321,12.0,24.0,73,0.00,,OVC023,0.02,VWS V14.01,2013-06-02 00:30:00,
2013-06-01 19:31:00,55.3,46.8,29.64,NW,322,3.0,12.0,73,0.00,,OVC023,0.02,VWS V14.01,2013-06-02 00:31:00,
2013-06-01 19:32:00,55.1,46.6,29.64,North,359,12.0,19.0,73,0.00,,OVC023,0.02,VWS V14.01,2013-06-02 00:32:00,
2013-06-01 19:33:00,55.1,46.6,29.64,NNW,338,8.0,19.0,73,0.00,,OVC021,0.02,VWS V14.01,2013-06-02 00:33:00,
2013-06-01 19:34:00,55.1,46.6,29.64,NNW,335,12.0,19.0,73,0.00,,OVC021,0.02,VWS V14.01,2013-06-02 00:34:00,
2013-06-01 19:35:00,55.0,46.5,29.64,NW,321,3.0,19.0,73,0.00,,OVC021,0.02,VWS V14.01,2013-06-02 00:35:00,
2013-06-01 19:36:00,55.0,46.5,29.64,NW,311,8.0,19.0,73,0.00,,OVC021,0.02,VWS V14.01,2013-06-02 00:36:00,
2013-06-01 19:37:00,55.0,46.2,29.64,NW,325,6.0,19.0,72,0.00,,OVC021,0.02,VWS V14.01,2013-06-02 00:37:00,
2013-06-01 19:38:00,54.8,46.0,29.64,NW,326,12.0,19.0,72,0.00,,OVC021,0.02,VWS V14.01,2013-06-02 00:38:00,
2013-06-01 19:39:00,54.8,46.0,29.64,WNW,290,6.0,19.0,72,0.00,,OVC021,0.02,VWS V14.01,2013-06-02 00:39:00,
2013-06-01 19:40:00,54.8,46.0,29.64,NE,34,12.0,19.0,72,0.00,,OVC021,0.02,VWS V14.01,2013-06-02 00:40:00,
2013-06-01 19:41:00,54.7,45.9,29.64,NNW,336,14.0,19.0,72,0.00,,OVC021,0.02,VWS V14.01,2013-06-02 00:41:00,
2013-06-01 19:42:00,54.7,45.9,29.64,NNW,348,10.0,19.0,72,0.00,,OVC021,0.02,VWS V14.01,2013-06-02 00:42:00,
2013-06-01 19:43:00,54.7,45.9,29.64,North,7,11.0,19.0,72,0.00,,OVC021,0.02,VWS V14.01,2013-06-02 00:43:00,
2013-06-01 19:44:00,54.5,45.7,29.64,NW,314,7.0,19.0,72,0.00,,OVC021,0.02,VWS V14.01,2013-06-02 00:44:00,
2013-06-01 19:45:00,54.5,45.7,29.66,NW,310,11.0,19.0,72,0.00,,OVC021,0.02,VWS V14.01,2013-06-02 00:45:00,
2013-06-01 19:46:00,54.5,46.0,29.66,NNE,29,10.0,19.0,73,0.00,,OVC021,0.02,VWS V14.01,2013-06-02 00:46:00,
2013-06-01 19:47:00,54.4,45.6,29.66,NE,41,11.0,19.0,72,0.00,,OVC021,0.02,VWS V14.01,2013-06-02 00:47:00,
2013-06-01 19:48:00,54.4,45.9,29.66,NNE,23,12.0,19.0,73,0.00,,OVC021,0.02,VWS V14.01,2013-06-02 00:48:00,
2013-06-01 19:49:00,54.2,45.8,29.66,NW,321,15.0,19.0,73,0.00,,OVC021,0.02,VWS V14.01,2013-06-02 00:49:00,
2013-06-01 19:50:00,54.2,45.4,29.66,NW,318,12.0,26.0,72,0.00,,OVC021,0.02,VWS V14.01,2013-06-02 00:50:00,
2013-06-01 19:51:00,54.1,45.3,29.66,NW,317,7.0,26.0,72,0.00,,OVC021,0.02,VWS V14.01,2013-06-02 00:51:00,
2013-06-01 19:52:00,54.1,45.7,29.66,NNW,336,7.0,26.0,73,0.00,,OVC021,0.02,VWS V14.01,2013-06-02 00:52:00,
2013-06-01 19:53:00,53.9,45.1,29.66,North,352,7.0,26.0,72,0.00,,OVC021,0.02,VWS V14.01,2013-06-02 00:53:00,
2013-06-01 19:54:00,53.9,45.1,29.66,NW,324,3.0,26.0,72,0.00,,OVC021,0.02,VWS V14.01,2013-06-02 00:54:00,
2013-06-01 19:55:00,53.8,45.0,29.66,NNW,332,11.0,26.0,72,0.00,,OVC021,0.02,VWS V14.01,2013-06-02 00:55:00,
2013-06-01 19:56:00,53.8,45.0,29.66,NNW,345,10.0,26.0,72,0.00,,OVC021,0.02,VWS V14.01,2013-06-02 00:56:00,
2013-06-01 19:57:00,53.6,44.8,29.66,NNE,16,21.0,26.0,72,0.00,,OVC021,0.02,VWS V14.01,2013-06-02 00:57:00,
2013-06-01 19:58:00,53.6,44.8,29.66,NNE,26,11.0,26.0,72,0.00,,OVC021,0.02,VWS V14.01,2013-06-02 00:58:00,
2013-06-01 19:59:00,53.6,44.8,29.66,NW,325,2.0,26.0,72,0.00,,OVC021,0.02,VWS V14.01,2013-06-02 00:59:00,
2013-06-01 20:00:00,53.5,45.1,29.66,NNW,331,3.0,26.0,73,0.00,,OVC021,0.02,VWS V14.01,2013-06-02 01:00:00,
2013-06-01 20:01:00,53.5,45.1,29.66,NW,314,6.0,13.0,73,0.00,,OVC021,0.02,VWS V14.01,2013-06-02 01:01:00,
2013-06-01 20:02:00,53.5,44.7,29.66,North,5,10.0,16.0,72,0.00,,OVC021,0.02,VWS V14.01,2013-06-02 01:02:00,
2013-06-01 20:03:00,53.3,44.9,29.66,NNW,339,11.0,17.0,73,0.00,,OVC021,0.02,VWS V14.01,2013-06-02 01:03:00,
2013-06-01 20:04:00,53.3,44.9,29.66,NNW,335,7.0,17.0,73,0.00,,OVC021,0.02,VWS V14.01,2013-06-02 01:04:00,
2013-06-01 20:05:00,53.3,44.9,29.66,NE,40,14.0,21.0,73,0.00,,OVC021,0.02,VWS V14.01,2013-06-02 01:05:00,
2013-06-01 20:06:00,53.3,44.9,29.66,West,280,1.0,21.0,73,0.00,,OVC021,0.02,VWS V14.01,2013-06-02 01:06:00,
2013-06-01 20:07:00,53.3,44.9,29.66,NW,326,8.0,21.0,73,0.00,,OVC021,0.02,VWS V14.01,2013-06-02 01:07:00,
2013-06-01 20:08:00,53.3,45.2,29.66,NW,324,7.0,21.0,74,0.00,,OVC021,0.02,VWS V14.01,2013-06-02 01:08:00,
2013-06-01 20:09:00,53.2,44.8,29.66,North,5,14.0,21.0,73,0.00,,OVC021,0.02,VWS V14.01,2013-06-02 01:09:00,
2013-06-01 20:10:00,53.2,45.1,29.66,NNE,27,24.0,26.0,74,0.00,,OVC021,0.02,VWS V14.01,2013-06-02 01:10:00,
2013-06-01 20:11:00,53.2,44.8,29.66,NNE,14,12.0,26.0,73,0.00,,OVC021,0.02,VWS V14.01,2013-06-02 01:11:00,
2013-06-01 20:12:00,53.2,44.8,29.66,NW,319,10.0,26.0,73,0.00,,OVC021,0.02,VWS V14.01,2013-06-02 01:12:00,
2013-06-01 20:13:00,53.2,44.8,29.66,WNW,288,9.0,26.0,73,0.00,,OVC021,0.02,VWS V14.01,2013-06-02 01:13:00,
2013-06-01 20:14:00,53.1,44.7,29.66,North,350,12.0,26.0,73,0.00,,OVC021,0.02,VWS V14.01,2013-06-02 01:14:00,
2013-06-01 20:15:00,53.1,44.7,29.67,NNW,331,7.0,26.0,73,0.00,,OVC021,0.02,VWS V14.01,2013-06-02 01:15:00,
2013-06-01 20:16:00,53.1,44.7,29.67,North,355,12.0,26.0,73,0.00,,OVC021,0.02,VWS V14.01,2013-06-02 01:16:00,
2013-06-01 20:17:00,52.9,44.5,29.67,North,355,19.0,26.0,73,0.00,,OVC021,0.02,VWS V14.01,2013-06-02 01:17:00,
2013-06-01 20:18:00,52.9,44.8,29.67,NNW,334,5.0,26.0,74,0.00,,OVC021,0.02,VWS V14.01,2013-06-02 01:18:00,
2013-06-01 20:19:00,52.9,44.5,29.67,NE,41,12.0,26.0,73,0.00,,OVC021,0.02,VWS V14.01,2013-06-02 01:19:00,
2013-06-01 20:20:00,52.8,44.4,29.67,WNW,294,1.0,26.0,73,0.00,,OVC021,0.02,VWS V14.01,2013-06-02 01:20:00,
2013-06-01 20:21:00,52.8,44.4,29.67,NNW,339,17.0,26.0,73,0.00,,OVC021,0.02,VWS V14.01,2013-06-02 01:21:00,
2013-06-01 20:22:00,52.8,44.4,29.67,North,360,10.0,26.0,73,0.00,,OVC021,0.02,VWS V14.01,2013-06-02 01:22:00,
2013-06-01 20:23:00,52.8,44.4,29.67,WNW,302,8.0,26.0,73,0.00,,OVC021,0.02,VWS V14.01,2013-06-02 01:23:00,
2013-06-01 20:24:00,52.8,44.4,29.67,North,2,6.0,26.0,73,0.00,,OVC021,0.02,VWS V14.01,2013-06-02 01:24:00,
2013-06-01 20:25:00,52.8,44.4,29.67,NNW,343,12.0,26.0,73,0.00,,OVC021,0.02,VWS V14.01,2013-06-02 01:25:00,
2013-06-01 20:26:00,52.6,44.2,29.67,NNW,332,10.0,26.0,73,0.00,,OVC021,0.02,VWS V14.01,2013-06-02 01:26:00,
2013-06-01 20:27:00,52.6,44.2,29.67,North,353,2.0,26.0,73,0.00,,OVC021,0.02,VWS V14.01,2013-06-02 01:27:00,
2013-06-01 20:28:00,52.6,44.2,29.67,NNE,19,8.0,26.0,73,0.00,,OVC021,0.02,VWS V14.01,2013-06-02 01:28:00,
2013-06-01 20:29:00,52.6,44.2,29.67,North,2,10.0,26.0,73,0.00,,OVC021,0.02,VWS V14.01,2013-06-02 01:29:00,
2013-06-01 20:30:00,52.6,44.2,29.68,NNW,328,8.0,26.0,73,0.00,,OVC021,0.02,VWS V14.01,2013-06-02 01:30:00,
2013-06-01 20:31:00,52.6,44.2,29.68,NNW,339,5.0,12.0,73,0.00,,OVC021,0.02,VWS V14.01,2013-06-02 01:31:00,
2013-06-01 20:32:00,52.6,44.2,29.68,NW,319,1.0,12.0,73,0.00,,OVC021,0.02,VWS V14.01,2013-06-02 01:32:00,
2013-06-01 20:33:00,52.6,44.2,29.68,NW,324,2.0,12.0,73,0.00,,OVC025,0.02,VWS V14.01,2013-06-02 01:33:00,
2013-06-01 20:34:00,52.6,44.2,29.68,NNE,26,13.0,18.0,73,0.00,,OVC025,0.02,VWS V14.01,2013-06-02 01:34:00,
2013-06-01 20:35:00,52.6,44.2,29.68,North,353,7.0,18.0,73,0.00,,OVC025,0.02,VWS V14.01,2013-06-02 01:35:00,
2013-06-01 20:36:00,52.6,44.2,29.68,NNE,16,5.0,18.0,73,0.00,,OVC025,0.02,VWS V14.01,2013-06-02 01:36:00,
2013-06-01 20:37:00,52.6,44.2,29.68,NW,321,1.0,18.0,73,0.00,,OVC025,0.02,VWS V14.01,2013-06-02 01:37:00,
2013-06-01 20:38:00,52.6,44.2,29.68,NW,311,0.0,18.0,73,0.00,,OVC025,0.02,VWS V14.01,2013-06-02 01:38:00,
2013-06-01 20:39:00,52.5,44.1,29.68,NW,315,0.0,18.0,73,0.00,,OVC025,0.02,VWS V14.01,2013-06-02 01:39:00,
2013-06-01 20:40:00,52.5,44.1,29.68,NW,311,6.0,18.0,73,0.00,,OVC025,0.02,VWS V14.01,2013-06-02 01:40:00,
2013-06-01 20:41:00,52.5,44.1,29.68,NNW,336,1.0,18.0,73,0.00,,OVC025,0.02,VWS V14.01,2013-06-02 01:41:00,
2013-06-01 20:42:00,52.5,44.1,29.68,NNW,329,5.0,18.0,73,0.00,,OVC025,0.02,VWS V14.01,2013-06-02 01:42:00,
2013-06-01 20:43:00,52.5,44.1,29.68,North,9,14.0,18.0,73,0.00,,OVC025,0.02,VWS V14.01,2013-06-02 01:43:00,
2013-06-01 20:44:00,52.5,43.8,29.68,North,358,7.0,18.0,72,0.00,,OVC025,0.02,VWS V14.01,2013-06-02 01:44:00,
2013-06-01 20:45:00,52.5,44.1,29.69,NNW,346,7.0,18.0,73,0.00,,OVC025,0.02,VWS V14.01,2013-06-02 01:45:00,
2013-06-01 20:46:00,52.5,44.1,29.69,North,352,9.0,18.0,73,0.00,,OVC025,0.02,VWS V14.01,2013-06-02 01:46:00,
2013-06-01 20:47:00,52.5,44.1,29.69,North,352,11.0,18.0,73,0.00,,OVC025,0.02,VWS V14.01,2013-06-02 01:47:00,
2013-06-01 20:48:00,52.3,43.9,29.69,NW,308,2.0,18.0,73,0.00,,OVC025,0.02,VWS V14.01,2013-06-02 01:48:00,
2013-06-01 20:49:00,52.3,43.5,29.69,NW,310,3.0,18.0,72,0.00,,OVC025,0.02,VWS V14.01,2013-06-02 01:49:00,
2013-06-01 20:50:00,52.3,43.5,29.69,NW,322,7.0,18.0,72,0.00,,OVC025,0.02,VWS V14.01,2013-06-02 01:50:00,
2013-06-01 20:51:00,52.3,43.5,29.69,NW,305,3.0,18.0,72,0.00,,OVC025,0.02,VWS V14.01,2013-06-02 01:51:00,
2013-06-01 20:52:00,52.3,43.9,29.69,NNW,346,2.0,18.0,73,0.00,,OVC025,0.02,VWS V14.01,2013-06-02 01:52:00,
2013-06-01 20:53:00,52.3,43.9,29.69,North,350,13.0,18.0,73,0.00,,OVC025,0.02,VWS V14.01,2013-06-02 01:53:00,
2013-06-01 20:54:00,52.3,43.9,29.69,NNE,16,13.0,18.0,73,0.00,,OVC025,0.02,VWS V14.01,2013-06-02 01:54:00,
2013-06-01 20:55:00,52.3,43.9,29.69,NNE,13,8.0,18.0,73,0.00,,OVC025,0.02,VWS V14.01,2013-06-02 01:55:00,
2013-06-01 20:56:00,52.3,43.9,29.69,NW,314,3.0,18.0,73,0.00,,OVC025,0.02,VWS V14.01,2013-06-02 01:56:00,
2013-06-01 20:57:00,52.3,43.9,29.69,NNE,23,11.0,18.0,73,0.00,,OVC025,0.02,VWS V14.01,2013-06-02 01:57:00,
2013-06-01 20:58:00,52.3,43.9,29.69,NNE,13,10.0,18.0,73,0.00,,OVC025,0.02,VWS V14.01,2013-06-02 01:58:00,
2013-06-01 20:59:00,52.3,43.9,29.69,NNE,29,12.0,18.0,73,0.00,,OVC025,0.02,VWS V14.01,2013-06-02 01:59:00,
2013-06-01 21:00:00,52.3,43.9,29.70,NNE,14,8.0,18.0,73,0.00,,OVC025,0.02,VWS V14.01,2013-06-02 02:00:00,
2013-06-01 21:01:00,52.3,43.9,29.70,WNW,302,1.0,7.0,73,0.00,,OVC025,0.02,VWS V14.01,2013-06-02 02:01:00,
2013-06-01 21:02:00,52.3,43.9,29.70,North,356,11.0,11.0,73,0.00,,OVC025,0.02,VWS V14.01,2013-06-02 02:02:00,
2013-06-01 21:03:00,52.3,43.9,29.70,NW,325,13.0,16.0,73,0.00,,OVC025,0.02,VWS V14.01,2013-06-02 02:03:00,
2013-06-01 21:04:00,52.3,43.9,29.70,NNE,20,12.0,16.0,73,0.00,,OVC025,0.02,VWS V14.01,2013-06-02 02:04:00,
2013-06-01 21:05:00,52.3,43.9,29.70,North,353,6.0,17.0,73,0.00,,OVC025,0.02,VWS V14.01,2013-06-02 02:05:00,
2013-06-01 21:06:00,52.3,43.9,29.70,NE,40,7.0,17.0,73,0.00,,OVC025,0.02,VWS V14.01,2013-06-02 02:06:00,
2013-06-01 21:07:00,52.3,43.9,29.70,North,356,7.0,17.0,73,0.00,,OVC025,0.02,VWS V14.01,2013-06-02 02:07:00,
2013-06-01 21:08:00,52.3,43.9,29.70,NW,317,6.0,17.0,73,0.00,,OVC025,0.02,VWS V14.01,2013-06-02 02:08:00,
2013-06-01 21:09:00,52.3,43.9,29.70,NNW,338,11.0,17.0,73,0.00,,OVC025,0.02,VWS V14.01,2013-06-02 02:09:00,
2013-06-01 21:10:00,52.3,43.9,29.70,NNW,329,1.0,17.0,73,0.00,,OVC025,0.02,VWS V14.01,2013-06-02 02:10:00,
2013-06-01 21:11:00,52.2,43.8,29.70,NW,308,6.0,17.0,73,0.00,,OVC025,0.02,VWS V14.01,2013-06-02 02:11:00,
2013-06-01 21:12:00,52.2,43.8,29.70,NW,317,3.0,17.0,73,0.00,,OVC025,0.02,VWS V14.01,2013-06-02 02:12:00,
2013-06-01 21:13:00,52.2,43.8,29.70,NW,319,6.0,17.0,73,0.00,,OVC025,0.02,VWS V14.01,2013-06-02 02:13:00,
2013-06-01 21:14:00,52.2,43.8,29.70,North,352,6.0,17.0,73,0.00,,OVC025,0.02,VWS V14.01,2013-06-02 02:14:00,
2013-06-01 21:15:00,52.2,43.8,29.70,WNW,287,14.0,21.0,73,0.00,,OVC025,0.02,VWS V14.01,2013-06-02 02:15:00,
2013-06-01 21:16:00,52.2,43.5,29.70,NW,318,12.0,21.0,72,0.00,,OVC025,0.02,VWS V14.01,2013-06-02 02:16:00,
2013-06-01 21:17:00,52.2,43.5,29.70,NNW,329,5.0,21.0,72,0.00,,OVC025,0.02,VWS V14.01,2013-06-02 02:17:00,
2013-06-01 21:18:00,52.2,43.5,29.70,NNE,31,12.0,21.0,72,0.00,,OVC025,0.02,VWS V14.01,2013-06-02 02:18:00,
2013-06-01 21:19:00,52.2,43.5,29.70,North,360,5.0,21.0,72,0.00,,OVC025,0.02,VWS V14.01,2013-06-02 02:19:00,
2013-06-01 21:20:00,52.3,43.5,29.70,NW,304,3.0,21.0,72,0.00,,OVC025,0.02,VWS V14.01,2013-06-02 02:20:00,
2013-06-01 21:21:00,52.2,43.5,29.70,NW,319,1.0,21.0,72,0.00,,OVC025,0.02,VWS V14.01,2013-06-02 02:21:00,
2013-06-01 21:22:00,52.2,43.8,29.70,NNE,24,13.0,21.0,73,0.00,,OVC025,0.02,VWS V14.01,2013-06-02 02:22:00,
2013-06-01 21:23:00,52.2,43.5,29.70,NW,308,5.0,21.0,72,0.00,,OVC025,0.02,VWS V14.01,2013-06-02 02:23:00,
2013-06-01 21:24:00,52.2,43.5,29.70,North,349,17.0,21.0,72,0.00,,OVC025,0.02,VWS V14.01,2013-06-02 02:24:00,
2013-06-01 21:25:00,52.2,43.1,29.70,NNW,338,13.0,21.0,71,0.00,,OVC025,0.02,VWS V14.01,2013-06-02 02:25:00,
2013-06-01 21:26:00,52.2,43.1,29.70,NNE,33,17.0,21.0,71,0.00,,OVC025,0.02,VWS V14.01,2013-06-02 02:26:00,
2013-06-01 21:27:00,52.2,43.1,29.70,NE,38,10.0,21.0,71,0.00,,OVC025,0.02,VWS V14.01,2013-06-02 02:27:00,
2013-06-01 21:28:00,52.2,43.1,29.70,NNW,341,5.0,21.0,71,0.00,,OVC025,0.02,VWS V14.01,2013-06-02 02:28:00,
2013-06-01 21:29:00,52.2,43.1,29.70,NNE,12,17.0,21.0,71,0.00,,OVC025,0.02,VWS V14.01,2013-06-02 02:29:00,
2013-06-01 21:30:00,52.2,43.1,29.71,NNE,16,20.0,21.0,71,0.00,,OVC025,0.02,VWS V14.01,2013-06-02 02:30:00,
2013-06-01 21:31:00,52.2,43.1,29.71,NNW,328,1.0,20.0,71,0.00,,OVC025,0.02,VWS V14.01,2013-06-02 02:31:00,
2013-06-01 21:32:00,52.2,43.1,29.71,NE,40,17.0,20.0,71,0.00,,OVC025,0.02,VWS V14.01,2013-06-02 02:32:00,
2013-06-01 21:33:00,52.2,43.1,29.71,NNW,338,0.0,20.0,71,0.00,,OVC039,0.02,VWS V14.01,2013-06-02 02:33:00,
2013-06-01 21:34:00,52.2,43.1,29.71,NNW,338,1.0,20.0,71,0.00,,OVC039,0.02,VWS V14.01,2013-06-02 02:34:00,
2013-06-01 21:35:00,52.2,43.1,29.71,North,359,7.0,20.0,71,0.00,,OVC039,0.02,VWS V14.01,2013-06-02 02:35:00,
2013-06-01 21:36:00,52.2,43.1,29.71,NW,326,6.0,20.0,71,0.00,,OVC039,0.02,VWS V14.01,2013-06-02 02:36:00,
2013-06-01 21:37:00,52.2,43.1,29.71,NNE,12,8.0,20.0,71,0.00,,OVC039,0.02,VWS V14.01,2013-06-02 02:37:00,
2013-06-01 21:38:00,52.2,43.1,29.71,North,358,11.0,20.0,71,0.00,,OVC039,0.02,VWS V14.01,2013-06-02 02:38:00,
2013-06-01 21:39:00,52.2,43.1,29.71,NNE,23,8.0,20.0,71,0.00,,OVC039,0.02,VWS V14.01,2013-06-02 02:39:00,
2013-06-01 21:40:00,52.2,43.1,29.71,NE,43,19.0,20.0,71,0.00,,OVC039,0.02,VWS V14.01,2013-06-02 02:40:00,
2013-06-01 21:41:00,52.2,43.1,29.71,NNE,16,12.0,20.0,71,0.00,,OVC039,0.02,VWS V14.01,2013-06-02 02:41:00,
2013-06-01 21:42:00,52.2,43.1,29.71,NNE,22,12.0,20.0,71,0.00,,OVC039,0.02,VWS V14.01,2013-06-02 02:42:00,
2013-06-01 21:43:00,52.2,43.1,29.71,NE,40,16.0,22.0,71,0.00,,OVC039,0.02,VWS V14.01,2013-06-02 02:43:00,
2013-06-01 21:44:00,52.2,43.1,29.71,North,349,8.0,22.0,71,0.00,,OVC039,0.02,VWS V14.01,2013-06-02 02:44:00,
2013-06-01 21:45:00,52.2,43.1,29.71,North,358,8.0,22.0,71,0.00,,OVC039,0.02,VWS V14.01,2013-06-02 02:45:00,
2013-06-01 21:46:00,52.2,43.1,29.71,NNE,17,18.0,22.0,71,0.00,,OVC039,0.02,VWS V14.01,2013-06-02 02:46:00,
2013-06-01 21:47:00,52.2,42.7,29.71,NNE,22,17.0,22.0,70,0.00,,OVC039,0.02,VWS V14.01,2013-06-02 02:47:00,
2013-06-01 21:48:00,52.2,42.7,29.71,NNE,24,13.0,22.0,70,0.00,,OVC039,0.02,VWS V14.01,2013-06-02 02:48:00,
2013-06-01 21:49:00,52.2,42.7,29.71,NE,46,11.0,22.0,70,0.00,,OVC039,0.02,VWS V14.01,2013-06-02 02:49:00,
2013-06-01 21:50:00,52.2,42.7,29.71,NE,37,7.0,22.0,70,0.00,,OVC039,0.02,VWS V14.01,2013-06-02 02:50:00,
2013-06-01 21:51:00,52.2,43.1,29.71,NNW,329,19.0,22.0,71,0.00,,OVC039,0.02,VWS V14.01,2013-06-02 02:51:00,
2013-06-01 21:52:00,52.2,43.1,29.71,NE,43,8.0,22.0,71,0.00,,OVC039,0.02,VWS V14.01,2013-06-02 02:52:00,
2013-06-01 21:53:00,52.2,43.1,29.71,North,358,6.0,22.0,71,0.00,,OVC039,0.02,VWS V14.01,2013-06-02 02:53:00,
2013-06-01 21:54:00,52.2,43.1,29.71,NE,47,17.0,22.0,71,0.00,,OVC039,0.02,VWS V14.01,2013-06-02 02:54:00,
2013-06-01 21:55:00,52.2,43.1,29.71,NE,43,6.0,22.0,71,0.00,,OVC039,0.02,VWS V14.01,2013-06-02 02:55:00,
2013-06-01 21:56:00,52.2,43.1,29.71,NE,48,11.0,22.0,71,0.00,,OVC039,0.02,VWS V14.01,2013-06-02 02:56:00,
2013-06-01 21:57:00,52.2,43.1,29.71,NNE,23,7.0,22.0,71,0.00,,OVC039,0.02,VWS V14.01,2013-06-02 02:57:00,
2013-06-01 21:58:00,52.2,43.1,29.71,NE,37,12.0,22.0,71,0.00,,OVC039,0.02,VWS V14.01,2013-06-02 02:58:00,
2013-06-01 21:59:00,52.2,43.1,29.71,NNE,14,4.0,22.0,71,0.00,,OVC039,0.02,VWS V14.01,2013-06-02 02:59:00,
2013-06-01 22:00:00,52.0,42.9,29.72,North,5,10.0,22.0,71,0.00,,OVC039,0.02,VWS V14.01,2013-06-02 03:00:00,
2013-06-01 22:01:00,52.0,43.3,29.72,NNE,17,13.0,16.0,72,0.00,,OVC039,0.02,VWS V14.01,2013-06-02 03:01:00,
2013-06-01 22:02:00,52.0,43.3,29.72,NE,43,16.0,17.0,72,0.00,,OVC039,0.02,VWS V14.01,2013-06-02 03:02:00,
2013-06-01 22:03:00,52.0,43.3,29.72,NNE,27,13.0,19.0,72,0.00,,OVC043,0.02,VWS V14.01,2013-06-02 03:03:00,
2013-06-01 22:04:00,52.0,43.3,29.72,NNE,16,7.0,19.0,72,0.00,,OVC043,0.02,VWS V14.01,2013-06-02 03:04:00,
2013-06-01 22:05:00,52.0,43.3,29.72,NNE,22,2.0,19.0,72,0.00,,OVC043,0.02,VWS V14.01,2013-06-02 03:05:00,
2013-06-01 22:06:00,52.0,43.3,29.72,North,358,2.0,19.0,72,0.00,,OVC043,0.02,VWS V14.01,2013-06-02 03:06:00,
2013-06-01 22:07:00,52.0,43.6,29.72,NNE,23,7.0,19.0,73,0.00,,OVC043,0.02,VWS V14.01,2013-06-02 03:07:00,
2013-06-01 22:08:00,52.0,43.6,29.72,NNW,339,5.0,19.0,73,0.00,,OVC043,0.02,VWS V14.01,2013-06-02 03:08:00,
2013-06-01 22:09:00,51.9,43.5,29.72,NNE,23,10.0,19.0,73,0.00,,OVC043,0.02,VWS V14.01,2013-06-02 03:09:00,
2013-06-01 22:10:00,51.9,43.2,29.72,NE,53,14.0,19.0,72,0.00,,OVC043,0.02,VWS V14.01,2013-06-02 03:10:00,
2013-06-01 22:11:00,51.9,43.5,29.72,NNW,346,3.0,19.0,73,0.00,,OVC043,0.02,VWS V14.01,2013-06-02 03:11:00,
2013-06-01 22:12:00,51.9,43.2,29.72,NNE,14,11.0,22.0,72,0.00,,OVC043,0.02,VWS V14.01,2013-06-02 03:12:00,
2013-06-01 22:13:00,51.9,43.5,29.72,NNW,348,7.0,22.0,73,0.00,,OVC043,0.02,VWS V14.01,2013-06-02 03:13:00,
2013-06-01 22:14:00,51.7,43.3,29.72,NW,324,7.0,22.0,73,0.00,,OVC043,0.02,VWS V14.01,2013-06-02 03:14:00,
2013-06-01 22:15:00,51.7,43.3,29.72,NE,40,11.0,22.0,73,0.00,,OVC043,0.02,VWS V14.01,2013-06-02 03:15:00,
2013-06-01 22:16:00,51.7,43.3,29.72,North,7,12.0,22.0,73,0.00,,OVC043,0.02,VWS V14.01,2013-06-02 03:16:00,
2013-06-01 22:17:00,51.7,43.3,29.72,NW,315,8.0,22.0,73,0.00,,OVC043,0.02,VWS V14.01,2013-06-02 03:17:00,
2013-06-01 22:18:00,51.7,43.3,29.72,NW,324,16.0,22.0,73,0.00,,OVC043,0.02,VWS V14.01,2013-06-02 03:18:00,
2013-06-01 22:19:00,51.7,43.3,29.72,NNW,331,0.0,22.0,73,0.00,,OVC043,0.02,VWS V14.01,2013-06-02 03:19:00,
2013-06-01 22:20:00,51.7,43.3,29.72,NNE,22,16.0,22.0,73,0.00,,OVC043,0.02,VWS V14.01,2013-06-02 03:20:00,
2013-06-01 22:21:00,51.7,43.3,29.72,NNE,13,10.0,22.0,73,0.00,,OVC043,0.02,VWS V14.01,2013-06-02 03:21:00,
2013-06-01 22:22:00,51.7,43.3,29.72,NNW,348,4.0,22.0,73,0.00,,OVC043,0.02,VWS V14.01,2013-06-02 03:22:00,
2013-06-01 22:23:00,51.7,43.3,29.72,NW,310,13.0,22.0,73,0.00,,OVC043,0.02,VWS V14.01,2013-06-02 03:23:00,
2013-06-01 22:24:00,51.7,43.3,29.72,NNW,334,8.0,22.0,73,0.00,,OVC043,0.02,VWS V14.01,2013-06-02 03:24:00,
2013-06-01 22:25:00,51.7,43.3,29.72,North,5,10.0,22.0,73,0.00,,OVC043,0.02,VWS V14.01,2013-06-02 03:25:00,
2013-06-01 22:26:00,51.7,43.7,29.72,NNW,334,6.0,22.0,74,0.00,,OVC043,0.02,VWS V14.01,2013-06-02 03:26:00,
2013-06-01 22:27:00,51.7,43.7,29.72,North,358,3.0,22.0,74,0.00,,OVC043,0.02,VWS V14.01,2013-06-02 03:27:00,
2013-06-01 22:28:00,51.7,43.7,29.72,NNE,30,7.0,22.0,74,0.00,,OVC043,0.02,VWS V14.01,2013-06-02 03:28:00,
2013-06-01 22:29:00,51.7,43.7,29.72,NNE,19,9.0,22.0,74,0.00,,OVC043,0.02,VWS V14.01,2013-06-02 03:29:00,
2013-06-01 22:30:00,51.7,43.7,29.72,North,353,6.0,22.0,74,0.00,,OVC043,0.02,VWS V14.01,2013-06-02 03:30:00,
2013-06-01 22:31:00,51.7,43.7,29.72,NNE,22,7.0,10.0,74,0.00,,OVC043,0.02,VWS V14.01,2013-06-02 03:31:00,
2013-06-01 22:32:00,51.7,43.7,29.72,NNE,17,12.0,12.0,74,0.00,,OVC043,0.02,VWS V14.01,2013-06-02 03:32:00,
2013-06-01 22:33:00,51.7,43.7,29.72,NNE,22,7.0,12.0,74,0.00,,OVC065,0.02,VWS V14.01,2013-06-02 03:33:00,
2013-06-01 22:34:00,51.7,43.7,29.72,ENE,65,6.0,12.0,74,0.00,,OVC065,0.02,VWS V14.01,2013-06-02 03:34:00,
2013-06-01 22:35:00,51.7,43.7,29.72,NNE,19,6.0,12.0,74,0.00,,OVC065,0.02,VWS V14.01,2013-06-02 03:35:00,
2013-06-01 22:36:00,51.7,43.7,29.72,NNE,17,0.0,12.0,74,0.00,,OVC065,0.02,VWS V14.01,2013-06-02 03:36:00,
2013-06-01 22:37:00,51.7,43.7,29.72,NNE,20,2.0,12.0,74,0.00,,OVC065,0.02,VWS V14.01,2013-06-02 03:37:00,
2013-06-01 22:38:00,51.7,43.7,29.72,NNW,339,5.0,17.0,74,0.00,,OVC065,0.02,VWS V14.01,2013-06-02 03:38:00,
2013-06-01 22:39:00,51.7,43.7,29.72,NW,321,2.0,17.0,74,0.00,,OVC065,0.02,VWS V14.01,2013-06-02 03:39:00,
2013-06-01 22:40:00,51.7,43.7,29.72,NW,318,14.0,17.0,74,0.00,,OVC065,0.02,VWS V14.01,2013-06-02 03:40:00,
2013-06-01 22:41:00,51.7,43.7,29.72,NW,326,17.0,17.0,74,0.00,,OVC065,0.02,VWS V14.01,2013-06-02 03:41:00,
2013-06-01 22:42:00,51.7,43.7,29.72,North,350,10.0,17.0,74,0.00,,OVC065,0.02,VWS V14.01,2013-06-02 03:42:00,
2013-06-01 22:43:00,51.7,43.7,29.72,NW,326,1.0,17.0,74,0.00,,OVC065,0.02,VWS V14.01,2013-06-02 03:43:00,
2013-06-01 22:44:00,51.7,43.7,29.72,NNE,23,5.0,17.0,74,0.00,,OVC065,0.02,VWS V14.01,2013-06-02 03:44:00,
2013-06-01 22:45:00,51.7,43.7,29.73,NNW,334,6.0,17.0,74,0.00,,OVC065,0.02,VWS V14.01,2013-06-02 03:45:00,
2013-06-01 22:46:00,51.7,43.7,29.73,NNW,338,8.0,17.0,74,0.00,,OVC065,0.02,VWS V14.01,2013-06-02 03:46:00,
2013-06-01 22:47:00,51.7,43.7,29.73,NW,315,2.0,17.0,74,0.00,,OVC065,0.02,VWS V14.01,2013-06-02 03:47:00,
2013-06-01 22:48:00,51.7,43.7,29.73,NNW,331,7.0,17.0,74,0.00,,OVC065,0.02,VWS V14.01,2013-06-02 03:48:00,
2013-06-01 22:49:00,51.7,43.7,29.73,North,9,6.0,17.0,74,0.00,,OVC065,0.02,VWS V14.01,2013-06-02 03:49:00,
2013-06-01 22:50:00,51.7,43.7,29.73,NNE,26,10.0,17.0,74,0.00,,OVC065,0.02,VWS V14.01,2013-06-02 03:50:00,
2013-06-01 22:51:00,51.7,43.7,29.73,NNW,336,6.0,17.0,74,0.00,,OVC065,0.02,VWS V14.01,2013-06-02 03:51:00,
2013-06-01 22:52:00,51.7,43.7,29.73,North,360,1.0,17.0,74,0.00,,OVC065,0.02,VWS V14.01,2013-06-02 03:52:00,
2013-06-01 22:53:00,51.7,44.0,29.73,NNE,30,10.0,17.0,75,0.00,,OVC065,0.02,VWS V14.01,2013-06-02 03:53:00,
2013-06-01 22:54:00,51.7,44.0,29.73,NNW,345,2.0,17.0,75,0.00,,OVC065,0.02,VWS V14.01,2013-06-02 03:54:00,
2013-06-01 22:55:00,51.7,44.0,29.73,NNE,30,14.0,17.0,75,0.00,,OVC065,0.02,VWS V14.01,2013-06-02 03:55:00,
2013-06-01 22:56:00,51.7,44.0,29.73,NNW,348,11.0,18.0,75,0.00,,OVC065,0.02,VWS V14.01,2013-06-02 03:56:00,
2013-06-01 22:57:00,51.7,44.0,29.73,ENE,57,10.0,18.0,75,0.00,,OVC065,0.02,VWS V14.01,2013-06-02 03:57:00,
2013-06-01 22:58:00,51.7,44.0,29.73,North,360,5.0,18.0,75,0.00,,OVC065,0.02,VWS V14.01,2013-06-02 03:58:00,
2013-06-01 22:59:00,51.6,44.0,29.73,NNW,338,1.0,18.0,75,0.00,,OVC065,0.02,VWS V14.01,2013-06-02 03:59:00,
2013-06-01 23:00:00,51.6,44.3,29.73,NNE,12,5.0,18.0,76,0.00,,OVC065,0.02,VWS V14.01,2013-06-02 04:00:00,
2013-06-01 23:01:00,51.6,44.3,29.73,North,358,7.0,12.0,76,0.00,,OVC065,0.02,VWS V14.01,2013-06-02 04:01:00,
2013-06-01 23:02:00,51.6,44.0,29.73,North,6,5.0,12.0,75,0.00,,OVC065,0.02,VWS V14.01,2013-06-02 04:02:00,
2013-06-01 23:03:00,51.6,44.0,29.73,NW,319,3.0,12.0,75,0.00,,OVC065,0.02,VWS V14.01,2013-06-02 04:03:00,
2013-06-01 23:04:00,51.6,44.3,29.73,NNW,331,1.0,12.0,76,0.00,,OVC065,0.02,VWS V14.01,2013-06-02 04:04:00,
2013-06-01 23:05:00,51.6,44.3,29.73,NW,311,1.0,12.0,76,0.00,,OVC065,0.02,VWS V14.01,2013-06-02 04:05:00,
2013-06-01 23:06:00,51.6,44.3,29.73,NW,321,3.0,12.0,76,0.00,,OVC065,0.02,VWS V14.01,2013-06-02 04:06:00,
2013-06-01 23:07:00,51.6,44.3,29.73,NW,314,7.0,12.0,76,0.00,,OVC065,0.02,VWS V14.01,2013-06-02 04:07:00,
2013-06-01 23:08:00,51.6,44.0,29.73,NNW,348,8.0,13.0,75,0.00,,OVC065,0.02,VWS V14.01,2013-06-02 04:08:00,
2013-06-01 23:09:00,51.6,44.0,29.73,NNW,343,3.0,14.0,75,0.00,,OVC065,0.02,VWS V14.01,2013-06-02 04:09:00,
2013-06-01 23:10:00,51.6,44.0,29.73,NW,325,5.0,14.0,75,0.00,,OVC065,0.02,VWS V14.01,2013-06-02 04:10:00,
2013-06-01 23:11:00,51.6,44.0,29.73,North,349,11.0,14.0,75,0.00,,OVC065,0.02,VWS V14.01,2013-06-02 04:11:00,
2013-06-01 23:12:00,51.6,44.0,29.73,NNW,346,4.0,14.0,75,0.00,,OVC065,0.02,VWS V14.01,2013-06-02 04:12:00,
2013-06-01 23:13:00,51.6,44.0,29.73,NNW,342,11.0,14.0,75,0.00,,OVC065,0.02,VWS V14.01,2013-06-02 04:13:00,
2013-06-01 23:14:00,51.6,43.6,29.73,NW,310,5.0,14.0,74,0.00,,OVC065,0.02,VWS V14.01,2013-06-02 04:14:00,
2013-06-01 23:15:00,51.6,44.0,29.74,North,356,6.0,14.0,75,0.00,,OVC065,0.02,VWS V14.01,2013-06-02 04:15:00,
2013-06-01 23:16:00,51.6,44.0,29.74,NNE,30,6.0,14.0,75,0.00,,OVC065,0.02,VWS V14.01,2013-06-02 04:16:00,
2013-06-01 23:17:00,51.6,44.0,29.74,NNW,329,2.0,14.0,75,0.00,,OVC065,0.02,VWS V14.01,2013-06-02 04:17:00,
2013-06-01 23:18:00,51.6,44.0,29.74,NNE,33,12.0,14.0,75,0.00,,OVC065,0.02,VWS V14.01,2013-06-02 04:18:00,
2013-06-01 23:19:00,51.6,44.0,29.74,NNW,328,6.0,14.0,75,0.00,,OVC065,0.02,VWS V14.01,2013-06-02 04:19:00,
2013-06-01 23:20:00,51.6,43.6,29.74,NNW,342,8.0,14.0,74,0.00,,OVC065,0.02,VWS V14.01,2013-06-02 04:20:00,
2013-06-01 23:21:00,51.6,43.6,29.74,North,349,13.0,14.0,74,0.00,,OVC065,0.02,VWS V14.01,2013-06-02 04:21:00,
2013-06-01 23:22:00,51.6,43.6,29.74,NE,40,18.0,18.0,74,0.00,,OVC065,0.02,VWS V14.01,2013-06-02 04:22:00,
2013-06-01 23:23:00,51.6,43.6,29.74,NNW,335,16.0,18.0,74,0.00,,OVC065,0.02,VWS V14.01,2013-06-02 04:23:00,
2013-06-01 23:24:00,51.6,43.6,29.74,NNE,31,13.0,18.0,74,0.00,,OVC065,0.02,VWS V14.01,2013-06-02 04:24:00,
2013-06-01 23:25:00,51.6,43.6,29.74,North,10,11.0,18.0,74,0.00,,OVC065,0.02,VWS V14.01,2013-06-02 04:25:00,
2013-06-01 23:26:00,51.6,43.6,29.74,NNW,348,6.0,18.0,74,0.00,,OVC065,0.02,VWS V14.01,2013-06-02 04:26:00,
2013-06-01 23:27:00,51.6,43.6,29.74,NNW,329,11.0,18.0,74,0.00,,OVC065,0.02,VWS V14.01,2013-06-02 04:27:00,
2013-06-01 23:28:00,51.4,43.4,29.74,NNE,14,8.0,18.0,74,0.00,,OVC065,0.02,VWS V14.01,2013-06-02 04:28:00,
2013-06-01 23:29:00,51.4,43.4,29.74,NNE,13,12.0,20.0,74,0.00,,OVC065,0.02,VWS V14.01,2013-06-02 04:29:00,
2013-06-01 23:30:00,51.4,43.4,29.75,NW,315,13.0,20.0,74,0.00,,OVC065,0.02,VWS V14.01,2013-06-02 04:30:00,
2013-06-01 23:31:00,51.4,43.4,29.75,NE,41,2.0,13.0,74,0.00,,OVC065,0.02,VWS V14.01,2013-06-02 04:31:00,
2013-06-01 23:32:00,51.4,43.4,29.75,North,10,13.0,17.0,74,0.00,,OVC065,0.02,VWS V14.01,2013-06-02 04:32:00,
2013-06-01 23:33:00,51.4,43.4,29.75,NE,34,14.0,17.0,74,0.00,,OVC034,0.02,VWS V14.01,2013-06-02 04:33:00,
2013-06-01 23:34:00,51.4,43.0,29.75,NW,321,7.0,17.0,73,0.00,,OVC034,0.02,VWS V14.01,2013-06-02 04:34:00,
2013-06-01 23:35:00,51.4,43.0,29.75,NW,312,4.0,17.0,73,0.00,,OVC034,0.02,VWS V14.01,2013-06-02 04:35:00,
2013-06-01 23:36:00,51.4,43.0,29.75,NNW,343,5.0,17.0,73,0.00,,OVC034,0.02,VWS V14.01,2013-06-02 04:36:00,
2013-06-01 23:37:00,51.4,43.0,29.75,NE,36,13.0,19.0,73,0.00,,OVC034,0.02,VWS V14.01,2013-06-02 04:37:00,
2013-06-01 23:38:00,51.4,43.0,29.75,North,359,7.0,19.0,73,0.00,,OVC034,0.02,VWS V14.01,2013-06-02 04:38:00,
2013-06-01 23:39:00,51.4,42.7,29.75,NE,36,17.0,19.0,72,0.00,,OVC034,0.02,VWS V14.01,2013-06-02 04:39:00,
2013-06-01 23:40:00,51.4,42.7,29.75,NNW,345,6.0,19.0,72,0.00,,OVC034,0.02,VWS V14.01,2013-06-02 04:40:00,
2013-06-01 23:41:00,51.4,42.7,29.75,NW,321,0.0,19.0,72,0.00,,OVC034,0.02,VWS V14.01,2013-06-02 04:41:00,
2013-06-01 23:42:00,51.4,42.7,29.75,North,353,11.0,19.0,72,0.00,,OVC034,0.02,VWS V14.01,2013-06-02 04:42:00,
2013-06-01 23:43:00,51.4,42.7,29.75,NNW,339,1.0,19.0,72,0.00,,OVC034,0.02,VWS V14.01,2013-06-02 04:43:00,
2013-06-01 23:44:00,51.4,42.7,29.75,NNW,339,4.0,19.0,72,0.00,,OVC034,0.02,VWS V14.01,2013-06-02 04:44:00,
2013-06-01 23:45:00,51.4,42.7,29.75,NNW,335,3.0,19.0,72,0.00,,OVC034,0.02,VWS V14.01,2013-06-02 04:45:00,
2013-06-01 23:46:00,51.4,43.0,29.75,NNW,329,1.0,19.0,73,0.00,,OVC034,0.02,VWS V14.01,2013-06-02 04:46:00,
2013-06-01 23:47:00,51.4,43.0,29.75,NNW,332,14.0,21.0,73,0.00,,OVC034,0.02,VWS V14.01,2013-06-02 04:47:00,
2013-06-01 23:48:00,51.4,42.7,29.75,NNW,335,2.0,21.0,72,0.00,,OVC034,0.02,VWS V14.01,2013-06-02 04:48:00,
2013-06-01 23:49:00,51.4,42.7,29.75,North,10,7.0,21.0,72,0.00,,OVC034,0.02,VWS V14.01,2013-06-02 04:49:00,
2013-06-01 23:50:00,51.4,42.7,29.75,NNW,341,9.0,21.0,72,0.00,,OVC034,0.02,VWS V14.01,2013-06-02 04:50:00,
2013-06-01 23:51:00,51.4,42.7,29.75,NNE,27,13.0,21.0,72,0.00,,OVC034,0.02,VWS V14.01,2013-06-02 04:51:00,
2013-06-01 23:52:00,51.4,42.7,29.75,North,3,10.0,21.0,72,0.00,,OVC034,0.02,VWS V14.01,2013-06-02 04:52:00,
2013-06-01 23:53:00,51.4,42.7,29.75,NNE,29,14.0,21.0,72,0.00,,OVC034,0.02,VWS V14.01,2013-06-02 04:53:00,
2013-06-01 23:54:00,51.4,42.7,29.75,NE,37,11.0,21.0,72,0.00,,OVC034,0.02,VWS V14.01,2013-06-02 04:54:00,
2013-06-01 23:55:00,51.4,42.7,29.75,WNW,298,1.0,21.0,72,0.00,,OVC034,0.02,VWS V14.01,2013-06-02 04:55:00,
2013-06-01 23:56:00,51.4,42.7,29.75,NNE,13,7.0,21.0,72,0.00,,OVC034,0.02,VWS V14.01,2013-06-02 04:56:00,
2013-06-01 23:57:00,51.4,42.7,29.75,North,360,7.0,21.0,72,0.00,,OVC034,0.02,VWS V14.01,2013-06-02 04:57:00,
2013-06-01 23:58:00,51.3,42.6,29.75,NNE,17,6.0,21.0,72,0.00,,OVC034,0.02,VWS V14.01,2013-06-02 04:58:00,
2013-06-01 23:59:00,51.3,42.6,29.75,NNW,338,3.0,21.0,72,0.00,,OVC034,0.02,VWS V14.01,2013-06-02 04:59:00,